<?xml version="1.0" encoding="UTF-8" standalone="no" ?>
<gpx xmlns="http://www.topografix.com/GPX/1/1" xmlns:xsi="http://www.w3.org/2001/XMLSchema-instance" xsi:schemaLocation="http://www.topografix.com/GPX/1/1 http://www.topografix.com/GPX/1/1/gpx.xsd" version="1.1" creator="VisuGPX - https://www.visugpx.com">
  <metadata>
    <name>GR20 20150703 Etape 11 Capanelle - Prati</name>
    <desc><![CDATA[GR20 Etape 11
Météo ensoleillée]]></desc>
  </metadata>
  <trk>
    <name><![CDATA[ACTIVE LOG061804]]></name>
    <trkseg>
      <trkpt lat="42.0772" lon="9.15023">
        <ele>1546.558</ele>
        <time>2015-07-03T04:18:02Z</time>
      </trkpt>
      <trkpt lat="42.0772" lon="9.15023">
        <ele>1546.558</ele>
        <time>2015-07-03T04:18:04Z</time>
      </trkpt>
      <trkpt lat="42.0772" lon="9.15023">
        <ele>1549.955</ele>
        <time>2015-07-03T04:18:06Z</time>
      </trkpt>
      <trkpt lat="42.0772" lon="9.15023">
        <ele>1554.08</ele>
        <time>2015-07-03T04:18:08Z</time>
      </trkpt>
      <trkpt lat="42.0772" lon="9.15023">
        <ele>1560.098</ele>
        <time>2015-07-03T04:18:11Z</time>
      </trkpt>
    </trkseg>
  </trk>
  <trk>
    <name><![CDATA[ACTIVE LOG061819]]></name>
    <trkseg>
      <trkpt lat="42.0772" lon="9.15021">
        <ele>1562.332</ele>
        <time>2015-07-03T04:18:19Z</time>
      </trkpt>
      <trkpt lat="42.07724" lon="9.15018">
        <ele>1560.741</ele>
        <time>2015-07-03T04:18:42Z</time>
      </trkpt>
      <trkpt lat="42.07724" lon="9.15019">
        <ele>1563.093</ele>
        <time>2015-07-03T04:18:47Z</time>
      </trkpt>
      <trkpt lat="42.07721" lon="9.1502">
        <ele>1563.424</ele>
        <time>2015-07-03T04:19:03Z</time>
      </trkpt>
      <trkpt lat="42.07723" lon="9.15028">
        <ele>1565.06</ele>
        <time>2015-07-03T04:19:47Z</time>
      </trkpt>
      <trkpt lat="42.07725" lon="9.1503">
        <ele>1566.103</ele>
        <time>2015-07-03T04:20:04Z</time>
      </trkpt>
      <trkpt lat="42.07723" lon="9.15031">
        <ele>1566.597</ele>
        <time>2015-07-03T04:20:24Z</time>
      </trkpt>
      <trkpt lat="42.07719" lon="9.15023">
        <ele>1566.099</ele>
        <time>2015-07-03T04:20:39Z</time>
      </trkpt>
      <trkpt lat="42.07713" lon="9.1502">
        <ele>1564.647</ele>
        <time>2015-07-03T04:20:49Z</time>
      </trkpt>
      <trkpt lat="42.07692" lon="9.15012">
        <ele>1563.448</ele>
        <time>2015-07-03T04:21:09Z</time>
      </trkpt>
      <trkpt lat="42.07675" lon="9.15004">
        <ele>1564.754</ele>
        <time>2015-07-03T04:21:29Z</time>
      </trkpt>
      <trkpt lat="42.07664" lon="9.15003">
        <ele>1566.6</ele>
        <time>2015-07-03T04:21:46Z</time>
      </trkpt>
      <trkpt lat="42.07658" lon="9.1502">
        <ele>1567.858</ele>
        <time>2015-07-03T04:22:04Z</time>
      </trkpt>
      <trkpt lat="42.07654" lon="9.15028">
        <ele>1569.541</ele>
        <time>2015-07-03T04:22:21Z</time>
      </trkpt>
      <trkpt lat="42.07641" lon="9.15042">
        <ele>1571.669</ele>
        <time>2015-07-03T04:22:42Z</time>
      </trkpt>
      <trkpt lat="42.07636" lon="9.15046">
        <ele>1574.778</ele>
        <time>2015-07-03T04:22:56Z</time>
      </trkpt>
      <trkpt lat="42.07634" lon="9.15047">
        <ele>1575.126</ele>
        <time>2015-07-03T04:23:07Z</time>
      </trkpt>
      <trkpt lat="42.0763" lon="9.15052">
        <ele>1577.25</ele>
        <time>2015-07-03T04:23:22Z</time>
      </trkpt>
      <trkpt lat="42.07626" lon="9.1506">
        <ele>1579.546</ele>
        <time>2015-07-03T04:23:39Z</time>
      </trkpt>
      <trkpt lat="42.07624" lon="9.15071">
        <ele>1580.953</ele>
        <time>2015-07-03T04:23:55Z</time>
      </trkpt>
      <trkpt lat="42.07621" lon="9.15082">
        <ele>1583.078</ele>
        <time>2015-07-03T04:24:10Z</time>
      </trkpt>
      <trkpt lat="42.07617" lon="9.15084">
        <ele>1584.277</ele>
        <time>2015-07-03T04:24:23Z</time>
      </trkpt>
      <trkpt lat="42.07613" lon="9.15086">
        <ele>1587.619</ele>
        <time>2015-07-03T04:24:36Z</time>
      </trkpt>
      <trkpt lat="42.07612" lon="9.1509">
        <ele>1588.699</ele>
        <time>2015-07-03T04:24:47Z</time>
      </trkpt>
      <trkpt lat="42.0761" lon="9.15098">
        <ele>1589.628</ele>
        <time>2015-07-03T04:25:02Z</time>
      </trkpt>
      <trkpt lat="42.07609" lon="9.15103">
        <ele>1589.655</ele>
        <time>2015-07-03T04:25:15Z</time>
      </trkpt>
      <trkpt lat="42.07604" lon="9.1511">
        <ele>1589.757</ele>
        <time>2015-07-03T04:25:29Z</time>
      </trkpt>
      <trkpt lat="42.07601" lon="9.15111">
        <ele>1590.474</ele>
        <time>2015-07-03T04:25:44Z</time>
      </trkpt>
      <trkpt lat="42.07599" lon="9.15114">
        <ele>1592.723</ele>
        <time>2015-07-03T04:25:57Z</time>
      </trkpt>
      <trkpt lat="42.07596" lon="9.15119">
        <ele>1593.99</ele>
        <time>2015-07-03T04:26:11Z</time>
      </trkpt>
      <trkpt lat="42.07592" lon="9.15123">
        <ele>1594.413</ele>
        <time>2015-07-03T04:26:25Z</time>
      </trkpt>
      <trkpt lat="42.0759" lon="9.15127">
        <ele>1595.058</ele>
        <time>2015-07-03T04:26:38Z</time>
      </trkpt>
      <trkpt lat="42.07587" lon="9.15137">
        <ele>1597.036</ele>
        <time>2015-07-03T04:26:51Z</time>
      </trkpt>
      <trkpt lat="42.07582" lon="9.15151">
        <ele>1599.309</ele>
        <time>2015-07-03T04:27:07Z</time>
      </trkpt>
      <trkpt lat="42.07576" lon="9.15157">
        <ele>1600.965</ele>
        <time>2015-07-03T04:27:22Z</time>
      </trkpt>
      <trkpt lat="42.07573" lon="9.1516">
        <ele>1602.156</ele>
        <time>2015-07-03T04:27:35Z</time>
      </trkpt>
      <trkpt lat="42.07569" lon="9.15158">
        <ele>1604.625</ele>
        <time>2015-07-03T04:27:48Z</time>
      </trkpt>
      <trkpt lat="42.07564" lon="9.15156">
        <ele>1604.661</ele>
        <time>2015-07-03T04:28:02Z</time>
      </trkpt>
      <trkpt lat="42.0756" lon="9.15158">
        <ele>1603.589</ele>
        <time>2015-07-03T04:28:16Z</time>
      </trkpt>
      <trkpt lat="42.07554" lon="9.15162">
        <ele>1601.945</ele>
        <time>2015-07-03T04:28:31Z</time>
      </trkpt>
      <trkpt lat="42.0755" lon="9.15164">
        <ele>1602.16</ele>
        <time>2015-07-03T04:28:35Z</time>
      </trkpt>
      <trkpt lat="42.07541" lon="9.15171">
        <ele>1602.054</ele>
        <time>2015-07-03T04:28:52Z</time>
      </trkpt>
      <trkpt lat="42.07533" lon="9.1518">
        <ele>1601.673</ele>
        <time>2015-07-03T04:29:07Z</time>
      </trkpt>
      <trkpt lat="42.07532" lon="9.15182">
        <ele>1601.594</ele>
        <time>2015-07-03T04:29:09Z</time>
      </trkpt>
      <trkpt lat="42.07522" lon="9.15194">
        <ele>1602.57</ele>
        <time>2015-07-03T04:29:24Z</time>
      </trkpt>
      <trkpt lat="42.0752" lon="9.15199">
        <ele>1602.095</ele>
        <time>2015-07-03T04:29:29Z</time>
      </trkpt>
      <trkpt lat="42.07517" lon="9.15208">
        <ele>1602.114</ele>
        <time>2015-07-03T04:29:36Z</time>
      </trkpt>
      <trkpt lat="42.07517" lon="9.15215">
        <ele>1601.801</ele>
        <time>2015-07-03T04:29:41Z</time>
      </trkpt>
      <trkpt lat="42.07501" lon="9.15232">
        <ele>1601.843</ele>
        <time>2015-07-03T04:30:00Z</time>
      </trkpt>
      <trkpt lat="42.07488" lon="9.15241">
        <ele>1600.943</ele>
        <time>2015-07-03T04:30:19Z</time>
      </trkpt>
      <trkpt lat="42.07478" lon="9.15245">
        <ele>1599.868</ele>
        <time>2015-07-03T04:30:31Z</time>
      </trkpt>
      <trkpt lat="42.0747" lon="9.15251">
        <ele>1598.123</ele>
        <time>2015-07-03T04:30:44Z</time>
      </trkpt>
      <trkpt lat="42.07456" lon="9.15252">
        <ele>1596.198</ele>
        <time>2015-07-03T04:31:00Z</time>
      </trkpt>
      <trkpt lat="42.07446" lon="9.15259">
        <ele>1594.836</ele>
        <time>2015-07-03T04:31:17Z</time>
      </trkpt>
      <trkpt lat="42.07442" lon="9.15267">
        <ele>1591.703</ele>
        <time>2015-07-03T04:31:31Z</time>
      </trkpt>
      <trkpt lat="42.07433" lon="9.15274">
        <ele>1589.3</ele>
        <time>2015-07-03T04:31:44Z</time>
      </trkpt>
      <trkpt lat="42.07426" lon="9.15285">
        <ele>1586.727</ele>
        <time>2015-07-03T04:32:01Z</time>
      </trkpt>
      <trkpt lat="42.07425" lon="9.15288">
        <ele>1584.975</ele>
        <time>2015-07-03T04:32:06Z</time>
      </trkpt>
      <trkpt lat="42.07416" lon="9.15297">
        <ele>1583.124</ele>
        <time>2015-07-03T04:32:18Z</time>
      </trkpt>
      <trkpt lat="42.07401" lon="9.15304">
        <ele>1581.849</ele>
        <time>2015-07-03T04:32:34Z</time>
      </trkpt>
      <trkpt lat="42.07385" lon="9.15318">
        <ele>1580.913</ele>
        <time>2015-07-03T04:32:51Z</time>
      </trkpt>
      <trkpt lat="42.0737" lon="9.15329">
        <ele>1581.888</ele>
        <time>2015-07-03T04:33:08Z</time>
      </trkpt>
      <trkpt lat="42.07358" lon="9.15325">
        <ele>1581.829</ele>
        <time>2015-07-03T04:33:23Z</time>
      </trkpt>
      <trkpt lat="42.07355" lon="9.15317">
        <ele>1582.005</ele>
        <time>2015-07-03T04:33:35Z</time>
      </trkpt>
      <trkpt lat="42.07351" lon="9.15303">
        <ele>1582.229</ele>
        <time>2015-07-03T04:33:51Z</time>
      </trkpt>
      <trkpt lat="42.0735" lon="9.15299">
        <ele>1580.765</ele>
        <time>2015-07-03T04:34:04Z</time>
      </trkpt>
      <trkpt lat="42.07342" lon="9.15292">
        <ele>1579.63</ele>
        <time>2015-07-03T04:34:18Z</time>
      </trkpt>
      <trkpt lat="42.07337" lon="9.15283">
        <ele>1577.545</ele>
        <time>2015-07-03T04:34:32Z</time>
      </trkpt>
      <trkpt lat="42.07329" lon="9.15273">
        <ele>1576.466</ele>
        <time>2015-07-03T04:34:44Z</time>
      </trkpt>
      <trkpt lat="42.07319" lon="9.15259">
        <ele>1577.119</ele>
        <time>2015-07-03T04:35:00Z</time>
      </trkpt>
      <trkpt lat="42.07316" lon="9.15246">
        <ele>1576.318</ele>
        <time>2015-07-03T04:35:15Z</time>
      </trkpt>
      <trkpt lat="42.07315" lon="9.15244">
        <ele>1576.115</ele>
        <time>2015-07-03T04:35:17Z</time>
      </trkpt>
      <trkpt lat="42.07309" lon="9.1523">
        <ele>1574.459</ele>
        <time>2015-07-03T04:35:32Z</time>
      </trkpt>
      <trkpt lat="42.07308" lon="9.15223">
        <ele>1574.958</ele>
        <time>2015-07-03T04:35:47Z</time>
      </trkpt>
      <trkpt lat="42.07307" lon="9.15217">
        <ele>1573.684</ele>
        <time>2015-07-03T04:36:00Z</time>
      </trkpt>
      <trkpt lat="42.07303" lon="9.15205">
        <ele>1571.612</ele>
        <time>2015-07-03T04:36:13Z</time>
      </trkpt>
      <trkpt lat="42.073" lon="9.15197">
        <ele>1569.509</ele>
        <time>2015-07-03T04:36:22Z</time>
      </trkpt>
      <trkpt lat="42.07297" lon="9.15196">
        <ele>1569.117</ele>
        <time>2015-07-03T04:36:31Z</time>
      </trkpt>
      <trkpt lat="42.07288" lon="9.15185">
        <ele>1568.319</ele>
        <time>2015-07-03T04:36:48Z</time>
      </trkpt>
      <trkpt lat="42.07288" lon="9.15183">
        <ele>1569.666</ele>
        <time>2015-07-03T04:37:02Z</time>
      </trkpt>
      <trkpt lat="42.07288" lon="9.1518">
        <ele>1572.493</ele>
        <time>2015-07-03T04:37:15Z</time>
      </trkpt>
      <trkpt lat="42.07287" lon="9.15177">
        <ele>1573.508</ele>
        <time>2015-07-03T04:37:27Z</time>
      </trkpt>
      <trkpt lat="42.07288" lon="9.15173">
        <ele>1574.244</ele>
        <time>2015-07-03T04:37:39Z</time>
      </trkpt>
      <trkpt lat="42.07284" lon="9.15168">
        <ele>1573.326</ele>
        <time>2015-07-03T04:37:50Z</time>
      </trkpt>
      <trkpt lat="42.07284" lon="9.15165">
        <ele>1573.444</ele>
        <time>2015-07-03T04:38:15Z</time>
      </trkpt>
      <trkpt lat="42.07286" lon="9.15155">
        <ele>1572.779</ele>
        <time>2015-07-03T04:38:31Z</time>
      </trkpt>
      <trkpt lat="42.07285" lon="9.15147">
        <ele>1570.814</ele>
        <time>2015-07-03T04:38:45Z</time>
      </trkpt>
      <trkpt lat="42.07282" lon="9.15139">
        <ele>1567.403</ele>
        <time>2015-07-03T04:38:59Z</time>
      </trkpt>
      <trkpt lat="42.07276" lon="9.15132">
        <ele>1564.667</ele>
        <time>2015-07-03T04:39:13Z</time>
      </trkpt>
      <trkpt lat="42.07268" lon="9.15119">
        <ele>1562.384</ele>
        <time>2015-07-03T04:39:31Z</time>
      </trkpt>
      <trkpt lat="42.07261" lon="9.15113">
        <ele>1559.616</ele>
        <time>2015-07-03T04:39:47Z</time>
      </trkpt>
      <trkpt lat="42.07253" lon="9.15113">
        <ele>1557.473</ele>
        <time>2015-07-03T04:40:01Z</time>
      </trkpt>
      <trkpt lat="42.07244" lon="9.15108">
        <ele>1554.912</ele>
        <time>2015-07-03T04:40:16Z</time>
      </trkpt>
      <trkpt lat="42.07232" lon="9.15106">
        <ele>1553.058</ele>
        <time>2015-07-03T04:40:34Z</time>
      </trkpt>
      <trkpt lat="42.07219" lon="9.15099">
        <ele>1549.792</ele>
        <time>2015-07-03T04:40:51Z</time>
      </trkpt>
      <trkpt lat="42.07211" lon="9.15094">
        <ele>1549.441</ele>
        <time>2015-07-03T04:41:04Z</time>
      </trkpt>
      <trkpt lat="42.07201" lon="9.15082">
        <ele>1545.628</ele>
        <time>2015-07-03T04:41:22Z</time>
      </trkpt>
      <trkpt lat="42.07201" lon="9.15081">
        <ele>1545.386</ele>
        <time>2015-07-03T04:41:23Z</time>
      </trkpt>
      <trkpt lat="42.07196" lon="9.15085">
        <ele>1543.164</ele>
        <time>2015-07-03T04:41:35Z</time>
      </trkpt>
      <trkpt lat="42.07193" lon="9.15082">
        <ele>1543.48</ele>
        <time>2015-07-03T04:41:38Z</time>
      </trkpt>
      <trkpt lat="42.07184" lon="9.15064">
        <ele>1542.244</ele>
        <time>2015-07-03T04:41:55Z</time>
      </trkpt>
      <trkpt lat="42.07174" lon="9.15049">
        <ele>1541.634</ele>
        <time>2015-07-03T04:42:10Z</time>
      </trkpt>
      <trkpt lat="42.07168" lon="9.1505">
        <ele>1539.42</ele>
        <time>2015-07-03T04:42:24Z</time>
      </trkpt>
      <trkpt lat="42.07164" lon="9.15052">
        <ele>1536.302</ele>
        <time>2015-07-03T04:42:36Z</time>
      </trkpt>
      <trkpt lat="42.07157" lon="9.15053">
        <ele>1534.974</ele>
        <time>2015-07-03T04:42:48Z</time>
      </trkpt>
      <trkpt lat="42.07147" lon="9.15051">
        <ele>1532.886</ele>
        <time>2015-07-03T04:43:03Z</time>
      </trkpt>
      <trkpt lat="42.07141" lon="9.15052">
        <ele>1531.477</ele>
        <time>2015-07-03T04:43:15Z</time>
      </trkpt>
      <trkpt lat="42.07134" lon="9.15055">
        <ele>1529.448</ele>
        <time>2015-07-03T04:43:30Z</time>
      </trkpt>
      <trkpt lat="42.07126" lon="9.15056">
        <ele>1527.798</ele>
        <time>2015-07-03T04:43:43Z</time>
      </trkpt>
      <trkpt lat="42.0712" lon="9.1506">
        <ele>1526.448</ele>
        <time>2015-07-03T04:43:56Z</time>
      </trkpt>
      <trkpt lat="42.07116" lon="9.15073">
        <ele>1523.36</ele>
        <time>2015-07-03T04:44:11Z</time>
      </trkpt>
      <trkpt lat="42.07109" lon="9.15071">
        <ele>1522.533</ele>
        <time>2015-07-03T04:44:27Z</time>
      </trkpt>
      <trkpt lat="42.07109" lon="9.15079">
        <ele>1522.178</ele>
        <time>2015-07-03T04:44:48Z</time>
      </trkpt>
      <trkpt lat="42.07103" lon="9.15075">
        <ele>1521.511</ele>
        <time>2015-07-03T04:45:00Z</time>
      </trkpt>
      <trkpt lat="42.07099" lon="9.15076">
        <ele>1521.556</ele>
        <time>2015-07-03T04:45:06Z</time>
      </trkpt>
      <trkpt lat="42.07097" lon="9.15083">
        <ele>1520.804</ele>
        <time>2015-07-03T04:45:12Z</time>
      </trkpt>
      <trkpt lat="42.07098" lon="9.15096">
        <ele>1518.604</ele>
        <time>2015-07-03T04:45:25Z</time>
      </trkpt>
      <trkpt lat="42.0709" lon="9.15098">
        <ele>1516.329</ele>
        <time>2015-07-03T04:45:39Z</time>
      </trkpt>
      <trkpt lat="42.07089" lon="9.15109">
        <ele>1514.407</ele>
        <time>2015-07-03T04:45:51Z</time>
      </trkpt>
      <trkpt lat="42.07094" lon="9.1512">
        <ele>1512.493</ele>
        <time>2015-07-03T04:46:06Z</time>
      </trkpt>
      <trkpt lat="42.07095" lon="9.15123">
        <ele>1511.139</ele>
        <time>2015-07-03T04:46:09Z</time>
      </trkpt>
      <trkpt lat="42.07099" lon="9.15132">
        <ele>1509.013</ele>
        <time>2015-07-03T04:46:22Z</time>
      </trkpt>
      <trkpt lat="42.07108" lon="9.15137">
        <ele>1506.401</ele>
        <time>2015-07-03T04:46:38Z</time>
      </trkpt>
      <trkpt lat="42.07107" lon="9.15141">
        <ele>1503.373</ele>
        <time>2015-07-03T04:46:50Z</time>
      </trkpt>
      <trkpt lat="42.07099" lon="9.15149">
        <ele>1502.347</ele>
        <time>2015-07-03T04:47:07Z</time>
      </trkpt>
      <trkpt lat="42.07104" lon="9.15155">
        <ele>1499.284</ele>
        <time>2015-07-03T04:47:20Z</time>
      </trkpt>
      <trkpt lat="42.07109" lon="9.15169">
        <ele>1497.694</ele>
        <time>2015-07-03T04:47:35Z</time>
      </trkpt>
      <trkpt lat="42.0711" lon="9.15181">
        <ele>1495.373</ele>
        <time>2015-07-03T04:47:52Z</time>
      </trkpt>
      <trkpt lat="42.07109" lon="9.15189">
        <ele>1492.448</ele>
        <time>2015-07-03T04:48:06Z</time>
      </trkpt>
      <trkpt lat="42.07111" lon="9.15196">
        <ele>1491.198</ele>
        <time>2015-07-03T04:48:18Z</time>
      </trkpt>
      <trkpt lat="42.07114" lon="9.15202">
        <ele>1489.086</ele>
        <time>2015-07-03T04:48:26Z</time>
      </trkpt>
      <trkpt lat="42.0712" lon="9.15209">
        <ele>1487.437</ele>
        <time>2015-07-03T04:48:40Z</time>
      </trkpt>
      <trkpt lat="42.07127" lon="9.15218">
        <ele>1484.298</ele>
        <time>2015-07-03T04:48:54Z</time>
      </trkpt>
      <trkpt lat="42.07124" lon="9.15224">
        <ele>1481.596</ele>
        <time>2015-07-03T04:49:06Z</time>
      </trkpt>
      <trkpt lat="42.07121" lon="9.15224">
        <ele>1480.251</ele>
        <time>2015-07-03T04:49:11Z</time>
      </trkpt>
      <trkpt lat="42.07118" lon="9.15228">
        <ele>1479.6</ele>
        <time>2015-07-03T04:49:21Z</time>
      </trkpt>
      <trkpt lat="42.07121" lon="9.1524">
        <ele>1477.068</ele>
        <time>2015-07-03T04:49:37Z</time>
      </trkpt>
      <trkpt lat="42.07122" lon="9.15251">
        <ele>1475.244</ele>
        <time>2015-07-03T04:49:49Z</time>
      </trkpt>
      <trkpt lat="42.07127" lon="9.1526">
        <ele>1471.908</ele>
        <time>2015-07-03T04:50:01Z</time>
      </trkpt>
      <trkpt lat="42.07132" lon="9.15274">
        <ele>1470.425</ele>
        <time>2015-07-03T04:50:16Z</time>
      </trkpt>
      <trkpt lat="42.07132" lon="9.15283">
        <ele>1469.943</ele>
        <time>2015-07-03T04:50:22Z</time>
      </trkpt>
      <trkpt lat="42.07136" lon="9.15293">
        <ele>1467.493</ele>
        <time>2015-07-03T04:50:36Z</time>
      </trkpt>
      <trkpt lat="42.07141" lon="9.15305">
        <ele>1465.764</ele>
        <time>2015-07-03T04:50:49Z</time>
      </trkpt>
      <trkpt lat="42.07143" lon="9.15319">
        <ele>1464.28</ele>
        <time>2015-07-03T04:51:04Z</time>
      </trkpt>
      <trkpt lat="42.07147" lon="9.1533">
        <ele>1463.867</ele>
        <time>2015-07-03T04:51:18Z</time>
      </trkpt>
      <trkpt lat="42.07147" lon="9.1534">
        <ele>1461.242</ele>
        <time>2015-07-03T04:51:34Z</time>
      </trkpt>
      <trkpt lat="42.07147" lon="9.15351">
        <ele>1458.492</ele>
        <time>2015-07-03T04:51:49Z</time>
      </trkpt>
      <trkpt lat="42.07146" lon="9.15363">
        <ele>1456.021</ele>
        <time>2015-07-03T04:52:03Z</time>
      </trkpt>
      <trkpt lat="42.0715" lon="9.15379">
        <ele>1453.592</ele>
        <time>2015-07-03T04:52:18Z</time>
      </trkpt>
      <trkpt lat="42.07155" lon="9.15394">
        <ele>1452.27</ele>
        <time>2015-07-03T04:52:33Z</time>
      </trkpt>
      <trkpt lat="42.07157" lon="9.15413">
        <ele>1450.121</ele>
        <time>2015-07-03T04:52:49Z</time>
      </trkpt>
      <trkpt lat="42.07155" lon="9.15416">
        <ele>1446.946</ele>
        <time>2015-07-03T04:53:02Z</time>
      </trkpt>
      <trkpt lat="42.0715" lon="9.1542">
        <ele>1443.887</ele>
        <time>2015-07-03T04:53:13Z</time>
      </trkpt>
      <trkpt lat="42.07148" lon="9.15433">
        <ele>1442.906</ele>
        <time>2015-07-03T04:53:29Z</time>
      </trkpt>
      <trkpt lat="42.07145" lon="9.15445">
        <ele>1439.837</ele>
        <time>2015-07-03T04:53:42Z</time>
      </trkpt>
      <trkpt lat="42.07144" lon="9.15451">
        <ele>1438.431</ele>
        <time>2015-07-03T04:53:52Z</time>
      </trkpt>
      <trkpt lat="42.07143" lon="9.15463">
        <ele>1436.882</ele>
        <time>2015-07-03T04:54:04Z</time>
      </trkpt>
      <trkpt lat="42.07141" lon="9.15472">
        <ele>1434.79</ele>
        <time>2015-07-03T04:54:15Z</time>
      </trkpt>
      <trkpt lat="42.07144" lon="9.15486">
        <ele>1433.823</ele>
        <time>2015-07-03T04:54:27Z</time>
      </trkpt>
      <trkpt lat="42.07146" lon="9.15498">
        <ele>1430.768</ele>
        <time>2015-07-03T04:54:39Z</time>
      </trkpt>
      <trkpt lat="42.07148" lon="9.15509">
        <ele>1429.53</ele>
        <time>2015-07-03T04:54:50Z</time>
      </trkpt>
      <trkpt lat="42.0715" lon="9.15522">
        <ele>1427.348</ele>
        <time>2015-07-03T04:55:03Z</time>
      </trkpt>
      <trkpt lat="42.07152" lon="9.15533">
        <ele>1424.012</ele>
        <time>2015-07-03T04:55:16Z</time>
      </trkpt>
      <trkpt lat="42.07148" lon="9.15537">
        <ele>1422.268</ele>
        <time>2015-07-03T04:55:28Z</time>
      </trkpt>
      <trkpt lat="42.07148" lon="9.15554">
        <ele>1419.68</ele>
        <time>2015-07-03T04:55:45Z</time>
      </trkpt>
      <trkpt lat="42.0714" lon="9.15556">
        <ele>1417.261</ele>
        <time>2015-07-03T04:55:57Z</time>
      </trkpt>
      <trkpt lat="42.07136" lon="9.15571">
        <ele>1414.943</ele>
        <time>2015-07-03T04:56:12Z</time>
      </trkpt>
      <trkpt lat="42.07136" lon="9.15589">
        <ele>1413.394</ele>
        <time>2015-07-03T04:56:28Z</time>
      </trkpt>
      <trkpt lat="42.07138" lon="9.15602">
        <ele>1412.88</ele>
        <time>2015-07-03T04:56:42Z</time>
      </trkpt>
      <trkpt lat="42.07142" lon="9.15616">
        <ele>1410.563</ele>
        <time>2015-07-03T04:56:56Z</time>
      </trkpt>
      <trkpt lat="42.07149" lon="9.15636">
        <ele>1408.115</ele>
        <time>2015-07-03T04:57:09Z</time>
      </trkpt>
      <trkpt lat="42.0715" lon="9.15653">
        <ele>1406.108</ele>
        <time>2015-07-03T04:57:23Z</time>
      </trkpt>
      <trkpt lat="42.0715" lon="9.15657">
        <ele>1403.57</ele>
        <time>2015-07-03T04:57:35Z</time>
      </trkpt>
      <trkpt lat="42.07145" lon="9.15663">
        <ele>1400.771</ele>
        <time>2015-07-03T04:57:49Z</time>
      </trkpt>
      <trkpt lat="42.07147" lon="9.15677">
        <ele>1398.478</ele>
        <time>2015-07-03T04:58:04Z</time>
      </trkpt>
      <trkpt lat="42.07146" lon="9.15693">
        <ele>1396.428</ele>
        <time>2015-07-03T04:58:19Z</time>
      </trkpt>
      <trkpt lat="42.07149" lon="9.15711">
        <ele>1393.532</ele>
        <time>2015-07-03T04:58:33Z</time>
      </trkpt>
      <trkpt lat="42.07154" lon="9.15727">
        <ele>1392.899</ele>
        <time>2015-07-03T04:58:43Z</time>
      </trkpt>
      <trkpt lat="42.07155" lon="9.15737">
        <ele>1392.919</ele>
        <time>2015-07-03T04:58:56Z</time>
      </trkpt>
      <trkpt lat="42.07153" lon="9.15745">
        <ele>1389.767</ele>
        <time>2015-07-03T04:59:07Z</time>
      </trkpt>
      <trkpt lat="42.0715" lon="9.15758">
        <ele>1386.728</ele>
        <time>2015-07-03T04:59:19Z</time>
      </trkpt>
      <trkpt lat="42.07148" lon="9.15766">
        <ele>1383.438</ele>
        <time>2015-07-03T04:59:32Z</time>
      </trkpt>
      <trkpt lat="42.07143" lon="9.15775">
        <ele>1380.671</ele>
        <time>2015-07-03T04:59:46Z</time>
      </trkpt>
      <trkpt lat="42.07142" lon="9.15785">
        <ele>1377.869</ele>
        <time>2015-07-03T04:59:58Z</time>
      </trkpt>
      <trkpt lat="42.07141" lon="9.15795">
        <ele>1376.025</ele>
        <time>2015-07-03T05:00:11Z</time>
      </trkpt>
      <trkpt lat="42.07139" lon="9.15807">
        <ele>1372.694</ele>
        <time>2015-07-03T05:00:22Z</time>
      </trkpt>
      <trkpt lat="42.07142" lon="9.15815">
        <ele>1370.833</ele>
        <time>2015-07-03T05:00:36Z</time>
      </trkpt>
      <trkpt lat="42.07135" lon="9.1582">
        <ele>1368.022</ele>
        <time>2015-07-03T05:00:49Z</time>
      </trkpt>
      <trkpt lat="42.07132" lon="9.15825">
        <ele>1367.073</ele>
        <time>2015-07-03T05:00:58Z</time>
      </trkpt>
      <trkpt lat="42.07131" lon="9.15829">
        <ele>1364.651</ele>
        <time>2015-07-03T05:01:12Z</time>
      </trkpt>
      <trkpt lat="42.0713" lon="9.15837">
        <ele>1362.344</ele>
        <time>2015-07-03T05:01:26Z</time>
      </trkpt>
      <trkpt lat="42.07125" lon="9.15835">
        <ele>1360.072</ele>
        <time>2015-07-03T05:01:39Z</time>
      </trkpt>
      <trkpt lat="42.07124" lon="9.15844">
        <ele>1357.941</ele>
        <time>2015-07-03T05:01:50Z</time>
      </trkpt>
      <trkpt lat="42.07122" lon="9.15851">
        <ele>1356.06</ele>
        <time>2015-07-03T05:02:00Z</time>
      </trkpt>
      <trkpt lat="42.07117" lon="9.1586">
        <ele>1355.215</ele>
        <time>2015-07-03T05:02:15Z</time>
      </trkpt>
      <trkpt lat="42.07113" lon="9.15867">
        <ele>1355.333</ele>
        <time>2015-07-03T05:03:00Z</time>
      </trkpt>
      <trkpt lat="42.07099" lon="9.15871">
        <ele>1355.436</ele>
        <time>2015-07-03T05:03:17Z</time>
      </trkpt>
      <trkpt lat="42.07086" lon="9.15887">
        <ele>1354.378</ele>
        <time>2015-07-03T05:03:36Z</time>
      </trkpt>
      <trkpt lat="42.07067" lon="9.1592">
        <ele>1352.661</ele>
        <time>2015-07-03T05:04:04Z</time>
      </trkpt>
      <trkpt lat="42.07055" lon="9.15931">
        <ele>1352.574</ele>
        <time>2015-07-03T05:04:21Z</time>
      </trkpt>
      <trkpt lat="42.07042" lon="9.15947">
        <ele>1352.974</ele>
        <time>2015-07-03T05:04:38Z</time>
      </trkpt>
      <trkpt lat="42.07035" lon="9.15959">
        <ele>1352.887</ele>
        <time>2015-07-03T05:04:51Z</time>
      </trkpt>
      <trkpt lat="42.07026" lon="9.15976">
        <ele>1351.915</ele>
        <time>2015-07-03T05:05:06Z</time>
      </trkpt>
      <trkpt lat="42.07021" lon="9.15987">
        <ele>1352.142</ele>
        <time>2015-07-03T05:05:17Z</time>
      </trkpt>
      <trkpt lat="42.07016" lon="9.16001">
        <ele>1351.752</ele>
        <time>2015-07-03T05:05:27Z</time>
      </trkpt>
      <trkpt lat="42.07005" lon="9.16018">
        <ele>1349.958</ele>
        <time>2015-07-03T05:05:43Z</time>
      </trkpt>
      <trkpt lat="42.06999" lon="9.16026">
        <ele>1349.408</ele>
        <time>2015-07-03T05:05:52Z</time>
      </trkpt>
      <trkpt lat="42.06996" lon="9.1604">
        <ele>1348.79</ele>
        <time>2015-07-03T05:06:05Z</time>
      </trkpt>
      <trkpt lat="42.06996" lon="9.16041">
        <ele>1348.119</ele>
        <time>2015-07-03T05:06:06Z</time>
      </trkpt>
      <trkpt lat="42.06996" lon="9.16062">
        <ele>1348.449</ele>
        <time>2015-07-03T05:06:20Z</time>
      </trkpt>
      <trkpt lat="42.06994" lon="9.16064">
        <ele>1348.321</ele>
        <time>2015-07-03T05:06:22Z</time>
      </trkpt>
      <trkpt lat="42.06992" lon="9.16075">
        <ele>1346.87</ele>
        <time>2015-07-03T05:06:31Z</time>
      </trkpt>
      <trkpt lat="42.06986" lon="9.1609">
        <ele>1346.57</ele>
        <time>2015-07-03T05:06:46Z</time>
      </trkpt>
      <trkpt lat="42.06976" lon="9.16109">
        <ele>1346.42</ele>
        <time>2015-07-03T05:07:04Z</time>
      </trkpt>
      <trkpt lat="42.0697" lon="9.16127">
        <ele>1346.802</ele>
        <time>2015-07-03T05:07:20Z</time>
      </trkpt>
      <trkpt lat="42.0697" lon="9.1613">
        <ele>1346.218</ele>
        <time>2015-07-03T05:07:22Z</time>
      </trkpt>
      <trkpt lat="42.06958" lon="9.1615">
        <ele>1346.234</ele>
        <time>2015-07-03T05:07:40Z</time>
      </trkpt>
      <trkpt lat="42.06957" lon="9.16151">
        <ele>1345.948</ele>
        <time>2015-07-03T05:07:42Z</time>
      </trkpt>
      <trkpt lat="42.06947" lon="9.1617">
        <ele>1345.587</ele>
        <time>2015-07-03T05:07:58Z</time>
      </trkpt>
      <trkpt lat="42.06941" lon="9.16186">
        <ele>1345.575</ele>
        <time>2015-07-03T05:08:13Z</time>
      </trkpt>
      <trkpt lat="42.06929" lon="9.16203">
        <ele>1345.848</ele>
        <time>2015-07-03T05:08:27Z</time>
      </trkpt>
      <trkpt lat="42.06918" lon="9.16213">
        <ele>1345.043</ele>
        <time>2015-07-03T05:08:40Z</time>
      </trkpt>
      <trkpt lat="42.06909" lon="9.1621">
        <ele>1346.18</ele>
        <time>2015-07-03T05:08:56Z</time>
      </trkpt>
      <trkpt lat="42.069" lon="9.1621">
        <ele>1347.556</ele>
        <time>2015-07-03T05:09:10Z</time>
      </trkpt>
      <trkpt lat="42.06889" lon="9.16209">
        <ele>1348.625</ele>
        <time>2015-07-03T05:09:24Z</time>
      </trkpt>
      <trkpt lat="42.06881" lon="9.16209">
        <ele>1350.086</ele>
        <time>2015-07-03T05:09:37Z</time>
      </trkpt>
      <trkpt lat="42.06874" lon="9.16218">
        <ele>1351.648</ele>
        <time>2015-07-03T05:09:51Z</time>
      </trkpt>
      <trkpt lat="42.06868" lon="9.16227">
        <ele>1353.576</ele>
        <time>2015-07-03T05:10:06Z</time>
      </trkpt>
      <trkpt lat="42.06865" lon="9.16242">
        <ele>1355.025</ele>
        <time>2015-07-03T05:10:24Z</time>
      </trkpt>
      <trkpt lat="42.06866" lon="9.16261">
        <ele>1355.628</ele>
        <time>2015-07-03T05:10:41Z</time>
      </trkpt>
      <trkpt lat="42.06863" lon="9.16272">
        <ele>1356.451</ele>
        <time>2015-07-03T05:10:55Z</time>
      </trkpt>
      <trkpt lat="42.06862" lon="9.16284">
        <ele>1358.037</ele>
        <time>2015-07-03T05:11:11Z</time>
      </trkpt>
      <trkpt lat="42.06858" lon="9.16298">
        <ele>1359.033</ele>
        <time>2015-07-03T05:11:26Z</time>
      </trkpt>
      <trkpt lat="42.06854" lon="9.16307">
        <ele>1358.913</ele>
        <time>2015-07-03T05:11:37Z</time>
      </trkpt>
      <trkpt lat="42.06853" lon="9.1631">
        <ele>1358.581</ele>
        <time>2015-07-03T05:11:39Z</time>
      </trkpt>
      <trkpt lat="42.06835" lon="9.16331">
        <ele>1359.13</ele>
        <time>2015-07-03T05:12:02Z</time>
      </trkpt>
      <trkpt lat="42.06822" lon="9.16343">
        <ele>1358.627</ele>
        <time>2015-07-03T05:12:19Z</time>
      </trkpt>
      <trkpt lat="42.06808" lon="9.1635">
        <ele>1359.268</ele>
        <time>2015-07-03T05:12:35Z</time>
      </trkpt>
      <trkpt lat="42.06795" lon="9.16361">
        <ele>1359.08</ele>
        <time>2015-07-03T05:12:50Z</time>
      </trkpt>
      <trkpt lat="42.06788" lon="9.16374">
        <ele>1358.669</ele>
        <time>2015-07-03T05:13:03Z</time>
      </trkpt>
      <trkpt lat="42.06775" lon="9.16393">
        <ele>1357.708</ele>
        <time>2015-07-03T05:13:22Z</time>
      </trkpt>
      <trkpt lat="42.06768" lon="9.164">
        <ele>1356.814</ele>
        <time>2015-07-03T05:13:32Z</time>
      </trkpt>
      <trkpt lat="42.06762" lon="9.1641">
        <ele>1355.138</ele>
        <time>2015-07-03T05:13:47Z</time>
      </trkpt>
      <trkpt lat="42.06756" lon="9.1642">
        <ele>1353.875</ele>
        <time>2015-07-03T05:14:00Z</time>
      </trkpt>
      <trkpt lat="42.06756" lon="9.16421">
        <ele>1354.419</ele>
        <time>2015-07-03T05:14:01Z</time>
      </trkpt>
      <trkpt lat="42.06749" lon="9.16435">
        <ele>1352.315</ele>
        <time>2015-07-03T05:14:15Z</time>
      </trkpt>
      <trkpt lat="42.06749" lon="9.16441">
        <ele>1351.285</ele>
        <time>2015-07-03T05:14:19Z</time>
      </trkpt>
      <trkpt lat="42.06745" lon="9.16463">
        <ele>1350.465</ele>
        <time>2015-07-03T05:14:36Z</time>
      </trkpt>
      <trkpt lat="42.06749" lon="9.16479">
        <ele>1349.797</ele>
        <time>2015-07-03T05:14:52Z</time>
      </trkpt>
      <trkpt lat="42.06754" lon="9.16493">
        <ele>1349.523</ele>
        <time>2015-07-03T05:15:03Z</time>
      </trkpt>
      <trkpt lat="42.06758" lon="9.16506">
        <ele>1348.973</ele>
        <time>2015-07-03T05:15:15Z</time>
      </trkpt>
      <trkpt lat="42.06758" lon="9.16516">
        <ele>1348.65</ele>
        <time>2015-07-03T05:15:22Z</time>
      </trkpt>
      <trkpt lat="42.06757" lon="9.1654">
        <ele>1348.941</ele>
        <time>2015-07-03T05:15:39Z</time>
      </trkpt>
      <trkpt lat="42.06754" lon="9.16555">
        <ele>1350.344</ele>
        <time>2015-07-03T05:15:55Z</time>
      </trkpt>
      <trkpt lat="42.0675" lon="9.16566">
        <ele>1354.024</ele>
        <time>2015-07-03T05:16:11Z</time>
      </trkpt>
      <trkpt lat="42.06746" lon="9.16571">
        <ele>1354.19</ele>
        <time>2015-07-03T05:16:24Z</time>
      </trkpt>
      <trkpt lat="42.06739" lon="9.16581">
        <ele>1356.191</ele>
        <time>2015-07-03T05:16:41Z</time>
      </trkpt>
      <trkpt lat="42.06733" lon="9.16585">
        <ele>1357.691</ele>
        <time>2015-07-03T05:16:54Z</time>
      </trkpt>
      <trkpt lat="42.06724" lon="9.16596">
        <ele>1358.097</ele>
        <time>2015-07-03T05:17:08Z</time>
      </trkpt>
      <trkpt lat="42.06719" lon="9.16619">
        <ele>1356.214</ele>
        <time>2015-07-03T05:17:26Z</time>
      </trkpt>
      <trkpt lat="42.06714" lon="9.16633">
        <ele>1354.855</ele>
        <time>2015-07-03T05:17:39Z</time>
      </trkpt>
      <trkpt lat="42.06713" lon="9.16634">
        <ele>1354.312</ele>
        <time>2015-07-03T05:17:40Z</time>
      </trkpt>
      <trkpt lat="42.06706" lon="9.16657">
        <ele>1353</ele>
        <time>2015-07-03T05:17:56Z</time>
      </trkpt>
      <trkpt lat="42.06696" lon="9.16671">
        <ele>1351.003</ele>
        <time>2015-07-03T05:18:11Z</time>
      </trkpt>
      <trkpt lat="42.06685" lon="9.16684">
        <ele>1350.357</ele>
        <time>2015-07-03T05:18:28Z</time>
      </trkpt>
      <trkpt lat="42.06674" lon="9.16692">
        <ele>1347.272</ele>
        <time>2015-07-03T05:18:40Z</time>
      </trkpt>
      <trkpt lat="42.0666" lon="9.16694">
        <ele>1346.243</ele>
        <time>2015-07-03T05:18:57Z</time>
      </trkpt>
      <trkpt lat="42.06651" lon="9.16691">
        <ele>1345.395</ele>
        <time>2015-07-03T05:19:07Z</time>
      </trkpt>
      <trkpt lat="42.06637" lon="9.16686">
        <ele>1344.22</ele>
        <time>2015-07-03T05:19:22Z</time>
      </trkpt>
      <trkpt lat="42.06624" lon="9.16684">
        <ele>1342.947</ele>
        <time>2015-07-03T05:19:37Z</time>
      </trkpt>
      <trkpt lat="42.06611" lon="9.16684">
        <ele>1343.48</ele>
        <time>2015-07-03T05:19:52Z</time>
      </trkpt>
      <trkpt lat="42.06596" lon="9.16691">
        <ele>1344.353</ele>
        <time>2015-07-03T05:20:08Z</time>
      </trkpt>
      <trkpt lat="42.06587" lon="9.16698">
        <ele>1343.641</ele>
        <time>2015-07-03T05:20:19Z</time>
      </trkpt>
      <trkpt lat="42.0657" lon="9.16709">
        <ele>1344.013</ele>
        <time>2015-07-03T05:20:36Z</time>
      </trkpt>
      <trkpt lat="42.0655" lon="9.16713">
        <ele>1344.487</ele>
        <time>2015-07-03T05:20:53Z</time>
      </trkpt>
      <trkpt lat="42.06542" lon="9.16714">
        <ele>1342.848</ele>
        <time>2015-07-03T05:21:06Z</time>
      </trkpt>
      <trkpt lat="42.0654" lon="9.16712">
        <ele>1342.166</ele>
        <time>2015-07-03T05:21:09Z</time>
      </trkpt>
      <trkpt lat="42.06526" lon="9.16707">
        <ele>1341.945</ele>
        <time>2015-07-03T05:21:24Z</time>
      </trkpt>
      <trkpt lat="42.0651" lon="9.16698">
        <ele>1340.811</ele>
        <time>2015-07-03T05:21:39Z</time>
      </trkpt>
      <trkpt lat="42.06496" lon="9.16696">
        <ele>1340.158</ele>
        <time>2015-07-03T05:21:53Z</time>
      </trkpt>
      <trkpt lat="42.06486" lon="9.16695">
        <ele>1340.001</ele>
        <time>2015-07-03T05:22:05Z</time>
      </trkpt>
      <trkpt lat="42.06476" lon="9.16693">
        <ele>1340.49</ele>
        <time>2015-07-03T05:22:17Z</time>
      </trkpt>
      <trkpt lat="42.06459" lon="9.1669">
        <ele>1341.875</ele>
        <time>2015-07-03T05:22:32Z</time>
      </trkpt>
      <trkpt lat="42.06444" lon="9.16679">
        <ele>1341.729</ele>
        <time>2015-07-03T05:22:49Z</time>
      </trkpt>
      <trkpt lat="42.06429" lon="9.16678">
        <ele>1343.606</ele>
        <time>2015-07-03T05:23:05Z</time>
      </trkpt>
      <trkpt lat="42.06419" lon="9.16682">
        <ele>1345.339</ele>
        <time>2015-07-03T05:23:18Z</time>
      </trkpt>
      <trkpt lat="42.06403" lon="9.16684">
        <ele>1345.029</ele>
        <time>2015-07-03T05:23:33Z</time>
      </trkpt>
      <trkpt lat="42.064" lon="9.16683">
        <ele>1345.093</ele>
        <time>2015-07-03T05:23:37Z</time>
      </trkpt>
      <trkpt lat="42.06389" lon="9.16675">
        <ele>1346.106</ele>
        <time>2015-07-03T05:23:54Z</time>
      </trkpt>
      <trkpt lat="42.06387" lon="9.16673">
        <ele>1347.156</ele>
        <time>2015-07-03T05:24:07Z</time>
      </trkpt>
      <trkpt lat="42.06388" lon="9.16671">
        <ele>1349.2</ele>
        <time>2015-07-03T05:24:23Z</time>
      </trkpt>
      <trkpt lat="42.06386" lon="9.16671">
        <ele>1349.884</ele>
        <time>2015-07-03T05:24:37Z</time>
      </trkpt>
      <trkpt lat="42.06383" lon="9.16669">
        <ele>1350.507</ele>
        <time>2015-07-03T05:24:48Z</time>
      </trkpt>
      <trkpt lat="42.06378" lon="9.16665">
        <ele>1351.368</ele>
        <time>2015-07-03T05:25:00Z</time>
      </trkpt>
      <trkpt lat="42.0637" lon="9.16659">
        <ele>1351.371</ele>
        <time>2015-07-03T05:25:15Z</time>
      </trkpt>
      <trkpt lat="42.06359" lon="9.16659">
        <ele>1351.201</ele>
        <time>2015-07-03T05:25:29Z</time>
      </trkpt>
      <trkpt lat="42.06349" lon="9.16664">
        <ele>1351.062</ele>
        <time>2015-07-03T05:25:44Z</time>
      </trkpt>
      <trkpt lat="42.06337" lon="9.16668">
        <ele>1352.576</ele>
        <time>2015-07-03T05:26:00Z</time>
      </trkpt>
      <trkpt lat="42.06327" lon="9.16669">
        <ele>1355.042</ele>
        <time>2015-07-03T05:26:14Z</time>
      </trkpt>
      <trkpt lat="42.06323" lon="9.16669">
        <ele>1356.819</ele>
        <time>2015-07-03T05:26:30Z</time>
      </trkpt>
      <trkpt lat="42.06306" lon="9.16668">
        <ele>1357.256</ele>
        <time>2015-07-03T05:26:43Z</time>
      </trkpt>
      <trkpt lat="42.06298" lon="9.1667">
        <ele>1358.094</ele>
        <time>2015-07-03T05:26:55Z</time>
      </trkpt>
      <trkpt lat="42.06289" lon="9.1667">
        <ele>1358.628</ele>
        <time>2015-07-03T05:27:07Z</time>
      </trkpt>
      <trkpt lat="42.06288" lon="9.16667">
        <ele>1358.86</ele>
        <time>2015-07-03T05:27:19Z</time>
      </trkpt>
      <trkpt lat="42.06282" lon="9.1667">
        <ele>1360.405</ele>
        <time>2015-07-03T05:27:33Z</time>
      </trkpt>
      <trkpt lat="42.06273" lon="9.16682">
        <ele>1360.327</ele>
        <time>2015-07-03T05:27:48Z</time>
      </trkpt>
      <trkpt lat="42.06264" lon="9.16691">
        <ele>1360.804</ele>
        <time>2015-07-03T05:28:06Z</time>
      </trkpt>
      <trkpt lat="42.06255" lon="9.16699">
        <ele>1360.987</ele>
        <time>2015-07-03T05:28:22Z</time>
      </trkpt>
      <trkpt lat="42.06244" lon="9.1671">
        <ele>1359.965</ele>
        <time>2015-07-03T05:28:36Z</time>
      </trkpt>
      <trkpt lat="42.06237" lon="9.16715">
        <ele>1361.542</ele>
        <time>2015-07-03T05:28:45Z</time>
      </trkpt>
      <trkpt lat="42.06231" lon="9.16727">
        <ele>1362.951</ele>
        <time>2015-07-03T05:29:01Z</time>
      </trkpt>
      <trkpt lat="42.0622" lon="9.16738">
        <ele>1363.348</ele>
        <time>2015-07-03T05:29:12Z</time>
      </trkpt>
      <trkpt lat="42.06211" lon="9.16755">
        <ele>1363.882</ele>
        <time>2015-07-03T05:29:29Z</time>
      </trkpt>
      <trkpt lat="42.06204" lon="9.16757">
        <ele>1364.296</ele>
        <time>2015-07-03T05:29:40Z</time>
      </trkpt>
      <trkpt lat="42.06185" lon="9.1675">
        <ele>1365.535</ele>
        <time>2015-07-03T05:29:59Z</time>
      </trkpt>
      <trkpt lat="42.06178" lon="9.16747">
        <ele>1366.034</ele>
        <time>2015-07-03T05:30:14Z</time>
      </trkpt>
      <trkpt lat="42.06168" lon="9.16744">
        <ele>1367.592</ele>
        <time>2015-07-03T05:30:30Z</time>
      </trkpt>
      <trkpt lat="42.06159" lon="9.16738">
        <ele>1369.874</ele>
        <time>2015-07-03T05:30:47Z</time>
      </trkpt>
      <trkpt lat="42.06147" lon="9.16731">
        <ele>1371.083</ele>
        <time>2015-07-03T05:31:02Z</time>
      </trkpt>
      <trkpt lat="42.06136" lon="9.16718">
        <ele>1372.693</ele>
        <time>2015-07-03T05:31:18Z</time>
      </trkpt>
      <trkpt lat="42.06128" lon="9.16707">
        <ele>1373.605</ele>
        <time>2015-07-03T05:31:30Z</time>
      </trkpt>
      <trkpt lat="42.06115" lon="9.16694">
        <ele>1374.333</ele>
        <time>2015-07-03T05:31:45Z</time>
      </trkpt>
      <trkpt lat="42.06106" lon="9.16686">
        <ele>1375.197</ele>
        <time>2015-07-03T05:31:59Z</time>
      </trkpt>
      <trkpt lat="42.061" lon="9.16691">
        <ele>1374.682</ele>
        <time>2015-07-03T05:32:12Z</time>
      </trkpt>
      <trkpt lat="42.0609" lon="9.16706">
        <ele>1374.238</ele>
        <time>2015-07-03T05:32:28Z</time>
      </trkpt>
      <trkpt lat="42.06081" lon="9.1672">
        <ele>1372.141</ele>
        <time>2015-07-03T05:32:43Z</time>
      </trkpt>
      <trkpt lat="42.06071" lon="9.16726">
        <ele>1370.79</ele>
        <time>2015-07-03T05:32:54Z</time>
      </trkpt>
      <trkpt lat="42.06059" lon="9.16725">
        <ele>1369.995</ele>
        <time>2015-07-03T05:33:06Z</time>
      </trkpt>
      <trkpt lat="42.06054" lon="9.16718">
        <ele>1369.997</ele>
        <time>2015-07-03T05:33:15Z</time>
      </trkpt>
      <trkpt lat="42.06052" lon="9.16717">
        <ele>1369.945</ele>
        <time>2015-07-03T05:33:17Z</time>
      </trkpt>
      <trkpt lat="42.06036" lon="9.16713">
        <ele>1371.388</ele>
        <time>2015-07-03T05:33:34Z</time>
      </trkpt>
      <trkpt lat="42.06028" lon="9.16717">
        <ele>1372.608</ele>
        <time>2015-07-03T05:33:47Z</time>
      </trkpt>
      <trkpt lat="42.06022" lon="9.16734">
        <ele>1374.23</ele>
        <time>2015-07-03T05:34:02Z</time>
      </trkpt>
      <trkpt lat="42.06017" lon="9.16747">
        <ele>1376.64</ele>
        <time>2015-07-03T05:34:18Z</time>
      </trkpt>
      <trkpt lat="42.06012" lon="9.16758">
        <ele>1376.678</ele>
        <time>2015-07-03T05:34:29Z</time>
      </trkpt>
      <trkpt lat="42.06012" lon="9.16772">
        <ele>1378.464</ele>
        <time>2015-07-03T05:34:45Z</time>
      </trkpt>
      <trkpt lat="42.06006" lon="9.16788">
        <ele>1379.765</ele>
        <time>2015-07-03T05:35:00Z</time>
      </trkpt>
      <trkpt lat="42.06" lon="9.16799">
        <ele>1380.927</ele>
        <time>2015-07-03T05:35:14Z</time>
      </trkpt>
      <trkpt lat="42.05994" lon="9.16812">
        <ele>1381.41</ele>
        <time>2015-07-03T05:35:28Z</time>
      </trkpt>
      <trkpt lat="42.05988" lon="9.16828">
        <ele>1382.769</ele>
        <time>2015-07-03T05:35:43Z</time>
      </trkpt>
      <trkpt lat="42.05978" lon="9.16843">
        <ele>1383.924</ele>
        <time>2015-07-03T05:35:59Z</time>
      </trkpt>
      <trkpt lat="42.05975" lon="9.16848">
        <ele>1384.283</ele>
        <time>2015-07-03T05:36:21Z</time>
      </trkpt>
      <trkpt lat="42.05982" lon="9.16847">
        <ele>1384.51</ele>
        <time>2015-07-03T05:36:40Z</time>
      </trkpt>
      <trkpt lat="42.05975" lon="9.16848">
        <ele>1384.021</ele>
        <time>2015-07-03T05:37:02Z</time>
      </trkpt>
      <trkpt lat="42.05973" lon="9.16844">
        <ele>1383.795</ele>
        <time>2015-07-03T05:37:15Z</time>
      </trkpt>
      <trkpt lat="42.05968" lon="9.16834">
        <ele>1384.536</ele>
        <time>2015-07-03T05:37:29Z</time>
      </trkpt>
      <trkpt lat="42.05965" lon="9.16828">
        <ele>1386.191</ele>
        <time>2015-07-03T05:37:43Z</time>
      </trkpt>
      <trkpt lat="42.05966" lon="9.16814">
        <ele>1386.485</ele>
        <time>2015-07-03T05:37:55Z</time>
      </trkpt>
      <trkpt lat="42.05964" lon="9.16803">
        <ele>1387.67</ele>
        <time>2015-07-03T05:38:09Z</time>
      </trkpt>
      <trkpt lat="42.05966" lon="9.16806">
        <ele>1388.412</ele>
        <time>2015-07-03T05:38:24Z</time>
      </trkpt>
      <trkpt lat="42.05968" lon="9.16811">
        <ele>1388.461</ele>
        <time>2015-07-03T05:38:35Z</time>
      </trkpt>
      <trkpt lat="42.05969" lon="9.16812">
        <ele>1388.996</ele>
        <time>2015-07-03T05:38:53Z</time>
      </trkpt>
      <trkpt lat="42.05971" lon="9.16803">
        <ele>1388.799</ele>
        <time>2015-07-03T05:39:06Z</time>
      </trkpt>
      <trkpt lat="42.05963" lon="9.16794">
        <ele>1388.672</ele>
        <time>2015-07-03T05:39:19Z</time>
      </trkpt>
      <trkpt lat="42.05961" lon="9.16782">
        <ele>1391.346</ele>
        <time>2015-07-03T05:39:33Z</time>
      </trkpt>
      <trkpt lat="42.0596" lon="9.16775">
        <ele>1393.558</ele>
        <time>2015-07-03T05:39:47Z</time>
      </trkpt>
      <trkpt lat="42.05953" lon="9.16762">
        <ele>1395.369</ele>
        <time>2015-07-03T05:40:04Z</time>
      </trkpt>
      <trkpt lat="42.05947" lon="9.1675">
        <ele>1395.895</ele>
        <time>2015-07-03T05:40:19Z</time>
      </trkpt>
      <trkpt lat="42.05943" lon="9.16741">
        <ele>1397.913</ele>
        <time>2015-07-03T05:40:49Z</time>
      </trkpt>
      <trkpt lat="42.05945" lon="9.1673">
        <ele>1400.895</ele>
        <time>2015-07-03T05:41:00Z</time>
      </trkpt>
      <trkpt lat="42.05944" lon="9.1671">
        <ele>1402.245</ele>
        <time>2015-07-03T05:41:17Z</time>
      </trkpt>
      <trkpt lat="42.05941" lon="9.167">
        <ele>1403.883</ele>
        <time>2015-07-03T05:41:29Z</time>
      </trkpt>
      <trkpt lat="42.05939" lon="9.16694">
        <ele>1405.24</ele>
        <time>2015-07-03T05:41:36Z</time>
      </trkpt>
      <trkpt lat="42.0593" lon="9.16684">
        <ele>1405.731</ele>
        <time>2015-07-03T05:41:51Z</time>
      </trkpt>
      <trkpt lat="42.05925" lon="9.16677">
        <ele>1406.742</ele>
        <time>2015-07-03T05:42:01Z</time>
      </trkpt>
      <trkpt lat="42.05923" lon="9.16672">
        <ele>1407.175</ele>
        <time>2015-07-03T05:42:12Z</time>
      </trkpt>
      <trkpt lat="42.0591" lon="9.16655">
        <ele>1408.462</ele>
        <time>2015-07-03T05:42:30Z</time>
      </trkpt>
      <trkpt lat="42.05901" lon="9.16644">
        <ele>1409.769</ele>
        <time>2015-07-03T05:42:45Z</time>
      </trkpt>
      <trkpt lat="42.05901" lon="9.16635">
        <ele>1410.312</ele>
        <time>2015-07-03T05:42:59Z</time>
      </trkpt>
      <trkpt lat="42.05897" lon="9.16621">
        <ele>1411.935</ele>
        <time>2015-07-03T05:43:17Z</time>
      </trkpt>
      <trkpt lat="42.0589" lon="9.16613">
        <ele>1412.051</ele>
        <time>2015-07-03T05:43:29Z</time>
      </trkpt>
      <trkpt lat="42.05882" lon="9.16604">
        <ele>1415.236</ele>
        <time>2015-07-03T05:43:43Z</time>
      </trkpt>
      <trkpt lat="42.05882" lon="9.16603">
        <ele>1415.47</ele>
        <time>2015-07-03T05:43:44Z</time>
      </trkpt>
      <trkpt lat="42.05876" lon="9.16595">
        <ele>1416.298</ele>
        <time>2015-07-03T05:43:58Z</time>
      </trkpt>
      <trkpt lat="42.05876" lon="9.16589">
        <ele>1418.751</ele>
        <time>2015-07-03T05:44:12Z</time>
      </trkpt>
      <trkpt lat="42.05872" lon="9.16579">
        <ele>1419.864</ele>
        <time>2015-07-03T05:44:27Z</time>
      </trkpt>
      <trkpt lat="42.05865" lon="9.16568">
        <ele>1420.858</ele>
        <time>2015-07-03T05:44:39Z</time>
      </trkpt>
      <trkpt lat="42.05856" lon="9.16558">
        <ele>1424.068</ele>
        <time>2015-07-03T05:44:54Z</time>
      </trkpt>
      <trkpt lat="42.05853" lon="9.16546">
        <ele>1425.192</ele>
        <time>2015-07-03T05:45:06Z</time>
      </trkpt>
      <trkpt lat="42.05847" lon="9.16527">
        <ele>1426.014</ele>
        <time>2015-07-03T05:45:22Z</time>
      </trkpt>
      <trkpt lat="42.05849" lon="9.16513">
        <ele>1426.652</ele>
        <time>2015-07-03T05:45:36Z</time>
      </trkpt>
      <trkpt lat="42.05841" lon="9.165">
        <ele>1428.086</ele>
        <time>2015-07-03T05:45:52Z</time>
      </trkpt>
      <trkpt lat="42.05838" lon="9.1649">
        <ele>1427.326</ele>
        <time>2015-07-03T05:46:09Z</time>
      </trkpt>
      <trkpt lat="42.05828" lon="9.16486">
        <ele>1428.191</ele>
        <time>2015-07-03T05:46:19Z</time>
      </trkpt>
      <trkpt lat="42.05822" lon="9.16479">
        <ele>1428.896</ele>
        <time>2015-07-03T05:46:33Z</time>
      </trkpt>
      <trkpt lat="42.05817" lon="9.16468">
        <ele>1431.006</ele>
        <time>2015-07-03T05:46:50Z</time>
      </trkpt>
      <trkpt lat="42.05812" lon="9.16459">
        <ele>1432.457</ele>
        <time>2015-07-03T05:47:03Z</time>
      </trkpt>
      <trkpt lat="42.05814" lon="9.16443">
        <ele>1433.684</ele>
        <time>2015-07-03T05:47:20Z</time>
      </trkpt>
      <trkpt lat="42.05802" lon="9.16429">
        <ele>1435.47</ele>
        <time>2015-07-03T05:47:37Z</time>
      </trkpt>
      <trkpt lat="42.05796" lon="9.16416">
        <ele>1436.952</ele>
        <time>2015-07-03T05:47:52Z</time>
      </trkpt>
      <trkpt lat="42.05791" lon="9.16402">
        <ele>1438.952</ele>
        <time>2015-07-03T05:48:05Z</time>
      </trkpt>
      <trkpt lat="42.05792" lon="9.16391">
        <ele>1440.278</ele>
        <time>2015-07-03T05:48:18Z</time>
      </trkpt>
      <trkpt lat="42.05789" lon="9.16378">
        <ele>1440.625</ele>
        <time>2015-07-03T05:48:31Z</time>
      </trkpt>
      <trkpt lat="42.05785" lon="9.16366">
        <ele>1441.182</ele>
        <time>2015-07-03T05:48:46Z</time>
      </trkpt>
      <trkpt lat="42.05786" lon="9.1635">
        <ele>1443.278</ele>
        <time>2015-07-03T05:48:59Z</time>
      </trkpt>
      <trkpt lat="42.05773" lon="9.16336">
        <ele>1444.46</ele>
        <time>2015-07-03T05:49:14Z</time>
      </trkpt>
      <trkpt lat="42.05761" lon="9.16329">
        <ele>1445.202</ele>
        <time>2015-07-03T05:49:30Z</time>
      </trkpt>
      <trkpt lat="42.05755" lon="9.16327">
        <ele>1446.119</ele>
        <time>2015-07-03T05:49:45Z</time>
      </trkpt>
      <trkpt lat="42.05751" lon="9.16319">
        <ele>1447.28</ele>
        <time>2015-07-03T05:49:58Z</time>
      </trkpt>
      <trkpt lat="42.0575" lon="9.16308">
        <ele>1449.049</ele>
        <time>2015-07-03T05:50:16Z</time>
      </trkpt>
      <trkpt lat="42.05739" lon="9.16298">
        <ele>1451.029</ele>
        <time>2015-07-03T05:50:33Z</time>
      </trkpt>
      <trkpt lat="42.05732" lon="9.16289">
        <ele>1452.077</ele>
        <time>2015-07-03T05:50:48Z</time>
      </trkpt>
      <trkpt lat="42.05727" lon="9.16278">
        <ele>1454.361</ele>
        <time>2015-07-03T05:51:04Z</time>
      </trkpt>
      <trkpt lat="42.05722" lon="9.16267">
        <ele>1455.192</ele>
        <time>2015-07-03T05:51:18Z</time>
      </trkpt>
      <trkpt lat="42.05719" lon="9.16254">
        <ele>1456.334</ele>
        <time>2015-07-03T05:51:36Z</time>
      </trkpt>
      <trkpt lat="42.05712" lon="9.16237">
        <ele>1457.372</ele>
        <time>2015-07-03T05:51:54Z</time>
      </trkpt>
      <trkpt lat="42.05709" lon="9.1622">
        <ele>1457.414</ele>
        <time>2015-07-03T05:52:12Z</time>
      </trkpt>
      <trkpt lat="42.05701" lon="9.16216">
        <ele>1457.872</ele>
        <time>2015-07-03T05:52:29Z</time>
      </trkpt>
      <trkpt lat="42.05693" lon="9.1621">
        <ele>1458.883</ele>
        <time>2015-07-03T05:52:44Z</time>
      </trkpt>
      <trkpt lat="42.05686" lon="9.16198">
        <ele>1459.717</ele>
        <time>2015-07-03T05:53:00Z</time>
      </trkpt>
      <trkpt lat="42.05681" lon="9.16186">
        <ele>1460.256</ele>
        <time>2015-07-03T05:53:15Z</time>
      </trkpt>
      <trkpt lat="42.05677" lon="9.16172">
        <ele>1462.206</ele>
        <time>2015-07-03T05:53:32Z</time>
      </trkpt>
      <trkpt lat="42.05676" lon="9.16162">
        <ele>1462.83</ele>
        <time>2015-07-03T05:53:44Z</time>
      </trkpt>
      <trkpt lat="42.05671" lon="9.16154">
        <ele>1463.281</ele>
        <time>2015-07-03T05:53:57Z</time>
      </trkpt>
      <trkpt lat="42.05664" lon="9.16151">
        <ele>1463.902</ele>
        <time>2015-07-03T05:54:07Z</time>
      </trkpt>
      <trkpt lat="42.05658" lon="9.16142">
        <ele>1463.204</ele>
        <time>2015-07-03T05:54:20Z</time>
      </trkpt>
      <trkpt lat="42.0565" lon="9.16134">
        <ele>1462.121</ele>
        <time>2015-07-03T05:54:35Z</time>
      </trkpt>
      <trkpt lat="42.05644" lon="9.16129">
        <ele>1460.848</ele>
        <time>2015-07-03T05:54:50Z</time>
      </trkpt>
      <trkpt lat="42.05643" lon="9.16127">
        <ele>1460.465</ele>
        <time>2015-07-03T05:55:06Z</time>
      </trkpt>
      <trkpt lat="42.05642" lon="9.16133">
        <ele>1461.199</ele>
        <time>2015-07-03T05:55:28Z</time>
      </trkpt>
      <trkpt lat="42.0564" lon="9.16136">
        <ele>1461.237</ele>
        <time>2015-07-03T05:55:38Z</time>
      </trkpt>
      <trkpt lat="42.05633" lon="9.16142">
        <ele>1462.581</ele>
        <time>2015-07-03T05:55:53Z</time>
      </trkpt>
      <trkpt lat="42.05629" lon="9.16148">
        <ele>1462.581</ele>
        <time>2015-07-03T05:56:00Z</time>
      </trkpt>
      <trkpt lat="42.05627" lon="9.16152">
        <ele>1462.612</ele>
        <time>2015-07-03T05:56:05Z</time>
      </trkpt>
      <trkpt lat="42.05617" lon="9.16155">
        <ele>1461.927</ele>
        <time>2015-07-03T05:56:21Z</time>
      </trkpt>
      <trkpt lat="42.05606" lon="9.16161">
        <ele>1461.481</ele>
        <time>2015-07-03T05:56:36Z</time>
      </trkpt>
      <trkpt lat="42.05599" lon="9.16163">
        <ele>1460.155</ele>
        <time>2015-07-03T05:56:48Z</time>
      </trkpt>
      <trkpt lat="42.05593" lon="9.16168">
        <ele>1459.829</ele>
        <time>2015-07-03T05:57:01Z</time>
      </trkpt>
      <trkpt lat="42.05592" lon="9.16179">
        <ele>1460.214</ele>
        <time>2015-07-03T05:57:16Z</time>
      </trkpt>
      <trkpt lat="42.0559" lon="9.16192">
        <ele>1459.22</ele>
        <time>2015-07-03T05:57:30Z</time>
      </trkpt>
      <trkpt lat="42.0559" lon="9.16203">
        <ele>1460.856</ele>
        <time>2015-07-03T05:57:44Z</time>
      </trkpt>
      <trkpt lat="42.05585" lon="9.16213">
        <ele>1461.906</ele>
        <time>2015-07-03T05:57:58Z</time>
      </trkpt>
      <trkpt lat="42.05582" lon="9.16229">
        <ele>1462.71</ele>
        <time>2015-07-03T05:58:12Z</time>
      </trkpt>
      <trkpt lat="42.05576" lon="9.16243">
        <ele>1463.433</ele>
        <time>2015-07-03T05:58:26Z</time>
      </trkpt>
      <trkpt lat="42.05576" lon="9.16257">
        <ele>1464.293</ele>
        <time>2015-07-03T05:58:39Z</time>
      </trkpt>
      <trkpt lat="42.05572" lon="9.1627">
        <ele>1466.182</ele>
        <time>2015-07-03T05:58:54Z</time>
      </trkpt>
      <trkpt lat="42.05572" lon="9.16285">
        <ele>1467.342</ele>
        <time>2015-07-03T05:59:10Z</time>
      </trkpt>
      <trkpt lat="42.05568" lon="9.16307">
        <ele>1468.528</ele>
        <time>2015-07-03T05:59:26Z</time>
      </trkpt>
      <trkpt lat="42.05566" lon="9.16318">
        <ele>1468.766</ele>
        <time>2015-07-03T05:59:37Z</time>
      </trkpt>
      <trkpt lat="42.05562" lon="9.16334">
        <ele>1469.77</ele>
        <time>2015-07-03T05:59:53Z</time>
      </trkpt>
      <trkpt lat="42.05556" lon="9.16345">
        <ele>1471.133</ele>
        <time>2015-07-03T06:00:09Z</time>
      </trkpt>
      <trkpt lat="42.05549" lon="9.16358">
        <ele>1473.883</ele>
        <time>2015-07-03T06:00:23Z</time>
      </trkpt>
      <trkpt lat="42.05545" lon="9.16373">
        <ele>1475.434</ele>
        <time>2015-07-03T06:00:38Z</time>
      </trkpt>
      <trkpt lat="42.05543" lon="9.1639">
        <ele>1476.228</ele>
        <time>2015-07-03T06:00:53Z</time>
      </trkpt>
      <trkpt lat="42.05538" lon="9.16403">
        <ele>1477.077</ele>
        <time>2015-07-03T06:01:07Z</time>
      </trkpt>
      <trkpt lat="42.05532" lon="9.16412">
        <ele>1478.102</ele>
        <time>2015-07-03T06:01:20Z</time>
      </trkpt>
      <trkpt lat="42.05535" lon="9.16424">
        <ele>1477.457</ele>
        <time>2015-07-03T06:01:33Z</time>
      </trkpt>
      <trkpt lat="42.05538" lon="9.16439">
        <ele>1478.162</ele>
        <time>2015-07-03T06:01:48Z</time>
      </trkpt>
      <trkpt lat="42.05539" lon="9.16451">
        <ele>1478.508</ele>
        <time>2015-07-03T06:02:00Z</time>
      </trkpt>
      <trkpt lat="42.05537" lon="9.16456">
        <ele>1479.599</ele>
        <time>2015-07-03T06:02:05Z</time>
      </trkpt>
      <trkpt lat="42.05529" lon="9.16468">
        <ele>1480.864</ele>
        <time>2015-07-03T06:02:19Z</time>
      </trkpt>
      <trkpt lat="42.05526" lon="9.16475">
        <ele>1482.514</ele>
        <time>2015-07-03T06:02:27Z</time>
      </trkpt>
      <trkpt lat="42.05525" lon="9.16485">
        <ele>1482.749</ele>
        <time>2015-07-03T06:02:38Z</time>
      </trkpt>
      <trkpt lat="42.05526" lon="9.16498">
        <ele>1483.204</ele>
        <time>2015-07-03T06:02:51Z</time>
      </trkpt>
      <trkpt lat="42.05517" lon="9.16511">
        <ele>1484.353</ele>
        <time>2015-07-03T06:03:05Z</time>
      </trkpt>
      <trkpt lat="42.05507" lon="9.16523">
        <ele>1486.506</ele>
        <time>2015-07-03T06:03:20Z</time>
      </trkpt>
      <trkpt lat="42.05504" lon="9.1654">
        <ele>1486.703</ele>
        <time>2015-07-03T06:03:37Z</time>
      </trkpt>
      <trkpt lat="42.05493" lon="9.16555">
        <ele>1486.866</ele>
        <time>2015-07-03T06:03:49Z</time>
      </trkpt>
      <trkpt lat="42.05481" lon="9.16569">
        <ele>1488.786</ele>
        <time>2015-07-03T06:04:05Z</time>
      </trkpt>
      <trkpt lat="42.05471" lon="9.16584">
        <ele>1489.71</ele>
        <time>2015-07-03T06:04:19Z</time>
      </trkpt>
      <trkpt lat="42.05467" lon="9.16593">
        <ele>1491.295</ele>
        <time>2015-07-03T06:04:31Z</time>
      </trkpt>
      <trkpt lat="42.05457" lon="9.16601">
        <ele>1493.183</ele>
        <time>2015-07-03T06:04:46Z</time>
      </trkpt>
      <trkpt lat="42.05444" lon="9.16609">
        <ele>1495.139</ele>
        <time>2015-07-03T06:05:02Z</time>
      </trkpt>
      <trkpt lat="42.05427" lon="9.16613">
        <ele>1496.661</ele>
        <time>2015-07-03T06:05:19Z</time>
      </trkpt>
      <trkpt lat="42.05423" lon="9.16615">
        <ele>1496.506</ele>
        <time>2015-07-03T06:05:23Z</time>
      </trkpt>
      <trkpt lat="42.05418" lon="9.16617">
        <ele>1496.692</ele>
        <time>2015-07-03T06:05:26Z</time>
      </trkpt>
      <trkpt lat="42.05409" lon="9.16622">
        <ele>1498.367</ele>
        <time>2015-07-03T06:05:41Z</time>
      </trkpt>
      <trkpt lat="42.05402" lon="9.16625">
        <ele>1499.189</ele>
        <time>2015-07-03T06:05:53Z</time>
      </trkpt>
      <trkpt lat="42.05389" lon="9.16628">
        <ele>1500.342</ele>
        <time>2015-07-03T06:06:08Z</time>
      </trkpt>
      <trkpt lat="42.0538" lon="9.16628">
        <ele>1500.588</ele>
        <time>2015-07-03T06:06:20Z</time>
      </trkpt>
      <trkpt lat="42.05372" lon="9.16628">
        <ele>1502.844</ele>
        <time>2015-07-03T06:06:34Z</time>
      </trkpt>
      <trkpt lat="42.05364" lon="9.16629">
        <ele>1504.552</ele>
        <time>2015-07-03T06:06:49Z</time>
      </trkpt>
      <trkpt lat="42.05352" lon="9.16633">
        <ele>1504.628</ele>
        <time>2015-07-03T06:07:05Z</time>
      </trkpt>
      <trkpt lat="42.05341" lon="9.16639">
        <ele>1505.825</ele>
        <time>2015-07-03T06:07:19Z</time>
      </trkpt>
      <trkpt lat="42.05338" lon="9.16643">
        <ele>1505.844</ele>
        <time>2015-07-03T06:07:24Z</time>
      </trkpt>
      <trkpt lat="42.05326" lon="9.16659">
        <ele>1505.479</ele>
        <time>2015-07-03T06:07:39Z</time>
      </trkpt>
      <trkpt lat="42.05324" lon="9.16674">
        <ele>1505.01</ele>
        <time>2015-07-03T06:07:51Z</time>
      </trkpt>
      <trkpt lat="42.05323" lon="9.16688">
        <ele>1503.847</ele>
        <time>2015-07-03T06:08:01Z</time>
      </trkpt>
      <trkpt lat="42.05309" lon="9.16713">
        <ele>1503.056</ele>
        <time>2015-07-03T06:08:20Z</time>
      </trkpt>
      <trkpt lat="42.05297" lon="9.16722">
        <ele>1502.9</ele>
        <time>2015-07-03T06:08:35Z</time>
      </trkpt>
      <trkpt lat="42.05289" lon="9.1672">
        <ele>1502.887</ele>
        <time>2015-07-03T06:08:45Z</time>
      </trkpt>
      <trkpt lat="42.05279" lon="9.16716">
        <ele>1503.901</ele>
        <time>2015-07-03T06:08:59Z</time>
      </trkpt>
      <trkpt lat="42.05267" lon="9.16704">
        <ele>1504.817</ele>
        <time>2015-07-03T06:09:15Z</time>
      </trkpt>
      <trkpt lat="42.05256" lon="9.16698">
        <ele>1505.839</ele>
        <time>2015-07-03T06:09:28Z</time>
      </trkpt>
      <trkpt lat="42.05246" lon="9.16691">
        <ele>1506.935</ele>
        <time>2015-07-03T06:09:40Z</time>
      </trkpt>
      <trkpt lat="42.05238" lon="9.16698">
        <ele>1507.659</ele>
        <time>2015-07-03T06:09:52Z</time>
      </trkpt>
      <trkpt lat="42.05233" lon="9.16705">
        <ele>1508.627</ele>
        <time>2015-07-03T06:10:07Z</time>
      </trkpt>
      <trkpt lat="42.0523" lon="9.16705">
        <ele>1509.306</ele>
        <time>2015-07-03T06:10:20Z</time>
      </trkpt>
      <trkpt lat="42.05219" lon="9.16717">
        <ele>1509.262</ele>
        <time>2015-07-03T06:10:34Z</time>
      </trkpt>
      <trkpt lat="42.05215" lon="9.16729">
        <ele>1510.429</ele>
        <time>2015-07-03T06:10:47Z</time>
      </trkpt>
      <trkpt lat="42.0521" lon="9.16733">
        <ele>1511.305</ele>
        <time>2015-07-03T06:11:02Z</time>
      </trkpt>
      <trkpt lat="42.05205" lon="9.16737">
        <ele>1513.062</ele>
        <time>2015-07-03T06:11:16Z</time>
      </trkpt>
      <trkpt lat="42.05193" lon="9.16745">
        <ele>1514.193</ele>
        <time>2015-07-03T06:11:31Z</time>
      </trkpt>
      <trkpt lat="42.05188" lon="9.1676">
        <ele>1514.886</ele>
        <time>2015-07-03T06:11:46Z</time>
      </trkpt>
      <trkpt lat="42.05185" lon="9.16764">
        <ele>1514.375</ele>
        <time>2015-07-03T06:11:51Z</time>
      </trkpt>
      <trkpt lat="42.05181" lon="9.16775">
        <ele>1514.219</ele>
        <time>2015-07-03T06:12:01Z</time>
      </trkpt>
      <trkpt lat="42.05175" lon="9.16782">
        <ele>1514.765</ele>
        <time>2015-07-03T06:12:10Z</time>
      </trkpt>
      <trkpt lat="42.05171" lon="9.16801">
        <ele>1514.472</ele>
        <time>2015-07-03T06:12:27Z</time>
      </trkpt>
      <trkpt lat="42.05172" lon="9.16816">
        <ele>1515.813</ele>
        <time>2015-07-03T06:12:40Z</time>
      </trkpt>
      <trkpt lat="42.0517" lon="9.16837">
        <ele>1516.519</ele>
        <time>2015-07-03T06:12:55Z</time>
      </trkpt>
      <trkpt lat="42.05165" lon="9.16857">
        <ele>1517.145</ele>
        <time>2015-07-03T06:13:09Z</time>
      </trkpt>
      <trkpt lat="42.05157" lon="9.16877">
        <ele>1517.894</ele>
        <time>2015-07-03T06:13:25Z</time>
      </trkpt>
      <trkpt lat="42.05154" lon="9.16887">
        <ele>1518.541</ele>
        <time>2015-07-03T06:13:35Z</time>
      </trkpt>
      <trkpt lat="42.05152" lon="9.16894">
        <ele>1518.185</ele>
        <time>2015-07-03T06:13:41Z</time>
      </trkpt>
      <trkpt lat="42.05142" lon="9.1691">
        <ele>1518.072</ele>
        <time>2015-07-03T06:13:57Z</time>
      </trkpt>
      <trkpt lat="42.05131" lon="9.16925">
        <ele>1518.342</ele>
        <time>2015-07-03T06:14:13Z</time>
      </trkpt>
      <trkpt lat="42.05121" lon="9.16933">
        <ele>1518.283</ele>
        <time>2015-07-03T06:14:27Z</time>
      </trkpt>
      <trkpt lat="42.05111" lon="9.16939">
        <ele>1519.251</ele>
        <time>2015-07-03T06:14:41Z</time>
      </trkpt>
      <trkpt lat="42.05106" lon="9.16954">
        <ele>1519.963</ele>
        <time>2015-07-03T06:14:52Z</time>
      </trkpt>
      <trkpt lat="42.05088" lon="9.16969">
        <ele>1519.832</ele>
        <time>2015-07-03T06:15:08Z</time>
      </trkpt>
      <trkpt lat="42.05087" lon="9.16981">
        <ele>1520.576</ele>
        <time>2015-07-03T06:15:19Z</time>
      </trkpt>
      <trkpt lat="42.05081" lon="9.16996">
        <ele>1521.33</ele>
        <time>2015-07-03T06:15:33Z</time>
      </trkpt>
      <trkpt lat="42.05079" lon="9.17008">
        <ele>1522.757</ele>
        <time>2015-07-03T06:15:44Z</time>
      </trkpt>
      <trkpt lat="42.05069" lon="9.17021">
        <ele>1523.447</ele>
        <time>2015-07-03T06:15:56Z</time>
      </trkpt>
      <trkpt lat="42.05063" lon="9.17043">
        <ele>1524.05</ele>
        <time>2015-07-03T06:16:12Z</time>
      </trkpt>
      <trkpt lat="42.05059" lon="9.17056">
        <ele>1524.756</ele>
        <time>2015-07-03T06:16:25Z</time>
      </trkpt>
      <trkpt lat="42.05055" lon="9.17068">
        <ele>1525.017</ele>
        <time>2015-07-03T06:16:35Z</time>
      </trkpt>
      <trkpt lat="42.05049" lon="9.17073">
        <ele>1525.309</ele>
        <time>2015-07-03T06:16:42Z</time>
      </trkpt>
      <trkpt lat="42.05042" lon="9.17071">
        <ele>1525.333</ele>
        <time>2015-07-03T06:16:56Z</time>
      </trkpt>
      <trkpt lat="42.05035" lon="9.17069">
        <ele>1526.058</ele>
        <time>2015-07-03T06:17:07Z</time>
      </trkpt>
      <trkpt lat="42.05026" lon="9.17061">
        <ele>1527.242</ele>
        <time>2015-07-03T06:17:23Z</time>
      </trkpt>
      <trkpt lat="42.05012" lon="9.17054">
        <ele>1527.371</ele>
        <time>2015-07-03T06:17:38Z</time>
      </trkpt>
      <trkpt lat="42.04999" lon="9.17047">
        <ele>1527.847</ele>
        <time>2015-07-03T06:17:52Z</time>
      </trkpt>
      <trkpt lat="42.04985" lon="9.17039">
        <ele>1527.979</ele>
        <time>2015-07-03T06:18:05Z</time>
      </trkpt>
      <trkpt lat="42.04967" lon="9.17031">
        <ele>1528.379</ele>
        <time>2015-07-03T06:18:24Z</time>
      </trkpt>
      <trkpt lat="42.04954" lon="9.17026">
        <ele>1529.551</ele>
        <time>2015-07-03T06:18:40Z</time>
      </trkpt>
      <trkpt lat="42.04939" lon="9.17018">
        <ele>1529.525</ele>
        <time>2015-07-03T06:19:00Z</time>
      </trkpt>
      <trkpt lat="42.04928" lon="9.17013">
        <ele>1530.387</ele>
        <time>2015-07-03T06:19:16Z</time>
      </trkpt>
      <trkpt lat="42.04927" lon="9.17012">
        <ele>1530.533</ele>
        <time>2015-07-03T06:19:17Z</time>
      </trkpt>
      <trkpt lat="42.04906" lon="9.17">
        <ele>1531.861</ele>
        <time>2015-07-03T06:19:39Z</time>
      </trkpt>
      <trkpt lat="42.04892" lon="9.16994">
        <ele>1533.348</ele>
        <time>2015-07-03T06:19:57Z</time>
      </trkpt>
      <trkpt lat="42.04876" lon="9.16981">
        <ele>1535.084</ele>
        <time>2015-07-03T06:20:15Z</time>
      </trkpt>
      <trkpt lat="42.04871" lon="9.16959">
        <ele>1535.676</ele>
        <time>2015-07-03T06:20:35Z</time>
      </trkpt>
      <trkpt lat="42.04869" lon="9.16946">
        <ele>1537.597</ele>
        <time>2015-07-03T06:20:49Z</time>
      </trkpt>
      <trkpt lat="42.04867" lon="9.16938">
        <ele>1537.997</ele>
        <time>2015-07-03T06:20:56Z</time>
      </trkpt>
      <trkpt lat="42.04863" lon="9.16931">
        <ele>1538.129</ele>
        <time>2015-07-03T06:21:03Z</time>
      </trkpt>
      <trkpt lat="42.04853" lon="9.16915">
        <ele>1538.851</ele>
        <time>2015-07-03T06:21:19Z</time>
      </trkpt>
      <trkpt lat="42.04845" lon="9.169">
        <ele>1539.797</ele>
        <time>2015-07-03T06:21:34Z</time>
      </trkpt>
      <trkpt lat="42.04834" lon="9.16884">
        <ele>1540.875</ele>
        <time>2015-07-03T06:21:51Z</time>
      </trkpt>
      <trkpt lat="42.04829" lon="9.16879">
        <ele>1540.708</ele>
        <time>2015-07-03T06:21:56Z</time>
      </trkpt>
      <trkpt lat="42.04819" lon="9.16866">
        <ele>1540.168</ele>
        <time>2015-07-03T06:22:10Z</time>
      </trkpt>
      <trkpt lat="42.04809" lon="9.16857">
        <ele>1539.63</ele>
        <time>2015-07-03T06:22:24Z</time>
      </trkpt>
      <trkpt lat="42.04805" lon="9.16853">
        <ele>1538.795</ele>
        <time>2015-07-03T06:22:35Z</time>
      </trkpt>
      <trkpt lat="42.04788" lon="9.16848">
        <ele>1537.645</ele>
        <time>2015-07-03T06:22:52Z</time>
      </trkpt>
      <trkpt lat="42.04772" lon="9.16841">
        <ele>1537.339</ele>
        <time>2015-07-03T06:23:08Z</time>
      </trkpt>
      <trkpt lat="42.0476" lon="9.16832">
        <ele>1536.739</ele>
        <time>2015-07-03T06:23:23Z</time>
      </trkpt>
      <trkpt lat="42.04746" lon="9.16821">
        <ele>1536.623</ele>
        <time>2015-07-03T06:23:39Z</time>
      </trkpt>
      <trkpt lat="42.04736" lon="9.1681">
        <ele>1536.929</ele>
        <time>2015-07-03T06:23:53Z</time>
      </trkpt>
      <trkpt lat="42.04723" lon="9.16803">
        <ele>1538.071</ele>
        <time>2015-07-03T06:24:07Z</time>
      </trkpt>
      <trkpt lat="42.04714" lon="9.16799">
        <ele>1537.687</ele>
        <time>2015-07-03T06:24:20Z</time>
      </trkpt>
      <trkpt lat="42.04706" lon="9.16802">
        <ele>1536.621</ele>
        <time>2015-07-03T06:24:27Z</time>
      </trkpt>
      <trkpt lat="42.04687" lon="9.16806">
        <ele>1537.272</ele>
        <time>2015-07-03T06:24:45Z</time>
      </trkpt>
      <trkpt lat="42.04668" lon="9.16815">
        <ele>1536.467</ele>
        <time>2015-07-03T06:25:04Z</time>
      </trkpt>
      <trkpt lat="42.04661" lon="9.16814">
        <ele>1536.292</ele>
        <time>2015-07-03T06:25:14Z</time>
      </trkpt>
      <trkpt lat="42.04646" lon="9.16801">
        <ele>1537.14</ele>
        <time>2015-07-03T06:25:32Z</time>
      </trkpt>
      <trkpt lat="42.04642" lon="9.16797">
        <ele>1537.343</ele>
        <time>2015-07-03T06:25:37Z</time>
      </trkpt>
      <trkpt lat="42.04633" lon="9.16784">
        <ele>1537.892</ele>
        <time>2015-07-03T06:25:53Z</time>
      </trkpt>
      <trkpt lat="42.04628" lon="9.16779">
        <ele>1538.441</ele>
        <time>2015-07-03T06:26:00Z</time>
      </trkpt>
      <trkpt lat="42.04623" lon="9.16775">
        <ele>1538.638</ele>
        <time>2015-07-03T06:26:05Z</time>
      </trkpt>
      <trkpt lat="42.04604" lon="9.1676">
        <ele>1538.203</ele>
        <time>2015-07-03T06:26:25Z</time>
      </trkpt>
      <trkpt lat="42.04591" lon="9.16755">
        <ele>1539.431</ele>
        <time>2015-07-03T06:26:41Z</time>
      </trkpt>
      <trkpt lat="42.04572" lon="9.16751">
        <ele>1541.041</ele>
        <time>2015-07-03T06:27:01Z</time>
      </trkpt>
      <trkpt lat="42.04563" lon="9.16739">
        <ele>1542.013</ele>
        <time>2015-07-03T06:27:16Z</time>
      </trkpt>
      <trkpt lat="42.04554" lon="9.16724">
        <ele>1542.536</ele>
        <time>2015-07-03T06:27:34Z</time>
      </trkpt>
      <trkpt lat="42.04548" lon="9.16716">
        <ele>1543.341</ele>
        <time>2015-07-03T06:27:47Z</time>
      </trkpt>
      <trkpt lat="42.04548" lon="9.16715">
        <ele>1543.743</ele>
        <time>2015-07-03T06:27:48Z</time>
      </trkpt>
      <trkpt lat="42.04539" lon="9.16707">
        <ele>1543.853</ele>
        <time>2015-07-03T06:27:59Z</time>
      </trkpt>
      <trkpt lat="42.04535" lon="9.16703">
        <ele>1544.064</ele>
        <time>2015-07-03T06:28:12Z</time>
      </trkpt>
      <trkpt lat="42.0453" lon="9.16701">
        <ele>1543.322</ele>
        <time>2015-07-03T06:28:35Z</time>
      </trkpt>
      <trkpt lat="42.0453" lon="9.16702">
        <ele>1543.361</ele>
        <time>2015-07-03T06:28:36Z</time>
      </trkpt>
      <trkpt lat="42.04528" lon="9.16707">
        <ele>1543.112</ele>
        <time>2015-07-03T06:29:28Z</time>
      </trkpt>
      <trkpt lat="42.04531" lon="9.16704">
        <ele>1542.736</ele>
        <time>2015-07-03T06:30:08Z</time>
      </trkpt>
      <trkpt lat="42.04521" lon="9.16719">
        <ele>1544.171</ele>
        <time>2015-07-03T06:31:09Z</time>
      </trkpt>
      <trkpt lat="42.0452" lon="9.16722">
        <ele>1544.061</ele>
        <time>2015-07-03T06:31:39Z</time>
      </trkpt>
      <trkpt lat="42.04522" lon="9.16714">
        <ele>1544.654</ele>
        <time>2015-07-03T06:32:36Z</time>
      </trkpt>
      <trkpt lat="42.04528" lon="9.167">
        <ele>1544.999</ele>
        <time>2015-07-03T06:33:14Z</time>
      </trkpt>
      <trkpt lat="42.04529" lon="9.16703">
        <ele>1544.897</ele>
        <time>2015-07-03T06:33:44Z</time>
      </trkpt>
      <trkpt lat="42.04534" lon="9.167">
        <ele>1544.886</ele>
        <time>2015-07-03T06:34:21Z</time>
      </trkpt>
      <trkpt lat="42.04543" lon="9.16694">
        <ele>1545.595</ele>
        <time>2015-07-03T06:35:05Z</time>
      </trkpt>
      <trkpt lat="42.0453" lon="9.16697">
        <ele>1545.557</ele>
        <time>2015-07-03T06:36:45Z</time>
      </trkpt>
      <trkpt lat="42.04528" lon="9.167">
        <ele>1545.589</ele>
        <time>2015-07-03T06:37:04Z</time>
      </trkpt>
      <trkpt lat="42.04522" lon="9.16701">
        <ele>1545.124</ele>
        <time>2015-07-03T06:37:16Z</time>
      </trkpt>
      <trkpt lat="42.04518" lon="9.16706">
        <ele>1545.793</ele>
        <time>2015-07-03T06:37:27Z</time>
      </trkpt>
      <trkpt lat="42.0451" lon="9.16706">
        <ele>1546.609</ele>
        <time>2015-07-03T06:37:43Z</time>
      </trkpt>
      <trkpt lat="42.04506" lon="9.16696">
        <ele>1547.557</ele>
        <time>2015-07-03T06:37:58Z</time>
      </trkpt>
      <trkpt lat="42.04503" lon="9.16689">
        <ele>1548.056</ele>
        <time>2015-07-03T06:38:11Z</time>
      </trkpt>
      <trkpt lat="42.04503" lon="9.16686">
        <ele>1549.333</ele>
        <time>2015-07-03T06:38:23Z</time>
      </trkpt>
      <trkpt lat="42.04497" lon="9.16677">
        <ele>1549.927</ele>
        <time>2015-07-03T06:38:50Z</time>
      </trkpt>
      <trkpt lat="42.04489" lon="9.16668">
        <ele>1550.86</ele>
        <time>2015-07-03T06:39:05Z</time>
      </trkpt>
      <trkpt lat="42.04474" lon="9.16664">
        <ele>1551.852</ele>
        <time>2015-07-03T06:39:25Z</time>
      </trkpt>
      <trkpt lat="42.04467" lon="9.16668">
        <ele>1551.99</ele>
        <time>2015-07-03T06:39:33Z</time>
      </trkpt>
      <trkpt lat="42.04455" lon="9.16678">
        <ele>1551.784</ele>
        <time>2015-07-03T06:39:47Z</time>
      </trkpt>
      <trkpt lat="42.04444" lon="9.16679">
        <ele>1552.633</ele>
        <time>2015-07-03T06:40:03Z</time>
      </trkpt>
      <trkpt lat="42.04439" lon="9.16676">
        <ele>1553.643</ele>
        <time>2015-07-03T06:40:16Z</time>
      </trkpt>
      <trkpt lat="42.04431" lon="9.16674">
        <ele>1555.376</ele>
        <time>2015-07-03T06:40:31Z</time>
      </trkpt>
      <trkpt lat="42.04422" lon="9.16681">
        <ele>1554.697</ele>
        <time>2015-07-03T06:40:45Z</time>
      </trkpt>
      <trkpt lat="42.04421" lon="9.16683">
        <ele>1555.641</ele>
        <time>2015-07-03T06:40:47Z</time>
      </trkpt>
      <trkpt lat="42.04411" lon="9.16703">
        <ele>1554.761</ele>
        <time>2015-07-03T06:41:04Z</time>
      </trkpt>
      <trkpt lat="42.04403" lon="9.16718">
        <ele>1555.336</ele>
        <time>2015-07-03T06:41:19Z</time>
      </trkpt>
      <trkpt lat="42.04395" lon="9.16735">
        <ele>1557.314</ele>
        <time>2015-07-03T06:41:34Z</time>
      </trkpt>
      <trkpt lat="42.04386" lon="9.16756">
        <ele>1557.89</ele>
        <time>2015-07-03T06:41:51Z</time>
      </trkpt>
      <trkpt lat="42.0437" lon="9.16766">
        <ele>1557.463</ele>
        <time>2015-07-03T06:42:08Z</time>
      </trkpt>
      <trkpt lat="42.04359" lon="9.16762">
        <ele>1557.433</ele>
        <time>2015-07-03T06:42:23Z</time>
      </trkpt>
      <trkpt lat="42.04345" lon="9.16763">
        <ele>1558.005</ele>
        <time>2015-07-03T06:42:39Z</time>
      </trkpt>
      <trkpt lat="42.04336" lon="9.16767">
        <ele>1558.257</ele>
        <time>2015-07-03T06:42:51Z</time>
      </trkpt>
      <trkpt lat="42.04323" lon="9.16783">
        <ele>1558.039</ele>
        <time>2015-07-03T06:43:07Z</time>
      </trkpt>
      <trkpt lat="42.04305" lon="9.16796">
        <ele>1558.25</ele>
        <time>2015-07-03T06:43:27Z</time>
      </trkpt>
      <trkpt lat="42.04293" lon="9.16798">
        <ele>1558.932</ele>
        <time>2015-07-03T06:43:43Z</time>
      </trkpt>
      <trkpt lat="42.04284" lon="9.16789">
        <ele>1558.887</ele>
        <time>2015-07-03T06:43:56Z</time>
      </trkpt>
      <trkpt lat="42.04266" lon="9.16772">
        <ele>1559.145</ele>
        <time>2015-07-03T06:44:17Z</time>
      </trkpt>
      <trkpt lat="42.04246" lon="9.16755">
        <ele>1559.331</ele>
        <time>2015-07-03T06:44:39Z</time>
      </trkpt>
      <trkpt lat="42.04224" lon="9.16738">
        <ele>1558.777</ele>
        <time>2015-07-03T06:45:03Z</time>
      </trkpt>
      <trkpt lat="42.0422" lon="9.16735">
        <ele>1558.632</ele>
        <time>2015-07-03T06:45:07Z</time>
      </trkpt>
      <trkpt lat="42.04207" lon="9.16733">
        <ele>1559.077</ele>
        <time>2015-07-03T06:45:23Z</time>
      </trkpt>
      <trkpt lat="42.04203" lon="9.16736">
        <ele>1559.366</ele>
        <time>2015-07-03T06:45:28Z</time>
      </trkpt>
      <trkpt lat="42.04184" lon="9.16746">
        <ele>1559.154</ele>
        <time>2015-07-03T06:45:49Z</time>
      </trkpt>
      <trkpt lat="42.04179" lon="9.16757">
        <ele>1558.525</ele>
        <time>2015-07-03T06:46:00Z</time>
      </trkpt>
      <trkpt lat="42.04173" lon="9.16767">
        <ele>1558.115</ele>
        <time>2015-07-03T06:46:13Z</time>
      </trkpt>
      <trkpt lat="42.04168" lon="9.1678">
        <ele>1557.241</ele>
        <time>2015-07-03T06:46:27Z</time>
      </trkpt>
      <trkpt lat="42.04166" lon="9.16787">
        <ele>1557.045</ele>
        <time>2015-07-03T06:46:31Z</time>
      </trkpt>
      <trkpt lat="42.04153" lon="9.16813">
        <ele>1556.898</ele>
        <time>2015-07-03T06:46:50Z</time>
      </trkpt>
      <trkpt lat="42.04145" lon="9.16844">
        <ele>1556.558</ele>
        <time>2015-07-03T06:47:11Z</time>
      </trkpt>
      <trkpt lat="42.04138" lon="9.16867">
        <ele>1556.527</ele>
        <time>2015-07-03T06:47:29Z</time>
      </trkpt>
      <trkpt lat="42.04134" lon="9.16882">
        <ele>1556.687</ele>
        <time>2015-07-03T06:47:42Z</time>
      </trkpt>
      <trkpt lat="42.04132" lon="9.16887">
        <ele>1555.237</ele>
        <time>2015-07-03T06:47:46Z</time>
      </trkpt>
      <trkpt lat="42.04123" lon="9.16904">
        <ele>1554.53</ele>
        <time>2015-07-03T06:48:04Z</time>
      </trkpt>
      <trkpt lat="42.0412" lon="9.1691">
        <ele>1556.32</ele>
        <time>2015-07-03T06:48:11Z</time>
      </trkpt>
      <trkpt lat="42.04117" lon="9.16918">
        <ele>1556.176</ele>
        <time>2015-07-03T06:48:18Z</time>
      </trkpt>
      <trkpt lat="42.04116" lon="9.16933">
        <ele>1555.925</ele>
        <time>2015-07-03T06:48:30Z</time>
      </trkpt>
      <trkpt lat="42.04111" lon="9.16947">
        <ele>1555.759</ele>
        <time>2015-07-03T06:48:39Z</time>
      </trkpt>
      <trkpt lat="42.04115" lon="9.16977">
        <ele>1555.677</ele>
        <time>2015-07-03T06:48:58Z</time>
      </trkpt>
      <trkpt lat="42.04116" lon="9.16987">
        <ele>1555.984</ele>
        <time>2015-07-03T06:49:07Z</time>
      </trkpt>
      <trkpt lat="42.04112" lon="9.17001">
        <ele>1555.682</ele>
        <time>2015-07-03T06:49:16Z</time>
      </trkpt>
      <trkpt lat="42.04104" lon="9.17018">
        <ele>1556.334</ele>
        <time>2015-07-03T06:49:32Z</time>
      </trkpt>
      <trkpt lat="42.04097" lon="9.17035">
        <ele>1557.198</ele>
        <time>2015-07-03T06:49:45Z</time>
      </trkpt>
      <trkpt lat="42.04086" lon="9.17053">
        <ele>1557.907</ele>
        <time>2015-07-03T06:50:01Z</time>
      </trkpt>
      <trkpt lat="42.04074" lon="9.1707">
        <ele>1558.99</ele>
        <time>2015-07-03T06:50:16Z</time>
      </trkpt>
      <trkpt lat="42.04061" lon="9.17083">
        <ele>1558.895</ele>
        <time>2015-07-03T06:50:32Z</time>
      </trkpt>
      <trkpt lat="42.0405" lon="9.17088">
        <ele>1560.642</ele>
        <time>2015-07-03T06:50:50Z</time>
      </trkpt>
      <trkpt lat="42.04048" lon="9.1709">
        <ele>1561.073</ele>
        <time>2015-07-03T06:50:53Z</time>
      </trkpt>
      <trkpt lat="42.04034" lon="9.171">
        <ele>1561.364</ele>
        <time>2015-07-03T06:51:07Z</time>
      </trkpt>
      <trkpt lat="42.0402" lon="9.17108">
        <ele>1561.108</ele>
        <time>2015-07-03T06:51:24Z</time>
      </trkpt>
      <trkpt lat="42.0402" lon="9.17114">
        <ele>1561.565</ele>
        <time>2015-07-03T06:51:30Z</time>
      </trkpt>
      <trkpt lat="42.04018" lon="9.17134">
        <ele>1560.731</ele>
        <time>2015-07-03T06:51:41Z</time>
      </trkpt>
      <trkpt lat="42.04018" lon="9.17135">
        <ele>1561.051</ele>
        <time>2015-07-03T06:51:42Z</time>
      </trkpt>
      <trkpt lat="42.04016" lon="9.17157">
        <ele>1561.357</ele>
        <time>2015-07-03T06:51:58Z</time>
      </trkpt>
      <trkpt lat="42.04013" lon="9.17164">
        <ele>1561.36</ele>
        <time>2015-07-03T06:52:10Z</time>
      </trkpt>
      <trkpt lat="42.04005" lon="9.17179">
        <ele>1562.141</ele>
        <time>2015-07-03T06:52:25Z</time>
      </trkpt>
      <trkpt lat="42.04005" lon="9.1718">
        <ele>1562.543</ele>
        <time>2015-07-03T06:52:26Z</time>
      </trkpt>
      <trkpt lat="42.03996" lon="9.17193">
        <ele>1563.407</ele>
        <time>2015-07-03T06:52:42Z</time>
      </trkpt>
      <trkpt lat="42.0399" lon="9.17211">
        <ele>1565.089</ele>
        <time>2015-07-03T06:52:59Z</time>
      </trkpt>
      <trkpt lat="42.03982" lon="9.17225">
        <ele>1566.097</ele>
        <time>2015-07-03T06:53:13Z</time>
      </trkpt>
      <trkpt lat="42.03971" lon="9.17239">
        <ele>1567.098</ele>
        <time>2015-07-03T06:53:31Z</time>
      </trkpt>
      <trkpt lat="42.03963" lon="9.17243">
        <ele>1569.583</ele>
        <time>2015-07-03T06:53:48Z</time>
      </trkpt>
      <trkpt lat="42.03961" lon="9.17243">
        <ele>1570.246</ele>
        <time>2015-07-03T06:53:52Z</time>
      </trkpt>
      <trkpt lat="42.0395" lon="9.17241">
        <ele>1572.139</ele>
        <time>2015-07-03T06:54:10Z</time>
      </trkpt>
      <trkpt lat="42.03943" lon="9.17239">
        <ele>1573.987</ele>
        <time>2015-07-03T06:54:24Z</time>
      </trkpt>
      <trkpt lat="42.03932" lon="9.1724">
        <ele>1574.439</ele>
        <time>2015-07-03T06:54:39Z</time>
      </trkpt>
      <trkpt lat="42.03917" lon="9.17237">
        <ele>1576.492</ele>
        <time>2015-07-03T06:54:56Z</time>
      </trkpt>
      <trkpt lat="42.03909" lon="9.17227">
        <ele>1576.915</ele>
        <time>2015-07-03T06:55:12Z</time>
      </trkpt>
      <trkpt lat="42.03892" lon="9.1722">
        <ele>1579.524</ele>
        <time>2015-07-03T06:55:32Z</time>
      </trkpt>
      <trkpt lat="42.03882" lon="9.17221">
        <ele>1579.954</ele>
        <time>2015-07-03T06:55:45Z</time>
      </trkpt>
      <trkpt lat="42.03868" lon="9.17217">
        <ele>1581.404</ele>
        <time>2015-07-03T06:56:01Z</time>
      </trkpt>
      <trkpt lat="42.03854" lon="9.17208">
        <ele>1581.954</ele>
        <time>2015-07-03T06:56:20Z</time>
      </trkpt>
      <trkpt lat="42.03845" lon="9.17201">
        <ele>1583.343</ele>
        <time>2015-07-03T06:56:33Z</time>
      </trkpt>
      <trkpt lat="42.0384" lon="9.17195">
        <ele>1583.14</ele>
        <time>2015-07-03T06:56:39Z</time>
      </trkpt>
      <trkpt lat="42.03831" lon="9.1719">
        <ele>1583.136</ele>
        <time>2015-07-03T06:56:49Z</time>
      </trkpt>
      <trkpt lat="42.03823" lon="9.17181">
        <ele>1584.585</ele>
        <time>2015-07-03T06:57:06Z</time>
      </trkpt>
      <trkpt lat="42.03817" lon="9.17167">
        <ele>1586.302</ele>
        <time>2015-07-03T06:57:20Z</time>
      </trkpt>
      <trkpt lat="42.0381" lon="9.17158">
        <ele>1586.787</ele>
        <time>2015-07-03T06:57:33Z</time>
      </trkpt>
      <trkpt lat="42.03804" lon="9.17146">
        <ele>1588.186</ele>
        <time>2015-07-03T06:57:45Z</time>
      </trkpt>
      <trkpt lat="42.03799" lon="9.17133">
        <ele>1589.955</ele>
        <time>2015-07-03T06:57:59Z</time>
      </trkpt>
      <trkpt lat="42.03795" lon="9.1712">
        <ele>1591.142</ele>
        <time>2015-07-03T06:58:11Z</time>
      </trkpt>
      <trkpt lat="42.03788" lon="9.17102">
        <ele>1591.982</ele>
        <time>2015-07-03T06:58:26Z</time>
      </trkpt>
      <trkpt lat="42.03784" lon="9.17085">
        <ele>1592.859</ele>
        <time>2015-07-03T06:58:39Z</time>
      </trkpt>
      <trkpt lat="42.03781" lon="9.17078">
        <ele>1593.434</ele>
        <time>2015-07-03T06:58:45Z</time>
      </trkpt>
      <trkpt lat="42.03775" lon="9.17061">
        <ele>1593.696</ele>
        <time>2015-07-03T06:58:58Z</time>
      </trkpt>
      <trkpt lat="42.03766" lon="9.1704">
        <ele>1595.379</ele>
        <time>2015-07-03T06:59:17Z</time>
      </trkpt>
      <trkpt lat="42.03759" lon="9.17026">
        <ele>1594.828</ele>
        <time>2015-07-03T06:59:33Z</time>
      </trkpt>
      <trkpt lat="42.03749" lon="9.17018">
        <ele>1595.85</ele>
        <time>2015-07-03T06:59:49Z</time>
      </trkpt>
      <trkpt lat="42.03737" lon="9.17021">
        <ele>1596.077</ele>
        <time>2015-07-03T07:00:05Z</time>
      </trkpt>
      <trkpt lat="42.03733" lon="9.17019">
        <ele>1596.372</ele>
        <time>2015-07-03T07:00:12Z</time>
      </trkpt>
      <trkpt lat="42.03715" lon="9.1701">
        <ele>1595.867</ele>
        <time>2015-07-03T07:00:29Z</time>
      </trkpt>
      <trkpt lat="42.037" lon="9.16999">
        <ele>1595.626</ele>
        <time>2015-07-03T07:00:46Z</time>
      </trkpt>
      <trkpt lat="42.03692" lon="9.16991">
        <ele>1594.895</ele>
        <time>2015-07-03T07:00:58Z</time>
      </trkpt>
      <trkpt lat="42.03688" lon="9.16982">
        <ele>1595.537</ele>
        <time>2015-07-03T07:01:09Z</time>
      </trkpt>
      <trkpt lat="42.03677" lon="9.16976">
        <ele>1595.488</ele>
        <time>2015-07-03T07:01:21Z</time>
      </trkpt>
      <trkpt lat="42.03664" lon="9.16968">
        <ele>1595.942</ele>
        <time>2015-07-03T07:01:36Z</time>
      </trkpt>
      <trkpt lat="42.03653" lon="9.16965">
        <ele>1596.327</ele>
        <time>2015-07-03T07:01:48Z</time>
      </trkpt>
      <trkpt lat="42.03637" lon="9.1695">
        <ele>1596.939</ele>
        <time>2015-07-03T07:02:04Z</time>
      </trkpt>
      <trkpt lat="42.03631" lon="9.16948">
        <ele>1596.004</ele>
        <time>2015-07-03T07:02:10Z</time>
      </trkpt>
      <trkpt lat="42.03613" lon="9.16937">
        <ele>1597.26</ele>
        <time>2015-07-03T07:02:26Z</time>
      </trkpt>
      <trkpt lat="42.03592" lon="9.16924">
        <ele>1597.059</ele>
        <time>2015-07-03T07:02:46Z</time>
      </trkpt>
      <trkpt lat="42.03579" lon="9.16918">
        <ele>1597.719</ele>
        <time>2015-07-03T07:03:04Z</time>
      </trkpt>
      <trkpt lat="42.03568" lon="9.1691">
        <ele>1597.608</ele>
        <time>2015-07-03T07:03:25Z</time>
      </trkpt>
      <trkpt lat="42.03547" lon="9.16898">
        <ele>1599.017</ele>
        <time>2015-07-03T07:03:47Z</time>
      </trkpt>
      <trkpt lat="42.03525" lon="9.16887">
        <ele>1598.357</ele>
        <time>2015-07-03T07:04:07Z</time>
      </trkpt>
      <trkpt lat="42.03505" lon="9.16869">
        <ele>1597.174</ele>
        <time>2015-07-03T07:04:29Z</time>
      </trkpt>
      <trkpt lat="42.03496" lon="9.16846">
        <ele>1595.952</ele>
        <time>2015-07-03T07:04:48Z</time>
      </trkpt>
      <trkpt lat="42.03495" lon="9.16819">
        <ele>1594.88</ele>
        <time>2015-07-03T07:05:06Z</time>
      </trkpt>
      <trkpt lat="42.03494" lon="9.16817">
        <ele>1595.038</ele>
        <time>2015-07-03T07:05:08Z</time>
      </trkpt>
      <trkpt lat="42.0349" lon="9.16816">
        <ele>1594.911</ele>
        <time>2015-07-03T07:05:12Z</time>
      </trkpt>
      <trkpt lat="42.03474" lon="9.16818">
        <ele>1594.787</ele>
        <time>2015-07-03T07:05:27Z</time>
      </trkpt>
      <trkpt lat="42.0345" lon="9.16801">
        <ele>1594.858</ele>
        <time>2015-07-03T07:05:51Z</time>
      </trkpt>
      <trkpt lat="42.03441" lon="9.16792">
        <ele>1593.833</ele>
        <time>2015-07-03T07:06:02Z</time>
      </trkpt>
      <trkpt lat="42.0344" lon="9.16791">
        <ele>1593.426</ele>
        <time>2015-07-03T07:06:04Z</time>
      </trkpt>
      <trkpt lat="42.03428" lon="9.16776">
        <ele>1591.199</ele>
        <time>2015-07-03T07:06:21Z</time>
      </trkpt>
      <trkpt lat="42.03417" lon="9.16757">
        <ele>1589.274</ele>
        <time>2015-07-03T07:06:39Z</time>
      </trkpt>
      <trkpt lat="42.03409" lon="9.16741">
        <ele>1588.617</ele>
        <time>2015-07-03T07:06:54Z</time>
      </trkpt>
      <trkpt lat="42.03408" lon="9.16738">
        <ele>1588.278</ele>
        <time>2015-07-03T07:06:56Z</time>
      </trkpt>
      <trkpt lat="42.03402" lon="9.16728">
        <ele>1586.798</ele>
        <time>2015-07-03T07:07:04Z</time>
      </trkpt>
      <trkpt lat="42.0339" lon="9.16706">
        <ele>1586.585</ele>
        <time>2015-07-03T07:07:23Z</time>
      </trkpt>
      <trkpt lat="42.03382" lon="9.16693">
        <ele>1583.924</ele>
        <time>2015-07-03T07:07:38Z</time>
      </trkpt>
      <trkpt lat="42.03372" lon="9.16672">
        <ele>1582.737</ele>
        <time>2015-07-03T07:07:56Z</time>
      </trkpt>
      <trkpt lat="42.03371" lon="9.1667">
        <ele>1582.322</ele>
        <time>2015-07-03T07:07:58Z</time>
      </trkpt>
      <trkpt lat="42.03365" lon="9.1666">
        <ele>1582.09</ele>
        <time>2015-07-03T07:08:08Z</time>
      </trkpt>
      <trkpt lat="42.03362" lon="9.16656">
        <ele>1581.927</ele>
        <time>2015-07-03T07:08:12Z</time>
      </trkpt>
      <trkpt lat="42.03352" lon="9.16633">
        <ele>1579.315</ele>
        <time>2015-07-03T07:08:31Z</time>
      </trkpt>
      <trkpt lat="42.03348" lon="9.16623">
        <ele>1578.485</ele>
        <time>2015-07-03T07:08:39Z</time>
      </trkpt>
      <trkpt lat="42.03347" lon="9.1662">
        <ele>1578.25</ele>
        <time>2015-07-03T07:08:42Z</time>
      </trkpt>
      <trkpt lat="42.03345" lon="9.16617">
        <ele>1577.913</ele>
        <time>2015-07-03T07:08:45Z</time>
      </trkpt>
      <trkpt lat="42.03342" lon="9.16597">
        <ele>1576.64</ele>
        <time>2015-07-03T07:09:00Z</time>
      </trkpt>
      <trkpt lat="42.03335" lon="9.1658">
        <ele>1574.375</ele>
        <time>2015-07-03T07:09:16Z</time>
      </trkpt>
      <trkpt lat="42.03328" lon="9.16567">
        <ele>1576.215</ele>
        <time>2015-07-03T07:09:31Z</time>
      </trkpt>
      <trkpt lat="42.03326" lon="9.16565">
        <ele>1576.669</ele>
        <time>2015-07-03T07:09:57Z</time>
      </trkpt>
      <trkpt lat="42.03323" lon="9.16563">
        <ele>1575.617</ele>
        <time>2015-07-03T07:10:16Z</time>
      </trkpt>
      <trkpt lat="42.0332" lon="9.16564">
        <ele>1575.052</ele>
        <time>2015-07-03T07:10:23Z</time>
      </trkpt>
      <trkpt lat="42.03313" lon="9.16575">
        <ele>1574.955</ele>
        <time>2015-07-03T07:10:33Z</time>
      </trkpt>
      <trkpt lat="42.03298" lon="9.16585">
        <ele>1574.293</ele>
        <time>2015-07-03T07:10:50Z</time>
      </trkpt>
      <trkpt lat="42.03291" lon="9.16594">
        <ele>1574.647</ele>
        <time>2015-07-03T07:11:10Z</time>
      </trkpt>
      <trkpt lat="42.03289" lon="9.16595">
        <ele>1575.058</ele>
        <time>2015-07-03T07:11:12Z</time>
      </trkpt>
      <trkpt lat="42.03277" lon="9.166">
        <ele>1574.604</ele>
        <time>2015-07-03T07:11:28Z</time>
      </trkpt>
      <trkpt lat="42.03268" lon="9.16607">
        <ele>1572.976</ele>
        <time>2015-07-03T07:11:44Z</time>
      </trkpt>
      <trkpt lat="42.03263" lon="9.16608">
        <ele>1571.739</ele>
        <time>2015-07-03T07:11:50Z</time>
      </trkpt>
      <trkpt lat="42.03246" lon="9.16608">
        <ele>1569.728</ele>
        <time>2015-07-03T07:12:10Z</time>
      </trkpt>
      <trkpt lat="42.03235" lon="9.16598">
        <ele>1567.186</ele>
        <time>2015-07-03T07:12:26Z</time>
      </trkpt>
      <trkpt lat="42.03231" lon="9.16594">
        <ele>1567.356</ele>
        <time>2015-07-03T07:12:32Z</time>
      </trkpt>
      <trkpt lat="42.03226" lon="9.16586">
        <ele>1565.743</ele>
        <time>2015-07-03T07:12:40Z</time>
      </trkpt>
      <trkpt lat="42.03215" lon="9.16579">
        <ele>1564.822</ele>
        <time>2015-07-03T07:12:52Z</time>
      </trkpt>
      <trkpt lat="42.032" lon="9.16582">
        <ele>1563.888</ele>
        <time>2015-07-03T07:13:08Z</time>
      </trkpt>
      <trkpt lat="42.03196" lon="9.16582">
        <ele>1563.099</ele>
        <time>2015-07-03T07:13:12Z</time>
      </trkpt>
      <trkpt lat="42.03183" lon="9.16581">
        <ele>1561.399</ele>
        <time>2015-07-03T07:13:27Z</time>
      </trkpt>
      <trkpt lat="42.03175" lon="9.16575">
        <ele>1559.764</ele>
        <time>2015-07-03T07:13:41Z</time>
      </trkpt>
      <trkpt lat="42.03173" lon="9.1657">
        <ele>1558.967</ele>
        <time>2015-07-03T07:13:47Z</time>
      </trkpt>
      <trkpt lat="42.0317" lon="9.16562">
        <ele>1557.588</ele>
        <time>2015-07-03T07:13:54Z</time>
      </trkpt>
      <trkpt lat="42.03161" lon="9.16541">
        <ele>1554.865</ele>
        <time>2015-07-03T07:14:12Z</time>
      </trkpt>
      <trkpt lat="42.03157" lon="9.16531">
        <ele>1553.538</ele>
        <time>2015-07-03T07:14:22Z</time>
      </trkpt>
      <trkpt lat="42.03152" lon="9.16513">
        <ele>1552.134</ele>
        <time>2015-07-03T07:14:40Z</time>
      </trkpt>
      <trkpt lat="42.03148" lon="9.16509">
        <ele>1551.141</ele>
        <time>2015-07-03T07:14:54Z</time>
      </trkpt>
      <trkpt lat="42.03145" lon="9.16523">
        <ele>1549.17</ele>
        <time>2015-07-03T07:15:10Z</time>
      </trkpt>
      <trkpt lat="42.03147" lon="9.16535">
        <ele>1547.928</ele>
        <time>2015-07-03T07:15:24Z</time>
      </trkpt>
      <trkpt lat="42.03144" lon="9.16547">
        <ele>1544.645</ele>
        <time>2015-07-03T07:15:37Z</time>
      </trkpt>
      <trkpt lat="42.03146" lon="9.16563">
        <ele>1542.245</ele>
        <time>2015-07-03T07:15:51Z</time>
      </trkpt>
      <trkpt lat="42.03148" lon="9.1657">
        <ele>1541.949</ele>
        <time>2015-07-03T07:15:57Z</time>
      </trkpt>
      <trkpt lat="42.03149" lon="9.1659">
        <ele>1539.868</ele>
        <time>2015-07-03T07:16:12Z</time>
      </trkpt>
      <trkpt lat="42.03149" lon="9.16609">
        <ele>1536.845</ele>
        <time>2015-07-03T07:16:29Z</time>
      </trkpt>
      <trkpt lat="42.03144" lon="9.16624">
        <ele>1533.785</ele>
        <time>2015-07-03T07:16:45Z</time>
      </trkpt>
      <trkpt lat="42.03142" lon="9.16618">
        <ele>1530.477</ele>
        <time>2015-07-03T07:16:58Z</time>
      </trkpt>
      <trkpt lat="42.03135" lon="9.16607">
        <ele>1528.822</ele>
        <time>2015-07-03T07:17:12Z</time>
      </trkpt>
      <trkpt lat="42.0313" lon="9.16597">
        <ele>1526.826</ele>
        <time>2015-07-03T07:17:25Z</time>
      </trkpt>
      <trkpt lat="42.03127" lon="9.16579">
        <ele>1524.665</ele>
        <time>2015-07-03T07:17:39Z</time>
      </trkpt>
      <trkpt lat="42.03122" lon="9.16569">
        <ele>1523.031</ele>
        <time>2015-07-03T07:17:53Z</time>
      </trkpt>
      <trkpt lat="42.03115" lon="9.16561">
        <ele>1522.232</ele>
        <time>2015-07-03T07:18:06Z</time>
      </trkpt>
      <trkpt lat="42.03109" lon="9.16552">
        <ele>1521.187</ele>
        <time>2015-07-03T07:18:18Z</time>
      </trkpt>
      <trkpt lat="42.03096" lon="9.16539">
        <ele>1519.488</ele>
        <time>2015-07-03T07:18:33Z</time>
      </trkpt>
      <trkpt lat="42.03092" lon="9.16529">
        <ele>1516.627</ele>
        <time>2015-07-03T07:18:46Z</time>
      </trkpt>
      <trkpt lat="42.03079" lon="9.16516">
        <ele>1514.901</ele>
        <time>2015-07-03T07:19:00Z</time>
      </trkpt>
      <trkpt lat="42.0308" lon="9.16501">
        <ele>1513.305</ele>
        <time>2015-07-03T07:19:14Z</time>
      </trkpt>
      <trkpt lat="42.03076" lon="9.16491">
        <ele>1511.452</ele>
        <time>2015-07-03T07:19:23Z</time>
      </trkpt>
      <trkpt lat="42.03071" lon="9.16478">
        <ele>1510.598</ele>
        <time>2015-07-03T07:19:35Z</time>
      </trkpt>
      <trkpt lat="42.03072" lon="9.16468">
        <ele>1508.539</ele>
        <time>2015-07-03T07:19:48Z</time>
      </trkpt>
      <trkpt lat="42.03071" lon="9.16451">
        <ele>1506.657</ele>
        <time>2015-07-03T07:20:04Z</time>
      </trkpt>
      <trkpt lat="42.03065" lon="9.16444">
        <ele>1505.139</ele>
        <time>2015-07-03T07:20:17Z</time>
      </trkpt>
      <trkpt lat="42.0306" lon="9.16447">
        <ele>1503.637</ele>
        <time>2015-07-03T07:20:29Z</time>
      </trkpt>
      <trkpt lat="42.03056" lon="9.16456">
        <ele>1501.612</ele>
        <time>2015-07-03T07:20:43Z</time>
      </trkpt>
      <trkpt lat="42.03052" lon="9.1647">
        <ele>1498.878</ele>
        <time>2015-07-03T07:20:59Z</time>
      </trkpt>
      <trkpt lat="42.03048" lon="9.1648">
        <ele>1496.501</ele>
        <time>2015-07-03T07:21:12Z</time>
      </trkpt>
      <trkpt lat="42.03045" lon="9.16496">
        <ele>1494.134</ele>
        <time>2015-07-03T07:21:26Z</time>
      </trkpt>
      <trkpt lat="42.03042" lon="9.1651">
        <ele>1492.352</ele>
        <time>2015-07-03T07:21:41Z</time>
      </trkpt>
      <trkpt lat="42.03038" lon="9.16528">
        <ele>1490.021</ele>
        <time>2015-07-03T07:21:58Z</time>
      </trkpt>
      <trkpt lat="42.03043" lon="9.16536">
        <ele>1488.606</ele>
        <time>2015-07-03T07:22:06Z</time>
      </trkpt>
      <trkpt lat="42.03047" lon="9.16553">
        <ele>1485.399</ele>
        <time>2015-07-03T07:22:20Z</time>
      </trkpt>
      <trkpt lat="42.03045" lon="9.16556">
        <ele>1485.286</ele>
        <time>2015-07-03T07:22:23Z</time>
      </trkpt>
      <trkpt lat="42.03041" lon="9.16569">
        <ele>1482.728</ele>
        <time>2015-07-03T07:22:38Z</time>
      </trkpt>
      <trkpt lat="42.03039" lon="9.16572">
        <ele>1482.265</ele>
        <time>2015-07-03T07:22:42Z</time>
      </trkpt>
      <trkpt lat="42.03037" lon="9.16587">
        <ele>1481.052</ele>
        <time>2015-07-03T07:22:58Z</time>
      </trkpt>
      <trkpt lat="42.03036" lon="9.16608">
        <ele>1478.948</ele>
        <time>2015-07-03T07:23:11Z</time>
      </trkpt>
      <trkpt lat="42.03038" lon="9.16615">
        <ele>1477.42</ele>
        <time>2015-07-03T07:23:23Z</time>
      </trkpt>
      <trkpt lat="42.03046" lon="9.16624">
        <ele>1474.776</ele>
        <time>2015-07-03T07:23:38Z</time>
      </trkpt>
      <trkpt lat="42.03044" lon="9.1664">
        <ele>1473.839</ele>
        <time>2015-07-03T07:23:52Z</time>
      </trkpt>
      <trkpt lat="42.03039" lon="9.16656">
        <ele>1473.436</ele>
        <time>2015-07-03T07:24:03Z</time>
      </trkpt>
      <trkpt lat="42.03037" lon="9.16658">
        <ele>1473.37</ele>
        <time>2015-07-03T07:24:05Z</time>
      </trkpt>
      <trkpt lat="42.03041" lon="9.16664">
        <ele>1471.142</ele>
        <time>2015-07-03T07:24:21Z</time>
      </trkpt>
      <trkpt lat="42.0304" lon="9.1665">
        <ele>1469.472</ele>
        <time>2015-07-03T07:24:37Z</time>
      </trkpt>
      <trkpt lat="42.03036" lon="9.16637">
        <ele>1466.636</ele>
        <time>2015-07-03T07:24:51Z</time>
      </trkpt>
      <trkpt lat="42.03031" lon="9.16629">
        <ele>1465.098</ele>
        <time>2015-07-03T07:25:04Z</time>
      </trkpt>
      <trkpt lat="42.03028" lon="9.16625">
        <ele>1464.712</ele>
        <time>2015-07-03T07:25:17Z</time>
      </trkpt>
      <trkpt lat="42.03032" lon="9.16612">
        <ele>1464.096</ele>
        <time>2015-07-03T07:25:41Z</time>
      </trkpt>
      <trkpt lat="42.03028" lon="9.16604">
        <ele>1462.788</ele>
        <time>2015-07-03T07:25:54Z</time>
      </trkpt>
      <trkpt lat="42.03023" lon="9.16592">
        <ele>1461.361</ele>
        <time>2015-07-03T07:26:06Z</time>
      </trkpt>
      <trkpt lat="42.03018" lon="9.16583">
        <ele>1460.177</ele>
        <time>2015-07-03T07:26:14Z</time>
      </trkpt>
      <trkpt lat="42.03014" lon="9.16562">
        <ele>1458.718</ele>
        <time>2015-07-03T07:26:30Z</time>
      </trkpt>
      <trkpt lat="42.03011" lon="9.1655">
        <ele>1456.999</ele>
        <time>2015-07-03T07:26:42Z</time>
      </trkpt>
      <trkpt lat="42.03004" lon="9.16537">
        <ele>1455.94</ele>
        <time>2015-07-03T07:26:55Z</time>
      </trkpt>
      <trkpt lat="42.02997" lon="9.16526">
        <ele>1454.476</ele>
        <time>2015-07-03T07:27:08Z</time>
      </trkpt>
      <trkpt lat="42.0299" lon="9.16509">
        <ele>1452.767</ele>
        <time>2015-07-03T07:27:23Z</time>
      </trkpt>
      <trkpt lat="42.02989" lon="9.16506">
        <ele>1452.176</ele>
        <time>2015-07-03T07:27:26Z</time>
      </trkpt>
      <trkpt lat="42.02982" lon="9.16488">
        <ele>1450.144</ele>
        <time>2015-07-03T07:27:42Z</time>
      </trkpt>
      <trkpt lat="42.02978" lon="9.16469">
        <ele>1447.465</ele>
        <time>2015-07-03T07:27:57Z</time>
      </trkpt>
      <trkpt lat="42.02971" lon="9.16444">
        <ele>1444.488</ele>
        <time>2015-07-03T07:28:16Z</time>
      </trkpt>
      <trkpt lat="42.02968" lon="9.16433">
        <ele>1443.098</ele>
        <time>2015-07-03T07:28:27Z</time>
      </trkpt>
      <trkpt lat="42.02966" lon="9.1643">
        <ele>1442.371</ele>
        <time>2015-07-03T07:28:30Z</time>
      </trkpt>
      <trkpt lat="42.02968" lon="9.1641">
        <ele>1439.496</ele>
        <time>2015-07-03T07:28:42Z</time>
      </trkpt>
      <trkpt lat="42.02965" lon="9.16388">
        <ele>1438.717</ele>
        <time>2015-07-03T07:28:56Z</time>
      </trkpt>
      <trkpt lat="42.02964" lon="9.16384">
        <ele>1438.228</ele>
        <time>2015-07-03T07:28:59Z</time>
      </trkpt>
      <trkpt lat="42.0297" lon="9.16367">
        <ele>1437.82</ele>
        <time>2015-07-03T07:29:13Z</time>
      </trkpt>
      <trkpt lat="42.02976" lon="9.16361">
        <ele>1437.4</ele>
        <time>2015-07-03T07:29:20Z</time>
      </trkpt>
      <trkpt lat="42.02976" lon="9.16358">
        <ele>1437.14</ele>
        <time>2015-07-03T07:29:24Z</time>
      </trkpt>
      <trkpt lat="42.02972" lon="9.16348">
        <ele>1436.573</ele>
        <time>2015-07-03T07:29:37Z</time>
      </trkpt>
      <trkpt lat="42.0297" lon="9.16346">
        <ele>1436.089</ele>
        <time>2015-07-03T07:29:40Z</time>
      </trkpt>
      <trkpt lat="42.02967" lon="9.16345">
        <ele>1436.333</ele>
        <time>2015-07-03T07:29:42Z</time>
      </trkpt>
      <trkpt lat="42.02956" lon="9.16334">
        <ele>1434.048</ele>
        <time>2015-07-03T07:29:59Z</time>
      </trkpt>
      <trkpt lat="42.02955" lon="9.16324">
        <ele>1433.276</ele>
        <time>2015-07-03T07:30:09Z</time>
      </trkpt>
      <trkpt lat="42.0295" lon="9.16315">
        <ele>1432.106</ele>
        <time>2015-07-03T07:30:22Z</time>
      </trkpt>
      <trkpt lat="42.02938" lon="9.16302">
        <ele>1431.417</ele>
        <time>2015-07-03T07:30:37Z</time>
      </trkpt>
      <trkpt lat="42.0293" lon="9.16283">
        <ele>1428.801</ele>
        <time>2015-07-03T07:30:54Z</time>
      </trkpt>
      <trkpt lat="42.02929" lon="9.16279">
        <ele>1428.67</ele>
        <time>2015-07-03T07:30:57Z</time>
      </trkpt>
      <trkpt lat="42.02922" lon="9.16256">
        <ele>1426.936</ele>
        <time>2015-07-03T07:31:15Z</time>
      </trkpt>
      <trkpt lat="42.02916" lon="9.16243">
        <ele>1424.811</ele>
        <time>2015-07-03T07:31:27Z</time>
      </trkpt>
      <trkpt lat="42.02909" lon="9.16225">
        <ele>1423.657</ele>
        <time>2015-07-03T07:31:44Z</time>
      </trkpt>
      <trkpt lat="42.02905" lon="9.1622">
        <ele>1422.321</ele>
        <time>2015-07-03T07:31:58Z</time>
      </trkpt>
      <trkpt lat="42.02899" lon="9.16216">
        <ele>1421.333</ele>
        <time>2015-07-03T07:32:26Z</time>
      </trkpt>
      <trkpt lat="42.02889" lon="9.16206">
        <ele>1418.859</ele>
        <time>2015-07-03T07:32:40Z</time>
      </trkpt>
      <trkpt lat="42.02881" lon="9.16198">
        <ele>1416.896</ele>
        <time>2015-07-03T07:32:53Z</time>
      </trkpt>
      <trkpt lat="42.02878" lon="9.16196">
        <ele>1415.977</ele>
        <time>2015-07-03T07:32:57Z</time>
      </trkpt>
      <trkpt lat="42.02867" lon="9.16187">
        <ele>1416.342</ele>
        <time>2015-07-03T07:33:13Z</time>
      </trkpt>
      <trkpt lat="42.02867" lon="9.16171">
        <ele>1417.245</ele>
        <time>2015-07-03T07:33:30Z</time>
      </trkpt>
      <trkpt lat="42.02862" lon="9.16156">
        <ele>1419.86</ele>
        <time>2015-07-03T07:33:49Z</time>
      </trkpt>
      <trkpt lat="42.02858" lon="9.16149">
        <ele>1420.475</ele>
        <time>2015-07-03T07:34:06Z</time>
      </trkpt>
      <trkpt lat="42.02856" lon="9.16137">
        <ele>1422.711</ele>
        <time>2015-07-03T07:34:23Z</time>
      </trkpt>
      <trkpt lat="42.02852" lon="9.16122">
        <ele>1424.611</ele>
        <time>2015-07-03T07:34:39Z</time>
      </trkpt>
      <trkpt lat="42.02846" lon="9.16111">
        <ele>1425.434</ele>
        <time>2015-07-03T07:34:54Z</time>
      </trkpt>
      <trkpt lat="42.02844" lon="9.16101">
        <ele>1426.678</ele>
        <time>2015-07-03T07:35:09Z</time>
      </trkpt>
      <trkpt lat="42.02846" lon="9.16094">
        <ele>1427.645</ele>
        <time>2015-07-03T07:35:22Z</time>
      </trkpt>
      <trkpt lat="42.02844" lon="9.16081">
        <ele>1428.567</ele>
        <time>2015-07-03T07:35:40Z</time>
      </trkpt>
      <trkpt lat="42.02843" lon="9.16077">
        <ele>1430.011</ele>
        <time>2015-07-03T07:35:53Z</time>
      </trkpt>
      <trkpt lat="42.02842" lon="9.16073">
        <ele>1431.249</ele>
        <time>2015-07-03T07:36:08Z</time>
      </trkpt>
      <trkpt lat="42.02834" lon="9.16064">
        <ele>1432.392</ele>
        <time>2015-07-03T07:36:24Z</time>
      </trkpt>
      <trkpt lat="42.0283" lon="9.16056">
        <ele>1432.557</ele>
        <time>2015-07-03T07:36:38Z</time>
      </trkpt>
      <trkpt lat="42.02827" lon="9.16046">
        <ele>1434.417</ele>
        <time>2015-07-03T07:36:53Z</time>
      </trkpt>
      <trkpt lat="42.02823" lon="9.1604">
        <ele>1435.309</ele>
        <time>2015-07-03T07:37:05Z</time>
      </trkpt>
      <trkpt lat="42.02821" lon="9.16034">
        <ele>1435.62</ele>
        <time>2015-07-03T07:37:17Z</time>
      </trkpt>
      <trkpt lat="42.02819" lon="9.16028">
        <ele>1436.619</ele>
        <time>2015-07-03T07:37:29Z</time>
      </trkpt>
      <trkpt lat="42.02818" lon="9.1602">
        <ele>1437.509</ele>
        <time>2015-07-03T07:37:43Z</time>
      </trkpt>
      <trkpt lat="42.02816" lon="9.16014">
        <ele>1438.423</ele>
        <time>2015-07-03T07:37:55Z</time>
      </trkpt>
      <trkpt lat="42.02815" lon="9.16006">
        <ele>1437.401</ele>
        <time>2015-07-03T07:38:08Z</time>
      </trkpt>
      <trkpt lat="42.02813" lon="9.15999">
        <ele>1438.17</ele>
        <time>2015-07-03T07:38:23Z</time>
      </trkpt>
      <trkpt lat="42.02812" lon="9.15994">
        <ele>1440.046</ele>
        <time>2015-07-03T07:38:37Z</time>
      </trkpt>
      <trkpt lat="42.02811" lon="9.15985">
        <ele>1440.95</ele>
        <time>2015-07-03T07:38:52Z</time>
      </trkpt>
      <trkpt lat="42.02812" lon="9.1598">
        <ele>1440.886</ele>
        <time>2015-07-03T07:39:04Z</time>
      </trkpt>
      <trkpt lat="42.0281" lon="9.15974">
        <ele>1440.698</ele>
        <time>2015-07-03T07:39:17Z</time>
      </trkpt>
      <trkpt lat="42.02804" lon="9.15966">
        <ele>1441.769</ele>
        <time>2015-07-03T07:39:30Z</time>
      </trkpt>
      <trkpt lat="42.02797" lon="9.15955">
        <ele>1443.308</ele>
        <time>2015-07-03T07:39:43Z</time>
      </trkpt>
      <trkpt lat="42.02788" lon="9.15951">
        <ele>1442.497</ele>
        <time>2015-07-03T07:39:56Z</time>
      </trkpt>
      <trkpt lat="42.02778" lon="9.15942">
        <ele>1441.239</ele>
        <time>2015-07-03T07:40:15Z</time>
      </trkpt>
      <trkpt lat="42.02767" lon="9.1594">
        <ele>1440.827</ele>
        <time>2015-07-03T07:40:31Z</time>
      </trkpt>
      <trkpt lat="42.02757" lon="9.15942">
        <ele>1440.379</ele>
        <time>2015-07-03T07:40:44Z</time>
      </trkpt>
      <trkpt lat="42.02748" lon="9.15946">
        <ele>1438.655</ele>
        <time>2015-07-03T07:40:58Z</time>
      </trkpt>
      <trkpt lat="42.02743" lon="9.15949">
        <ele>1437.371</ele>
        <time>2015-07-03T07:41:13Z</time>
      </trkpt>
      <trkpt lat="42.02732" lon="9.1595">
        <ele>1436.735</ele>
        <time>2015-07-03T07:41:26Z</time>
      </trkpt>
      <trkpt lat="42.02726" lon="9.15953">
        <ele>1435.077</ele>
        <time>2015-07-03T07:41:39Z</time>
      </trkpt>
      <trkpt lat="42.02719" lon="9.15956">
        <ele>1433.196</ele>
        <time>2015-07-03T07:41:52Z</time>
      </trkpt>
      <trkpt lat="42.02715" lon="9.15963">
        <ele>1432.1</ele>
        <time>2015-07-03T07:42:03Z</time>
      </trkpt>
      <trkpt lat="42.02708" lon="9.15968">
        <ele>1430.379</ele>
        <time>2015-07-03T07:42:18Z</time>
      </trkpt>
      <trkpt lat="42.02701" lon="9.15979">
        <ele>1428.973</ele>
        <time>2015-07-03T07:42:32Z</time>
      </trkpt>
      <trkpt lat="42.02696" lon="9.15982">
        <ele>1426.38</ele>
        <time>2015-07-03T07:42:49Z</time>
      </trkpt>
      <trkpt lat="42.02695" lon="9.15982">
        <ele>1425.846</ele>
        <time>2015-07-03T07:43:01Z</time>
      </trkpt>
      <trkpt lat="42.02691" lon="9.15978">
        <ele>1422.69</ele>
        <time>2015-07-03T07:43:17Z</time>
      </trkpt>
      <trkpt lat="42.02684" lon="9.15973">
        <ele>1421.221</ele>
        <time>2015-07-03T07:43:34Z</time>
      </trkpt>
      <trkpt lat="42.02677" lon="9.15985">
        <ele>1422.158</ele>
        <time>2015-07-03T07:43:53Z</time>
      </trkpt>
      <trkpt lat="42.02672" lon="9.15991">
        <ele>1422.546</ele>
        <time>2015-07-03T07:44:09Z</time>
      </trkpt>
      <trkpt lat="42.02662" lon="9.15992">
        <ele>1423.573</ele>
        <time>2015-07-03T07:44:24Z</time>
      </trkpt>
      <trkpt lat="42.02657" lon="9.15995">
        <ele>1424.889</ele>
        <time>2015-07-03T07:44:30Z</time>
      </trkpt>
      <trkpt lat="42.02649" lon="9.16006">
        <ele>1424.644</ele>
        <time>2015-07-03T07:44:44Z</time>
      </trkpt>
      <trkpt lat="42.02649" lon="9.16019">
        <ele>1423.59</ele>
        <time>2015-07-03T07:45:00Z</time>
      </trkpt>
      <trkpt lat="42.02656" lon="9.16035">
        <ele>1422.103</ele>
        <time>2015-07-03T07:45:20Z</time>
      </trkpt>
      <trkpt lat="42.02656" lon="9.16043">
        <ele>1420.706</ele>
        <time>2015-07-03T07:45:36Z</time>
      </trkpt>
      <trkpt lat="42.0266" lon="9.16053">
        <ele>1418.888</ele>
        <time>2015-07-03T07:46:07Z</time>
      </trkpt>
      <trkpt lat="42.02674" lon="9.16067">
        <ele>1416.559</ele>
        <time>2015-07-03T07:46:30Z</time>
      </trkpt>
      <trkpt lat="42.02673" lon="9.16077">
        <ele>1415.322</ele>
        <time>2015-07-03T07:46:45Z</time>
      </trkpt>
      <trkpt lat="42.02676" lon="9.16084">
        <ele>1414.754</ele>
        <time>2015-07-03T07:47:20Z</time>
      </trkpt>
      <trkpt lat="42.02683" lon="9.16086">
        <ele>1416.104</ele>
        <time>2015-07-03T07:47:49Z</time>
      </trkpt>
      <trkpt lat="42.02692" lon="9.16084">
        <ele>1416.297</ele>
        <time>2015-07-03T07:48:13Z</time>
      </trkpt>
      <trkpt lat="42.02691" lon="9.16092">
        <ele>1416.086</ele>
        <time>2015-07-03T07:48:33Z</time>
      </trkpt>
      <trkpt lat="42.02694" lon="9.16094">
        <ele>1415.477</ele>
        <time>2015-07-03T07:48:49Z</time>
      </trkpt>
      <trkpt lat="42.02701" lon="9.16101">
        <ele>1416.39</ele>
        <time>2015-07-03T07:49:03Z</time>
      </trkpt>
      <trkpt lat="42.02706" lon="9.16113">
        <ele>1416.823</ele>
        <time>2015-07-03T07:49:16Z</time>
      </trkpt>
      <trkpt lat="42.02712" lon="9.16123">
        <ele>1418.332</ele>
        <time>2015-07-03T07:49:30Z</time>
      </trkpt>
      <trkpt lat="42.02717" lon="9.16133">
        <ele>1417.318</ele>
        <time>2015-07-03T07:49:45Z</time>
      </trkpt>
      <trkpt lat="42.0272" lon="9.16143">
        <ele>1416.025</ele>
        <time>2015-07-03T07:49:58Z</time>
      </trkpt>
      <trkpt lat="42.02723" lon="9.16152">
        <ele>1413.158</ele>
        <time>2015-07-03T07:50:13Z</time>
      </trkpt>
      <trkpt lat="42.02725" lon="9.16158">
        <ele>1411.294</ele>
        <time>2015-07-03T07:50:25Z</time>
      </trkpt>
      <trkpt lat="42.02725" lon="9.16169">
        <ele>1410.492</ele>
        <time>2015-07-03T07:50:38Z</time>
      </trkpt>
      <trkpt lat="42.02727" lon="9.16186">
        <ele>1407.42</ele>
        <time>2015-07-03T07:50:54Z</time>
      </trkpt>
      <trkpt lat="42.0273" lon="9.16206">
        <ele>1406.826</ele>
        <time>2015-07-03T07:51:10Z</time>
      </trkpt>
      <trkpt lat="42.02735" lon="9.16218">
        <ele>1405.685</ele>
        <time>2015-07-03T07:51:19Z</time>
      </trkpt>
      <trkpt lat="42.02742" lon="9.16232">
        <ele>1404.296</ele>
        <time>2015-07-03T07:51:31Z</time>
      </trkpt>
      <trkpt lat="42.02742" lon="9.16236">
        <ele>1403.809</ele>
        <time>2015-07-03T07:51:33Z</time>
      </trkpt>
      <trkpt lat="42.02743" lon="9.16242">
        <ele>1403.692</ele>
        <time>2015-07-03T07:51:37Z</time>
      </trkpt>
      <trkpt lat="42.02741" lon="9.16248">
        <ele>1403.567</ele>
        <time>2015-07-03T07:51:42Z</time>
      </trkpt>
      <trkpt lat="42.02741" lon="9.16262">
        <ele>1402.826</ele>
        <time>2015-07-03T07:51:53Z</time>
      </trkpt>
      <trkpt lat="42.02742" lon="9.16288">
        <ele>1402.264</ele>
        <time>2015-07-03T07:52:07Z</time>
      </trkpt>
      <trkpt lat="42.02744" lon="9.16309">
        <ele>1402.421</ele>
        <time>2015-07-03T07:52:21Z</time>
      </trkpt>
      <trkpt lat="42.02746" lon="9.16323">
        <ele>1402.995</ele>
        <time>2015-07-03T07:52:33Z</time>
      </trkpt>
      <trkpt lat="42.02746" lon="9.16336">
        <ele>1403.625</ele>
        <time>2015-07-03T07:52:44Z</time>
      </trkpt>
      <trkpt lat="42.02742" lon="9.1635">
        <ele>1403.992</ele>
        <time>2015-07-03T07:52:56Z</time>
      </trkpt>
      <trkpt lat="42.02739" lon="9.16364">
        <ele>1404.834</ele>
        <time>2015-07-03T07:53:05Z</time>
      </trkpt>
      <trkpt lat="42.02727" lon="9.16376">
        <ele>1405.032</ele>
        <time>2015-07-03T07:53:21Z</time>
      </trkpt>
      <trkpt lat="42.02727" lon="9.16381">
        <ele>1405.705</ele>
        <time>2015-07-03T07:53:33Z</time>
      </trkpt>
      <trkpt lat="42.0272" lon="9.16388">
        <ele>1405.873</ele>
        <time>2015-07-03T07:53:55Z</time>
      </trkpt>
      <trkpt lat="42.02727" lon="9.164">
        <ele>1407.019</ele>
        <time>2015-07-03T07:54:14Z</time>
      </trkpt>
      <trkpt lat="42.02729" lon="9.16415">
        <ele>1408.354</ele>
        <time>2015-07-03T07:54:29Z</time>
      </trkpt>
      <trkpt lat="42.02728" lon="9.16431">
        <ele>1409.719</ele>
        <time>2015-07-03T07:54:43Z</time>
      </trkpt>
      <trkpt lat="42.02724" lon="9.16442">
        <ele>1411.039</ele>
        <time>2015-07-03T07:54:57Z</time>
      </trkpt>
      <trkpt lat="42.02722" lon="9.16453">
        <ele>1412.981</ele>
        <time>2015-07-03T07:55:10Z</time>
      </trkpt>
      <trkpt lat="42.02718" lon="9.16467">
        <ele>1415.091</ele>
        <time>2015-07-03T07:55:26Z</time>
      </trkpt>
      <trkpt lat="42.02716" lon="9.16477">
        <ele>1416.951</ele>
        <time>2015-07-03T07:55:39Z</time>
      </trkpt>
      <trkpt lat="42.02711" lon="9.16488">
        <ele>1416.557</ele>
        <time>2015-07-03T07:55:53Z</time>
      </trkpt>
      <trkpt lat="42.02712" lon="9.16504">
        <ele>1417.869</ele>
        <time>2015-07-03T07:56:07Z</time>
      </trkpt>
      <trkpt lat="42.02714" lon="9.16519">
        <ele>1418.846</ele>
        <time>2015-07-03T07:56:21Z</time>
      </trkpt>
      <trkpt lat="42.02717" lon="9.16534">
        <ele>1418.724</ele>
        <time>2015-07-03T07:56:35Z</time>
      </trkpt>
      <trkpt lat="42.02721" lon="9.16547">
        <ele>1418.782</ele>
        <time>2015-07-03T07:56:46Z</time>
      </trkpt>
      <trkpt lat="42.02722" lon="9.16566">
        <ele>1419.963</ele>
        <time>2015-07-03T07:57:04Z</time>
      </trkpt>
      <trkpt lat="42.02722" lon="9.16582">
        <ele>1419.393</ele>
        <time>2015-07-03T07:57:18Z</time>
      </trkpt>
      <trkpt lat="42.02727" lon="9.16597">
        <ele>1420.163</ele>
        <time>2015-07-03T07:57:32Z</time>
      </trkpt>
      <trkpt lat="42.02727" lon="9.16611">
        <ele>1420.85</ele>
        <time>2015-07-03T07:57:47Z</time>
      </trkpt>
      <trkpt lat="42.02728" lon="9.1663">
        <ele>1421.599</ele>
        <time>2015-07-03T07:58:02Z</time>
      </trkpt>
      <trkpt lat="42.02727" lon="9.16644">
        <ele>1422.825</ele>
        <time>2015-07-03T07:58:16Z</time>
      </trkpt>
      <trkpt lat="42.02727" lon="9.16658">
        <ele>1424.02</ele>
        <time>2015-07-03T07:58:32Z</time>
      </trkpt>
      <trkpt lat="42.02726" lon="9.16673">
        <ele>1425.292</ele>
        <time>2015-07-03T07:58:48Z</time>
      </trkpt>
      <trkpt lat="42.02728" lon="9.16683">
        <ele>1427.241</ele>
        <time>2015-07-03T07:59:01Z</time>
      </trkpt>
      <trkpt lat="42.02726" lon="9.16694">
        <ele>1429.049</ele>
        <time>2015-07-03T07:59:14Z</time>
      </trkpt>
      <trkpt lat="42.02726" lon="9.16708">
        <ele>1429.842</ele>
        <time>2015-07-03T07:59:28Z</time>
      </trkpt>
      <trkpt lat="42.02726" lon="9.16724">
        <ele>1430.768</ele>
        <time>2015-07-03T07:59:42Z</time>
      </trkpt>
      <trkpt lat="42.02728" lon="9.16741">
        <ele>1431.582</ele>
        <time>2015-07-03T07:59:57Z</time>
      </trkpt>
      <trkpt lat="42.02727" lon="9.16755">
        <ele>1432.695</ele>
        <time>2015-07-03T08:00:11Z</time>
      </trkpt>
      <trkpt lat="42.02725" lon="9.16771">
        <ele>1435.375</ele>
        <time>2015-07-03T08:00:29Z</time>
      </trkpt>
      <trkpt lat="42.02719" lon="9.16782">
        <ele>1436.953</ele>
        <time>2015-07-03T08:00:45Z</time>
      </trkpt>
      <trkpt lat="42.02712" lon="9.16795">
        <ele>1437.131</ele>
        <time>2015-07-03T08:01:01Z</time>
      </trkpt>
      <trkpt lat="42.02713" lon="9.16813">
        <ele>1437.757</ele>
        <time>2015-07-03T08:01:18Z</time>
      </trkpt>
      <trkpt lat="42.02717" lon="9.16829">
        <ele>1439.279</ele>
        <time>2015-07-03T08:01:31Z</time>
      </trkpt>
      <trkpt lat="42.02719" lon="9.16843">
        <ele>1440.338</ele>
        <time>2015-07-03T08:01:46Z</time>
      </trkpt>
      <trkpt lat="42.02719" lon="9.16861">
        <ele>1440.337</ele>
        <time>2015-07-03T08:02:01Z</time>
      </trkpt>
      <trkpt lat="42.02724" lon="9.1688">
        <ele>1441.212</ele>
        <time>2015-07-03T08:02:19Z</time>
      </trkpt>
      <trkpt lat="42.02723" lon="9.16898">
        <ele>1441.954</ele>
        <time>2015-07-03T08:02:34Z</time>
      </trkpt>
      <trkpt lat="42.0272" lon="9.16917">
        <ele>1441.972</ele>
        <time>2015-07-03T08:02:51Z</time>
      </trkpt>
      <trkpt lat="42.02716" lon="9.16935">
        <ele>1442.361</ele>
        <time>2015-07-03T08:03:05Z</time>
      </trkpt>
      <trkpt lat="42.02717" lon="9.16952">
        <ele>1442.772</ele>
        <time>2015-07-03T08:03:19Z</time>
      </trkpt>
      <trkpt lat="42.02718" lon="9.16968">
        <ele>1442.928</ele>
        <time>2015-07-03T08:03:33Z</time>
      </trkpt>
      <trkpt lat="42.0272" lon="9.16986">
        <ele>1442.93</ele>
        <time>2015-07-03T08:03:46Z</time>
      </trkpt>
      <trkpt lat="42.02723" lon="9.16999">
        <ele>1443.833</ele>
        <time>2015-07-03T08:03:57Z</time>
      </trkpt>
      <trkpt lat="42.02729" lon="9.17019">
        <ele>1444.554</ele>
        <time>2015-07-03T08:04:11Z</time>
      </trkpt>
      <trkpt lat="42.0273" lon="9.17025">
        <ele>1444.844</ele>
        <time>2015-07-03T08:04:15Z</time>
      </trkpt>
      <trkpt lat="42.02733" lon="9.17049">
        <ele>1445.518</ele>
        <time>2015-07-03T08:04:32Z</time>
      </trkpt>
      <trkpt lat="42.0273" lon="9.17068">
        <ele>1446.474</ele>
        <time>2015-07-03T08:04:47Z</time>
      </trkpt>
      <trkpt lat="42.02727" lon="9.17075">
        <ele>1446.312</ele>
        <time>2015-07-03T08:04:52Z</time>
      </trkpt>
      <trkpt lat="42.02718" lon="9.17091">
        <ele>1446.631</ele>
        <time>2015-07-03T08:05:08Z</time>
      </trkpt>
      <trkpt lat="42.02715" lon="9.17098">
        <ele>1446.795</ele>
        <time>2015-07-03T08:05:14Z</time>
      </trkpt>
      <trkpt lat="42.02714" lon="9.171">
        <ele>1446.772</ele>
        <time>2015-07-03T08:05:16Z</time>
      </trkpt>
      <trkpt lat="42.02708" lon="9.17115">
        <ele>1446.761</ele>
        <time>2015-07-03T08:05:29Z</time>
      </trkpt>
      <trkpt lat="42.02707" lon="9.17135">
        <ele>1446.036</ele>
        <time>2015-07-03T08:05:44Z</time>
      </trkpt>
      <trkpt lat="42.02714" lon="9.1716">
        <ele>1444.531</ele>
        <time>2015-07-03T08:06:00Z</time>
      </trkpt>
      <trkpt lat="42.02724" lon="9.17173">
        <ele>1443.897</ele>
        <time>2015-07-03T08:06:13Z</time>
      </trkpt>
      <trkpt lat="42.02725" lon="9.17181">
        <ele>1443.535</ele>
        <time>2015-07-03T08:06:19Z</time>
      </trkpt>
      <trkpt lat="42.02728" lon="9.172">
        <ele>1441.416</ele>
        <time>2015-07-03T08:06:35Z</time>
      </trkpt>
      <trkpt lat="42.02727" lon="9.17205">
        <ele>1441.449</ele>
        <time>2015-07-03T08:06:40Z</time>
      </trkpt>
      <trkpt lat="42.02729" lon="9.17225">
        <ele>1439.491</ele>
        <time>2015-07-03T08:06:55Z</time>
      </trkpt>
      <trkpt lat="42.02734" lon="9.17241">
        <ele>1439.111</ele>
        <time>2015-07-03T08:07:09Z</time>
      </trkpt>
      <trkpt lat="42.02737" lon="9.1726">
        <ele>1437.995</ele>
        <time>2015-07-03T08:07:24Z</time>
      </trkpt>
      <trkpt lat="42.02737" lon="9.17262">
        <ele>1437.806</ele>
        <time>2015-07-03T08:07:26Z</time>
      </trkpt>
      <trkpt lat="42.02741" lon="9.1728">
        <ele>1437.172</ele>
        <time>2015-07-03T08:07:39Z</time>
      </trkpt>
      <trkpt lat="42.02747" lon="9.17298">
        <ele>1434.974</ele>
        <time>2015-07-03T08:07:55Z</time>
      </trkpt>
      <trkpt lat="42.02744" lon="9.17312">
        <ele>1434.019</ele>
        <time>2015-07-03T08:08:08Z</time>
      </trkpt>
      <trkpt lat="42.02748" lon="9.17326">
        <ele>1432.33</ele>
        <time>2015-07-03T08:08:20Z</time>
      </trkpt>
      <trkpt lat="42.02752" lon="9.17345">
        <ele>1431.504</ele>
        <time>2015-07-03T08:08:32Z</time>
      </trkpt>
      <trkpt lat="42.02756" lon="9.17361">
        <ele>1429.036</ele>
        <time>2015-07-03T08:08:46Z</time>
      </trkpt>
      <trkpt lat="42.02757" lon="9.17364">
        <ele>1429.996</ele>
        <time>2015-07-03T08:08:48Z</time>
      </trkpt>
      <trkpt lat="42.02759" lon="9.1737">
        <ele>1428.963</ele>
        <time>2015-07-03T08:08:54Z</time>
      </trkpt>
      <trkpt lat="42.0276" lon="9.1738">
        <ele>1428.261</ele>
        <time>2015-07-03T08:09:05Z</time>
      </trkpt>
      <trkpt lat="42.02764" lon="9.17397">
        <ele>1427.389</ele>
        <time>2015-07-03T08:09:18Z</time>
      </trkpt>
      <trkpt lat="42.02763" lon="9.17399">
        <ele>1426.836</ele>
        <time>2015-07-03T08:09:21Z</time>
      </trkpt>
      <trkpt lat="42.02761" lon="9.17415">
        <ele>1424.85</ele>
        <time>2015-07-03T08:09:33Z</time>
      </trkpt>
      <trkpt lat="42.02762" lon="9.17428">
        <ele>1423.042</ele>
        <time>2015-07-03T08:09:45Z</time>
      </trkpt>
      <trkpt lat="42.02764" lon="9.17445">
        <ele>1422.621</ele>
        <time>2015-07-03T08:09:58Z</time>
      </trkpt>
      <trkpt lat="42.02762" lon="9.17456">
        <ele>1421.842</ele>
        <time>2015-07-03T08:10:09Z</time>
      </trkpt>
      <trkpt lat="42.02761" lon="9.17464">
        <ele>1421.369</ele>
        <time>2015-07-03T08:10:31Z</time>
      </trkpt>
      <trkpt lat="42.02758" lon="9.17477">
        <ele>1420.531</ele>
        <time>2015-07-03T08:10:41Z</time>
      </trkpt>
      <trkpt lat="42.02757" lon="9.17487">
        <ele>1418.828</ele>
        <time>2015-07-03T08:10:54Z</time>
      </trkpt>
      <trkpt lat="42.02756" lon="9.175">
        <ele>1417.017</ele>
        <time>2015-07-03T08:11:07Z</time>
      </trkpt>
      <trkpt lat="42.02755" lon="9.17507">
        <ele>1415.407</ele>
        <time>2015-07-03T08:11:18Z</time>
      </trkpt>
      <trkpt lat="42.02751" lon="9.17521">
        <ele>1413.767</ele>
        <time>2015-07-03T08:11:28Z</time>
      </trkpt>
      <trkpt lat="42.02748" lon="9.17538">
        <ele>1411.985</ele>
        <time>2015-07-03T08:11:44Z</time>
      </trkpt>
      <trkpt lat="42.02749" lon="9.1755">
        <ele>1410.454</ele>
        <time>2015-07-03T08:11:55Z</time>
      </trkpt>
      <trkpt lat="42.02747" lon="9.17567">
        <ele>1408.194</ele>
        <time>2015-07-03T08:12:08Z</time>
      </trkpt>
      <trkpt lat="42.02746" lon="9.17576">
        <ele>1406.598</ele>
        <time>2015-07-03T08:12:17Z</time>
      </trkpt>
      <trkpt lat="42.02746" lon="9.17598">
        <ele>1405.246</ele>
        <time>2015-07-03T08:12:31Z</time>
      </trkpt>
      <trkpt lat="42.02743" lon="9.17613">
        <ele>1403.852</ele>
        <time>2015-07-03T08:12:44Z</time>
      </trkpt>
      <trkpt lat="42.02739" lon="9.17627">
        <ele>1402.766</ele>
        <time>2015-07-03T08:12:56Z</time>
      </trkpt>
      <trkpt lat="42.02737" lon="9.17651">
        <ele>1402.621</ele>
        <time>2015-07-03T08:13:13Z</time>
      </trkpt>
      <trkpt lat="42.02737" lon="9.17664">
        <ele>1399.938</ele>
        <time>2015-07-03T08:13:27Z</time>
      </trkpt>
      <trkpt lat="42.02734" lon="9.17678">
        <ele>1398.381</ele>
        <time>2015-07-03T08:13:39Z</time>
      </trkpt>
      <trkpt lat="42.0273" lon="9.17697">
        <ele>1396.899</ele>
        <time>2015-07-03T08:13:54Z</time>
      </trkpt>
      <trkpt lat="42.02733" lon="9.17704">
        <ele>1395.96</ele>
        <time>2015-07-03T08:13:59Z</time>
      </trkpt>
      <trkpt lat="42.02731" lon="9.17717">
        <ele>1395.445</ele>
        <time>2015-07-03T08:14:07Z</time>
      </trkpt>
      <trkpt lat="42.0273" lon="9.1773">
        <ele>1394.804</ele>
        <time>2015-07-03T08:14:18Z</time>
      </trkpt>
      <trkpt lat="42.02726" lon="9.17754">
        <ele>1394.176</ele>
        <time>2015-07-03T08:14:33Z</time>
      </trkpt>
      <trkpt lat="42.02723" lon="9.17776">
        <ele>1393.31</ele>
        <time>2015-07-03T08:14:48Z</time>
      </trkpt>
      <trkpt lat="42.02722" lon="9.17779">
        <ele>1393.141</ele>
        <time>2015-07-03T08:14:50Z</time>
      </trkpt>
      <trkpt lat="42.02715" lon="9.17798">
        <ele>1390.845</ele>
        <time>2015-07-03T08:15:06Z</time>
      </trkpt>
      <trkpt lat="42.02713" lon="9.17815">
        <ele>1387.6</ele>
        <time>2015-07-03T08:15:20Z</time>
      </trkpt>
      <trkpt lat="42.02718" lon="9.17838">
        <ele>1385.789</ele>
        <time>2015-07-03T08:15:33Z</time>
      </trkpt>
      <trkpt lat="42.02719" lon="9.17857">
        <ele>1384.646</ele>
        <time>2015-07-03T08:15:46Z</time>
      </trkpt>
      <trkpt lat="42.0272" lon="9.17868">
        <ele>1384.138</ele>
        <time>2015-07-03T08:15:53Z</time>
      </trkpt>
      <trkpt lat="42.02724" lon="9.1788">
        <ele>1383.269</ele>
        <time>2015-07-03T08:16:00Z</time>
      </trkpt>
      <trkpt lat="42.02731" lon="9.17903">
        <ele>1382.337</ele>
        <time>2015-07-03T08:16:17Z</time>
      </trkpt>
      <trkpt lat="42.0273" lon="9.17919">
        <ele>1383.495</ele>
        <time>2015-07-03T08:16:31Z</time>
      </trkpt>
      <trkpt lat="42.02731" lon="9.17923">
        <ele>1383.091</ele>
        <time>2015-07-03T08:16:35Z</time>
      </trkpt>
      <trkpt lat="42.02742" lon="9.17944">
        <ele>1384.196</ele>
        <time>2015-07-03T08:16:50Z</time>
      </trkpt>
      <trkpt lat="42.02744" lon="9.17948">
        <ele>1384.765</ele>
        <time>2015-07-03T08:16:52Z</time>
      </trkpt>
      <trkpt lat="42.02751" lon="9.17967">
        <ele>1383.901</ele>
        <time>2015-07-03T08:17:07Z</time>
      </trkpt>
      <trkpt lat="42.02749" lon="9.17977">
        <ele>1382.466</ele>
        <time>2015-07-03T08:17:16Z</time>
      </trkpt>
      <trkpt lat="42.02743" lon="9.17996">
        <ele>1379.919</ele>
        <time>2015-07-03T08:17:32Z</time>
      </trkpt>
      <trkpt lat="42.02739" lon="9.18006">
        <ele>1378.452</ele>
        <time>2015-07-03T08:17:40Z</time>
      </trkpt>
      <trkpt lat="42.02732" lon="9.18021">
        <ele>1375.915</ele>
        <time>2015-07-03T08:17:56Z</time>
      </trkpt>
      <trkpt lat="42.02735" lon="9.18035">
        <ele>1373.354</ele>
        <time>2015-07-03T08:18:11Z</time>
      </trkpt>
      <trkpt lat="42.0273" lon="9.18045">
        <ele>1372.195</ele>
        <time>2015-07-03T08:18:24Z</time>
      </trkpt>
      <trkpt lat="42.02726" lon="9.18067">
        <ele>1370.453</ele>
        <time>2015-07-03T08:18:40Z</time>
      </trkpt>
      <trkpt lat="42.02733" lon="9.18074">
        <ele>1368.042</ele>
        <time>2015-07-03T08:18:52Z</time>
      </trkpt>
      <trkpt lat="42.02735" lon="9.18083">
        <ele>1366.758</ele>
        <time>2015-07-03T08:19:12Z</time>
      </trkpt>
      <trkpt lat="42.02732" lon="9.18095">
        <ele>1366.224</ele>
        <time>2015-07-03T08:19:24Z</time>
      </trkpt>
      <trkpt lat="42.02736" lon="9.18117">
        <ele>1366.206</ele>
        <time>2015-07-03T08:19:38Z</time>
      </trkpt>
      <trkpt lat="42.02736" lon="9.1812">
        <ele>1365.619</ele>
        <time>2015-07-03T08:19:40Z</time>
      </trkpt>
      <trkpt lat="42.02739" lon="9.18142">
        <ele>1366.159</ele>
        <time>2015-07-03T08:19:53Z</time>
      </trkpt>
      <trkpt lat="42.02735" lon="9.18153">
        <ele>1364.79</ele>
        <time>2015-07-03T08:20:04Z</time>
      </trkpt>
      <trkpt lat="42.02735" lon="9.18169">
        <ele>1363.663</ele>
        <time>2015-07-03T08:20:16Z</time>
      </trkpt>
      <trkpt lat="42.02735" lon="9.18181">
        <ele>1360.811</ele>
        <time>2015-07-03T08:20:27Z</time>
      </trkpt>
      <trkpt lat="42.02733" lon="9.18196">
        <ele>1359.022</ele>
        <time>2015-07-03T08:20:40Z</time>
      </trkpt>
      <trkpt lat="42.02727" lon="9.18213">
        <ele>1355.644</ele>
        <time>2015-07-03T08:20:53Z</time>
      </trkpt>
      <trkpt lat="42.02722" lon="9.1823">
        <ele>1353.255</ele>
        <time>2015-07-03T08:21:09Z</time>
      </trkpt>
      <trkpt lat="42.02719" lon="9.18243">
        <ele>1351.805</ele>
        <time>2015-07-03T08:21:20Z</time>
      </trkpt>
      <trkpt lat="42.02717" lon="9.18257">
        <ele>1348.572</ele>
        <time>2015-07-03T08:21:32Z</time>
      </trkpt>
      <trkpt lat="42.02714" lon="9.18271">
        <ele>1346.768</ele>
        <time>2015-07-03T08:21:44Z</time>
      </trkpt>
      <trkpt lat="42.02711" lon="9.18283">
        <ele>1346.478</ele>
        <time>2015-07-03T08:21:52Z</time>
      </trkpt>
      <trkpt lat="42.02711" lon="9.18294">
        <ele>1346.109</ele>
        <time>2015-07-03T08:21:56Z</time>
      </trkpt>
      <trkpt lat="42.02712" lon="9.18301">
        <ele>1345.342</ele>
        <time>2015-07-03T08:22:00Z</time>
      </trkpt>
      <trkpt lat="42.0271" lon="9.18318">
        <ele>1343.65</ele>
        <time>2015-07-03T08:22:14Z</time>
      </trkpt>
      <trkpt lat="42.02707" lon="9.18329">
        <ele>1341.461</ele>
        <time>2015-07-03T08:22:24Z</time>
      </trkpt>
      <trkpt lat="42.02706" lon="9.18333">
        <ele>1340.829</ele>
        <time>2015-07-03T08:22:26Z</time>
      </trkpt>
      <trkpt lat="42.02703" lon="9.18354">
        <ele>1338.376</ele>
        <time>2015-07-03T08:22:40Z</time>
      </trkpt>
      <trkpt lat="42.02703" lon="9.18372">
        <ele>1336.639</ele>
        <time>2015-07-03T08:22:52Z</time>
      </trkpt>
      <trkpt lat="42.02703" lon="9.1838">
        <ele>1335.908</ele>
        <time>2015-07-03T08:22:56Z</time>
      </trkpt>
      <trkpt lat="42.02702" lon="9.18391">
        <ele>1334.687</ele>
        <time>2015-07-03T08:23:03Z</time>
      </trkpt>
      <trkpt lat="42.02702" lon="9.18404">
        <ele>1332.567</ele>
        <time>2015-07-03T08:23:13Z</time>
      </trkpt>
      <trkpt lat="42.02706" lon="9.18414">
        <ele>1331.026</ele>
        <time>2015-07-03T08:23:22Z</time>
      </trkpt>
      <trkpt lat="42.02708" lon="9.18435">
        <ele>1330.306</ele>
        <time>2015-07-03T08:23:35Z</time>
      </trkpt>
      <trkpt lat="42.02711" lon="9.1845">
        <ele>1329.723</ele>
        <time>2015-07-03T08:23:46Z</time>
      </trkpt>
      <trkpt lat="42.02717" lon="9.18468">
        <ele>1327.797</ele>
        <time>2015-07-03T08:24:00Z</time>
      </trkpt>
      <trkpt lat="42.0272" lon="9.18491">
        <ele>1325.673</ele>
        <time>2015-07-03T08:24:14Z</time>
      </trkpt>
      <trkpt lat="42.02723" lon="9.18504">
        <ele>1324.43</ele>
        <time>2015-07-03T08:24:25Z</time>
      </trkpt>
      <trkpt lat="42.02726" lon="9.1852">
        <ele>1321.65</ele>
        <time>2015-07-03T08:24:36Z</time>
      </trkpt>
      <trkpt lat="42.02728" lon="9.18523">
        <ele>1322.103</ele>
        <time>2015-07-03T08:24:38Z</time>
      </trkpt>
      <trkpt lat="42.0273" lon="9.18527">
        <ele>1321.818</ele>
        <time>2015-07-03T08:24:40Z</time>
      </trkpt>
      <trkpt lat="42.02731" lon="9.18534">
        <ele>1321.7</ele>
        <time>2015-07-03T08:24:43Z</time>
      </trkpt>
      <trkpt lat="42.02738" lon="9.18556">
        <ele>1320.886</ele>
        <time>2015-07-03T08:24:57Z</time>
      </trkpt>
      <trkpt lat="42.02748" lon="9.18573">
        <ele>1318.63</ele>
        <time>2015-07-03T08:25:12Z</time>
      </trkpt>
      <trkpt lat="42.02754" lon="9.1859">
        <ele>1315.597</ele>
        <time>2015-07-03T08:25:28Z</time>
      </trkpt>
      <trkpt lat="42.02754" lon="9.18592">
        <ele>1315.214</ele>
        <time>2015-07-03T08:25:29Z</time>
      </trkpt>
      <trkpt lat="42.02753" lon="9.18599">
        <ele>1314.97</ele>
        <time>2015-07-03T08:25:33Z</time>
      </trkpt>
      <trkpt lat="42.02753" lon="9.18608">
        <ele>1314.631</ele>
        <time>2015-07-03T08:25:40Z</time>
      </trkpt>
      <trkpt lat="42.02762" lon="9.18621">
        <ele>1313.44</ele>
        <time>2015-07-03T08:25:52Z</time>
      </trkpt>
      <trkpt lat="42.02767" lon="9.18629">
        <ele>1311.142</ele>
        <time>2015-07-03T08:26:01Z</time>
      </trkpt>
      <trkpt lat="42.02768" lon="9.18636">
        <ele>1309.769</ele>
        <time>2015-07-03T08:26:07Z</time>
      </trkpt>
      <trkpt lat="42.02769" lon="9.18641">
        <ele>1308.508</ele>
        <time>2015-07-03T08:26:10Z</time>
      </trkpt>
      <trkpt lat="42.02774" lon="9.18664">
        <ele>1306.872</ele>
        <time>2015-07-03T08:26:25Z</time>
      </trkpt>
      <trkpt lat="42.02781" lon="9.18675">
        <ele>1304.692</ele>
        <time>2015-07-03T08:26:35Z</time>
      </trkpt>
      <trkpt lat="42.02787" lon="9.1868">
        <ele>1304.543</ele>
        <time>2015-07-03T08:26:40Z</time>
      </trkpt>
      <trkpt lat="42.02794" lon="9.18703">
        <ele>1303.221</ele>
        <time>2015-07-03T08:26:56Z</time>
      </trkpt>
      <trkpt lat="42.02796" lon="9.18708">
        <ele>1302.591</ele>
        <time>2015-07-03T08:26:59Z</time>
      </trkpt>
      <trkpt lat="42.02798" lon="9.18722">
        <ele>1301.895</ele>
        <time>2015-07-03T08:27:09Z</time>
      </trkpt>
      <trkpt lat="42.028" lon="9.18725">
        <ele>1302.295</ele>
        <time>2015-07-03T08:27:12Z</time>
      </trkpt>
      <trkpt lat="42.02808" lon="9.18747">
        <ele>1301.659</ele>
        <time>2015-07-03T08:27:28Z</time>
      </trkpt>
      <trkpt lat="42.02814" lon="9.18768">
        <ele>1300.048</ele>
        <time>2015-07-03T08:27:44Z</time>
      </trkpt>
      <trkpt lat="42.02816" lon="9.18784">
        <ele>1297.841</ele>
        <time>2015-07-03T08:27:57Z</time>
      </trkpt>
      <trkpt lat="42.02816" lon="9.18788">
        <ele>1297.575</ele>
        <time>2015-07-03T08:28:02Z</time>
      </trkpt>
      <trkpt lat="42.02823" lon="9.18803">
        <ele>1295.465</ele>
        <time>2015-07-03T08:28:13Z</time>
      </trkpt>
      <trkpt lat="42.02827" lon="9.18811">
        <ele>1293.903</ele>
        <time>2015-07-03T08:28:19Z</time>
      </trkpt>
      <trkpt lat="42.02837" lon="9.18831">
        <ele>1292.959</ele>
        <time>2015-07-03T08:28:32Z</time>
      </trkpt>
      <trkpt lat="42.02841" lon="9.18847">
        <ele>1292.676</ele>
        <time>2015-07-03T08:28:45Z</time>
      </trkpt>
      <trkpt lat="42.02843" lon="9.18872">
        <ele>1292.002</ele>
        <time>2015-07-03T08:28:58Z</time>
      </trkpt>
      <trkpt lat="42.02844" lon="9.18876">
        <ele>1291.609</ele>
        <time>2015-07-03T08:29:00Z</time>
      </trkpt>
      <trkpt lat="42.02848" lon="9.18896">
        <ele>1290.285</ele>
        <time>2015-07-03T08:29:12Z</time>
      </trkpt>
      <trkpt lat="42.02846" lon="9.18898">
        <ele>1289.27</ele>
        <time>2015-07-03T08:29:16Z</time>
      </trkpt>
      <trkpt lat="42.02849" lon="9.18912">
        <ele>1288.594</ele>
        <time>2015-07-03T08:29:31Z</time>
      </trkpt>
      <trkpt lat="42.02857" lon="9.18923">
        <ele>1288.076</ele>
        <time>2015-07-03T08:29:40Z</time>
      </trkpt>
      <trkpt lat="42.02862" lon="9.18932">
        <ele>1287.502</ele>
        <time>2015-07-03T08:29:46Z</time>
      </trkpt>
      <trkpt lat="42.02867" lon="9.18951">
        <ele>1287.467</ele>
        <time>2015-07-03T08:29:58Z</time>
      </trkpt>
      <trkpt lat="42.02868" lon="9.18954">
        <ele>1287.055</ele>
        <time>2015-07-03T08:30:00Z</time>
      </trkpt>
      <trkpt lat="42.02877" lon="9.18978">
        <ele>1286.476</ele>
        <time>2015-07-03T08:30:17Z</time>
      </trkpt>
      <trkpt lat="42.02881" lon="9.19001">
        <ele>1286.071</ele>
        <time>2015-07-03T08:30:30Z</time>
      </trkpt>
      <trkpt lat="42.02886" lon="9.19025">
        <ele>1285.165</ele>
        <time>2015-07-03T08:30:45Z</time>
      </trkpt>
      <trkpt lat="42.02894" lon="9.19041">
        <ele>1283.894</ele>
        <time>2015-07-03T08:31:00Z</time>
      </trkpt>
      <trkpt lat="42.02894" lon="9.19052">
        <ele>1283.613</ele>
        <time>2015-07-03T08:31:19Z</time>
      </trkpt>
      <trkpt lat="42.02906" lon="9.19067">
        <ele>1284.032</ele>
        <time>2015-07-03T08:31:38Z</time>
      </trkpt>
      <trkpt lat="42.02909" lon="9.19072">
        <ele>1283.623</ele>
        <time>2015-07-03T08:31:55Z</time>
      </trkpt>
      <trkpt lat="42.029" lon="9.19081">
        <ele>1283.202</ele>
        <time>2015-07-03T08:32:32Z</time>
      </trkpt>
      <trkpt lat="42.0291" lon="9.19079">
        <ele>1285.351</ele>
        <time>2015-07-03T08:33:13Z</time>
      </trkpt>
      <trkpt lat="42.02913" lon="9.19072">
        <ele>1286.734</ele>
        <time>2015-07-03T08:34:58Z</time>
      </trkpt>
      <trkpt lat="42.02903" lon="9.19067">
        <ele>1284.326</ele>
        <time>2015-07-03T08:35:56Z</time>
      </trkpt>
      <trkpt lat="42.02908" lon="9.19064">
        <ele>1281.311</ele>
        <time>2015-07-03T08:36:44Z</time>
      </trkpt>
      <trkpt lat="42.02912" lon="9.19066">
        <ele>1279.58</ele>
        <time>2015-07-03T08:37:53Z</time>
      </trkpt>
      <trkpt lat="42.02931" lon="9.19054">
        <ele>1277.354</ele>
        <time>2015-07-03T08:39:37Z</time>
      </trkpt>
      <trkpt lat="42.02923" lon="9.19063">
        <ele>1277.536</ele>
        <time>2015-07-03T08:40:26Z</time>
      </trkpt>
      <trkpt lat="42.02911" lon="9.19071">
        <ele>1277.659</ele>
        <time>2015-07-03T08:42:01Z</time>
      </trkpt>
      <trkpt lat="42.02912" lon="9.1907">
        <ele>1278.483</ele>
        <time>2015-07-03T08:42:52Z</time>
      </trkpt>
      <trkpt lat="42.02905" lon="9.19068">
        <ele>1278.296</ele>
        <time>2015-07-03T08:43:35Z</time>
      </trkpt>
      <trkpt lat="42.02906" lon="9.19078">
        <ele>1278.166</ele>
        <time>2015-07-03T08:43:54Z</time>
      </trkpt>
      <trkpt lat="42.02911" lon="9.19086">
        <ele>1279.72</ele>
        <time>2015-07-03T08:44:08Z</time>
      </trkpt>
      <trkpt lat="42.02909" lon="9.19089">
        <ele>1279.542</ele>
        <time>2015-07-03T08:44:22Z</time>
      </trkpt>
      <trkpt lat="42.02907" lon="9.19106">
        <ele>1280.192</ele>
        <time>2015-07-03T08:44:34Z</time>
      </trkpt>
      <trkpt lat="42.02904" lon="9.19119">
        <ele>1280.453</ele>
        <time>2015-07-03T08:44:44Z</time>
      </trkpt>
      <trkpt lat="42.02901" lon="9.19144">
        <ele>1281.927</ele>
        <time>2015-07-03T08:45:00Z</time>
      </trkpt>
      <trkpt lat="42.02899" lon="9.19161">
        <ele>1282.549</ele>
        <time>2015-07-03T08:45:14Z</time>
      </trkpt>
      <trkpt lat="42.029" lon="9.1919">
        <ele>1282.851</ele>
        <time>2015-07-03T08:45:30Z</time>
      </trkpt>
      <trkpt lat="42.02893" lon="9.19205">
        <ele>1283.454</ele>
        <time>2015-07-03T08:45:44Z</time>
      </trkpt>
      <trkpt lat="42.02888" lon="9.19219">
        <ele>1283.412</ele>
        <time>2015-07-03T08:45:54Z</time>
      </trkpt>
      <trkpt lat="42.02887" lon="9.19223">
        <ele>1282.727</ele>
        <time>2015-07-03T08:45:56Z</time>
      </trkpt>
      <trkpt lat="42.02883" lon="9.19247">
        <ele>1284.436</ele>
        <time>2015-07-03T08:46:13Z</time>
      </trkpt>
      <trkpt lat="42.02873" lon="9.19264">
        <ele>1285.066</ele>
        <time>2015-07-03T08:46:30Z</time>
      </trkpt>
      <trkpt lat="42.02873" lon="9.19269">
        <ele>1285.377</ele>
        <time>2015-07-03T08:46:32Z</time>
      </trkpt>
      <trkpt lat="42.02867" lon="9.19283">
        <ele>1286.421</ele>
        <time>2015-07-03T08:46:43Z</time>
      </trkpt>
      <trkpt lat="42.02859" lon="9.19311">
        <ele>1288.032</ele>
        <time>2015-07-03T08:47:00Z</time>
      </trkpt>
      <trkpt lat="42.02848" lon="9.19321">
        <ele>1290.03</ele>
        <time>2015-07-03T08:47:17Z</time>
      </trkpt>
      <trkpt lat="42.02845" lon="9.1934">
        <ele>1291.613</ele>
        <time>2015-07-03T08:47:33Z</time>
      </trkpt>
      <trkpt lat="42.02836" lon="9.19357">
        <ele>1292.416</ele>
        <time>2015-07-03T08:47:51Z</time>
      </trkpt>
      <trkpt lat="42.02821" lon="9.1937">
        <ele>1293.424</ele>
        <time>2015-07-03T08:48:09Z</time>
      </trkpt>
      <trkpt lat="42.02812" lon="9.19391">
        <ele>1294.735</ele>
        <time>2015-07-03T08:48:26Z</time>
      </trkpt>
      <trkpt lat="42.0281" lon="9.19401">
        <ele>1295.187</ele>
        <time>2015-07-03T08:48:39Z</time>
      </trkpt>
      <trkpt lat="42.02807" lon="9.19414">
        <ele>1296.121</ele>
        <time>2015-07-03T08:48:53Z</time>
      </trkpt>
      <trkpt lat="42.02805" lon="9.19427">
        <ele>1296.565</ele>
        <time>2015-07-03T08:49:04Z</time>
      </trkpt>
      <trkpt lat="42.02803" lon="9.19449">
        <ele>1296.751</ele>
        <time>2015-07-03T08:49:21Z</time>
      </trkpt>
      <trkpt lat="42.02811" lon="9.1947">
        <ele>1298.396</ele>
        <time>2015-07-03T08:49:37Z</time>
      </trkpt>
      <trkpt lat="42.02822" lon="9.19481">
        <ele>1299.3</ele>
        <time>2015-07-03T08:49:49Z</time>
      </trkpt>
      <trkpt lat="42.0282" lon="9.19494">
        <ele>1300.593</ele>
        <time>2015-07-03T08:50:05Z</time>
      </trkpt>
      <trkpt lat="42.02814" lon="9.195">
        <ele>1301.577</ele>
        <time>2015-07-03T08:50:18Z</time>
      </trkpt>
      <trkpt lat="42.02809" lon="9.19502">
        <ele>1301.408</ele>
        <time>2015-07-03T08:50:26Z</time>
      </trkpt>
      <trkpt lat="42.02798" lon="9.1951">
        <ele>1303.036</ele>
        <time>2015-07-03T08:50:41Z</time>
      </trkpt>
      <trkpt lat="42.02789" lon="9.19513">
        <ele>1305.029</ele>
        <time>2015-07-03T08:50:56Z</time>
      </trkpt>
      <trkpt lat="42.02784" lon="9.19514">
        <ele>1305.927</ele>
        <time>2015-07-03T08:51:02Z</time>
      </trkpt>
      <trkpt lat="42.02775" lon="9.19524">
        <ele>1306.693</ele>
        <time>2015-07-03T08:51:13Z</time>
      </trkpt>
      <trkpt lat="42.02768" lon="9.19532">
        <ele>1306.958</ele>
        <time>2015-07-03T08:51:26Z</time>
      </trkpt>
      <trkpt lat="42.02758" lon="9.1954">
        <ele>1309.543</ele>
        <time>2015-07-03T08:51:39Z</time>
      </trkpt>
      <trkpt lat="42.02751" lon="9.19552">
        <ele>1310.629</ele>
        <time>2015-07-03T08:51:53Z</time>
      </trkpt>
      <trkpt lat="42.02742" lon="9.19562">
        <ele>1313.109</ele>
        <time>2015-07-03T08:52:08Z</time>
      </trkpt>
      <trkpt lat="42.02736" lon="9.19561">
        <ele>1314.084</ele>
        <time>2015-07-03T08:52:22Z</time>
      </trkpt>
      <trkpt lat="42.0272" lon="9.19568">
        <ele>1314.722</ele>
        <time>2015-07-03T08:52:40Z</time>
      </trkpt>
      <trkpt lat="42.02712" lon="9.19576">
        <ele>1315.817</ele>
        <time>2015-07-03T08:52:53Z</time>
      </trkpt>
      <trkpt lat="42.02705" lon="9.19588">
        <ele>1318.301</ele>
        <time>2015-07-03T08:53:06Z</time>
      </trkpt>
      <trkpt lat="42.02696" lon="9.19599">
        <ele>1319.188</ele>
        <time>2015-07-03T08:53:21Z</time>
      </trkpt>
      <trkpt lat="42.0269" lon="9.19606">
        <ele>1321.073</ele>
        <time>2015-07-03T08:53:35Z</time>
      </trkpt>
      <trkpt lat="42.02678" lon="9.19607">
        <ele>1321.615</ele>
        <time>2015-07-03T08:53:48Z</time>
      </trkpt>
      <trkpt lat="42.02669" lon="9.19609">
        <ele>1323.32</ele>
        <time>2015-07-03T08:54:02Z</time>
      </trkpt>
      <trkpt lat="42.02661" lon="9.19616">
        <ele>1324.57</ele>
        <time>2015-07-03T08:54:14Z</time>
      </trkpt>
      <trkpt lat="42.02656" lon="9.19627">
        <ele>1325.737</ele>
        <time>2015-07-03T08:54:26Z</time>
      </trkpt>
      <trkpt lat="42.02648" lon="9.1964">
        <ele>1327.174</ele>
        <time>2015-07-03T08:54:40Z</time>
      </trkpt>
      <trkpt lat="42.02638" lon="9.1965">
        <ele>1328.887</ele>
        <time>2015-07-03T08:54:55Z</time>
      </trkpt>
      <trkpt lat="42.02634" lon="9.19659">
        <ele>1328.707</ele>
        <time>2015-07-03T08:55:10Z</time>
      </trkpt>
      <trkpt lat="42.02628" lon="9.19669">
        <ele>1330.442</ele>
        <time>2015-07-03T08:55:23Z</time>
      </trkpt>
      <trkpt lat="42.02619" lon="9.19687">
        <ele>1331.531</ele>
        <time>2015-07-03T08:55:37Z</time>
      </trkpt>
      <trkpt lat="42.02613" lon="9.19707">
        <ele>1333.188</ele>
        <time>2015-07-03T08:55:56Z</time>
      </trkpt>
      <trkpt lat="42.02602" lon="9.1972">
        <ele>1333.63</ele>
        <time>2015-07-03T08:56:15Z</time>
      </trkpt>
      <trkpt lat="42.02583" lon="9.19724">
        <ele>1334.422</ele>
        <time>2015-07-03T08:56:32Z</time>
      </trkpt>
      <trkpt lat="42.02569" lon="9.19728">
        <ele>1335.68</ele>
        <time>2015-07-03T08:56:48Z</time>
      </trkpt>
      <trkpt lat="42.02561" lon="9.1973">
        <ele>1336.014</ele>
        <time>2015-07-03T08:57:01Z</time>
      </trkpt>
      <trkpt lat="42.02557" lon="9.19733">
        <ele>1336.203</ele>
        <time>2015-07-03T08:57:06Z</time>
      </trkpt>
      <trkpt lat="42.02547" lon="9.19739">
        <ele>1336.262</ele>
        <time>2015-07-03T08:57:19Z</time>
      </trkpt>
      <trkpt lat="42.02534" lon="9.19749">
        <ele>1337.802</ele>
        <time>2015-07-03T08:57:33Z</time>
      </trkpt>
      <trkpt lat="42.0252" lon="9.19755">
        <ele>1337.547</ele>
        <time>2015-07-03T08:57:47Z</time>
      </trkpt>
      <trkpt lat="42.02504" lon="9.1976">
        <ele>1338.639</ele>
        <time>2015-07-03T08:58:01Z</time>
      </trkpt>
      <trkpt lat="42.02491" lon="9.19767">
        <ele>1339.688</ele>
        <time>2015-07-03T08:58:17Z</time>
      </trkpt>
      <trkpt lat="42.02477" lon="9.19772">
        <ele>1340.881</ele>
        <time>2015-07-03T08:58:33Z</time>
      </trkpt>
      <trkpt lat="42.02468" lon="9.19774">
        <ele>1341.495</ele>
        <time>2015-07-03T08:58:47Z</time>
      </trkpt>
      <trkpt lat="42.02454" lon="9.19778">
        <ele>1342.277</ele>
        <time>2015-07-03T08:59:04Z</time>
      </trkpt>
      <trkpt lat="42.02437" lon="9.19784">
        <ele>1344.241</ele>
        <time>2015-07-03T08:59:20Z</time>
      </trkpt>
      <trkpt lat="42.02435" lon="9.19794">
        <ele>1347.089</ele>
        <time>2015-07-03T08:59:38Z</time>
      </trkpt>
      <trkpt lat="42.02427" lon="9.19794">
        <ele>1349.502</ele>
        <time>2015-07-03T08:59:54Z</time>
      </trkpt>
      <trkpt lat="42.02421" lon="9.19809">
        <ele>1350.942</ele>
        <time>2015-07-03T09:00:11Z</time>
      </trkpt>
      <trkpt lat="42.02418" lon="9.19815">
        <ele>1351.99</ele>
        <time>2015-07-03T09:00:23Z</time>
      </trkpt>
      <trkpt lat="42.02413" lon="9.19824">
        <ele>1352.573</ele>
        <time>2015-07-03T09:00:37Z</time>
      </trkpt>
      <trkpt lat="42.02411" lon="9.1983">
        <ele>1354.139</ele>
        <time>2015-07-03T09:00:52Z</time>
      </trkpt>
      <trkpt lat="42.02411" lon="9.19838">
        <ele>1355.509</ele>
        <time>2015-07-03T09:01:08Z</time>
      </trkpt>
      <trkpt lat="42.02406" lon="9.19847">
        <ele>1357.064</ele>
        <time>2015-07-03T09:01:21Z</time>
      </trkpt>
      <trkpt lat="42.02403" lon="9.19854">
        <ele>1358.497</ele>
        <time>2015-07-03T09:01:37Z</time>
      </trkpt>
      <trkpt lat="42.02402" lon="9.19865">
        <ele>1360.621</ele>
        <time>2015-07-03T09:01:56Z</time>
      </trkpt>
      <trkpt lat="42.02406" lon="9.19877">
        <ele>1363.376</ele>
        <time>2015-07-03T09:02:13Z</time>
      </trkpt>
      <trkpt lat="42.02408" lon="9.19892">
        <ele>1364.804</ele>
        <time>2015-07-03T09:02:29Z</time>
      </trkpt>
      <trkpt lat="42.02412" lon="9.19907">
        <ele>1366.731</ele>
        <time>2015-07-03T09:02:46Z</time>
      </trkpt>
      <trkpt lat="42.02412" lon="9.19906">
        <ele>1370.244</ele>
        <time>2015-07-03T09:03:04Z</time>
      </trkpt>
      <trkpt lat="42.02408" lon="9.19906">
        <ele>1370.5</ele>
        <time>2015-07-03T09:03:38Z</time>
      </trkpt>
      <trkpt lat="42.02418" lon="9.19911">
        <ele>1372.115</ele>
        <time>2015-07-03T09:04:05Z</time>
      </trkpt>
      <trkpt lat="42.02429" lon="9.19919">
        <ele>1373.757</ele>
        <time>2015-07-03T09:04:20Z</time>
      </trkpt>
      <trkpt lat="42.02435" lon="9.19922">
        <ele>1375.139</ele>
        <time>2015-07-03T09:04:36Z</time>
      </trkpt>
      <trkpt lat="42.02443" lon="9.19921">
        <ele>1375.573</ele>
        <time>2015-07-03T09:04:50Z</time>
      </trkpt>
      <trkpt lat="42.02445" lon="9.19923">
        <ele>1377.459</ele>
        <time>2015-07-03T09:05:07Z</time>
      </trkpt>
      <trkpt lat="42.02449" lon="9.19926">
        <ele>1380.892</ele>
        <time>2015-07-03T09:05:19Z</time>
      </trkpt>
      <trkpt lat="42.02451" lon="9.19922">
        <ele>1380.72</ele>
        <time>2015-07-03T09:05:33Z</time>
      </trkpt>
      <trkpt lat="42.02458" lon="9.19933">
        <ele>1382.822</ele>
        <time>2015-07-03T09:05:50Z</time>
      </trkpt>
      <trkpt lat="42.02465" lon="9.19934">
        <ele>1385.951</ele>
        <time>2015-07-03T09:06:07Z</time>
      </trkpt>
      <trkpt lat="42.02471" lon="9.19934">
        <ele>1386.55</ele>
        <time>2015-07-03T09:06:24Z</time>
      </trkpt>
      <trkpt lat="42.02479" lon="9.19932">
        <ele>1387.197</ele>
        <time>2015-07-03T09:06:39Z</time>
      </trkpt>
      <trkpt lat="42.02487" lon="9.19934">
        <ele>1389.332</ele>
        <time>2015-07-03T09:06:52Z</time>
      </trkpt>
      <trkpt lat="42.02497" lon="9.19935">
        <ele>1391.354</ele>
        <time>2015-07-03T09:07:11Z</time>
      </trkpt>
      <trkpt lat="42.02509" lon="9.19941">
        <ele>1392.187</ele>
        <time>2015-07-03T09:07:26Z</time>
      </trkpt>
      <trkpt lat="42.02513" lon="9.19942">
        <ele>1395.215</ele>
        <time>2015-07-03T09:07:43Z</time>
      </trkpt>
      <trkpt lat="42.02521" lon="9.19952">
        <ele>1396.994</ele>
        <time>2015-07-03T09:08:07Z</time>
      </trkpt>
      <trkpt lat="42.02522" lon="9.19963">
        <ele>1399.304</ele>
        <time>2015-07-03T09:08:27Z</time>
      </trkpt>
      <trkpt lat="42.02529" lon="9.19966">
        <ele>1402.168</ele>
        <time>2015-07-03T09:08:48Z</time>
      </trkpt>
      <trkpt lat="42.02537" lon="9.19966">
        <ele>1402.904</ele>
        <time>2015-07-03T09:09:02Z</time>
      </trkpt>
      <trkpt lat="42.02546" lon="9.19966">
        <ele>1405.48</ele>
        <time>2015-07-03T09:09:22Z</time>
      </trkpt>
      <trkpt lat="42.02543" lon="9.19969">
        <ele>1407.111</ele>
        <time>2015-07-03T09:09:39Z</time>
      </trkpt>
      <trkpt lat="42.02543" lon="9.19977">
        <ele>1409.696</ele>
        <time>2015-07-03T09:10:00Z</time>
      </trkpt>
      <trkpt lat="42.02549" lon="9.19988">
        <ele>1411.437</ele>
        <time>2015-07-03T09:10:20Z</time>
      </trkpt>
      <trkpt lat="42.02553" lon="9.19993">
        <ele>1412.889</ele>
        <time>2015-07-03T09:10:34Z</time>
      </trkpt>
      <trkpt lat="42.02561" lon="9.19997">
        <ele>1414.764</ele>
        <time>2015-07-03T09:10:49Z</time>
      </trkpt>
      <trkpt lat="42.02566" lon="9.20001">
        <ele>1416.739</ele>
        <time>2015-07-03T09:11:03Z</time>
      </trkpt>
      <trkpt lat="42.02573" lon="9.20001">
        <ele>1418.136</ele>
        <time>2015-07-03T09:11:19Z</time>
      </trkpt>
      <trkpt lat="42.0258" lon="9.20004">
        <ele>1421.287</ele>
        <time>2015-07-03T09:11:34Z</time>
      </trkpt>
      <trkpt lat="42.0258" lon="9.20004">
        <ele>1422.409</ele>
        <time>2015-07-03T09:11:49Z</time>
      </trkpt>
      <trkpt lat="42.02584" lon="9.20014">
        <ele>1424.102</ele>
        <time>2015-07-03T09:12:11Z</time>
      </trkpt>
      <trkpt lat="42.0259" lon="9.20026">
        <ele>1427.146</ele>
        <time>2015-07-03T09:12:28Z</time>
      </trkpt>
      <trkpt lat="42.02594" lon="9.20031">
        <ele>1427.815</ele>
        <time>2015-07-03T09:12:41Z</time>
      </trkpt>
      <trkpt lat="42.02595" lon="9.20032">
        <ele>1429.288</ele>
        <time>2015-07-03T09:12:54Z</time>
      </trkpt>
      <trkpt lat="42.02601" lon="9.20043">
        <ele>1430.31</ele>
        <time>2015-07-03T09:13:09Z</time>
      </trkpt>
      <trkpt lat="42.02609" lon="9.20049">
        <ele>1432.618</ele>
        <time>2015-07-03T09:13:23Z</time>
      </trkpt>
      <trkpt lat="42.02612" lon="9.20057">
        <ele>1434.151</ele>
        <time>2015-07-03T09:13:39Z</time>
      </trkpt>
      <trkpt lat="42.02616" lon="9.20064">
        <ele>1435.71</ele>
        <time>2015-07-03T09:13:53Z</time>
      </trkpt>
      <trkpt lat="42.02619" lon="9.20072">
        <ele>1436.645</ele>
        <time>2015-07-03T09:14:07Z</time>
      </trkpt>
      <trkpt lat="42.02626" lon="9.20075">
        <ele>1438.594</ele>
        <time>2015-07-03T09:14:24Z</time>
      </trkpt>
      <trkpt lat="42.02636" lon="9.20086">
        <ele>1439.296</ele>
        <time>2015-07-03T09:14:44Z</time>
      </trkpt>
      <trkpt lat="42.02643" lon="9.20091">
        <ele>1440.465</ele>
        <time>2015-07-03T09:15:00Z</time>
      </trkpt>
      <trkpt lat="42.02655" lon="9.20096">
        <ele>1442.261</ele>
        <time>2015-07-03T09:15:21Z</time>
      </trkpt>
      <trkpt lat="42.02665" lon="9.201">
        <ele>1443.606</ele>
        <time>2015-07-03T09:15:35Z</time>
      </trkpt>
      <trkpt lat="42.02669" lon="9.20102">
        <ele>1446.125</ele>
        <time>2015-07-03T09:15:54Z</time>
      </trkpt>
      <trkpt lat="42.02677" lon="9.20121">
        <ele>1446.951</ele>
        <time>2015-07-03T09:16:13Z</time>
      </trkpt>
      <trkpt lat="42.02679" lon="9.20136">
        <ele>1447.731</ele>
        <time>2015-07-03T09:16:26Z</time>
      </trkpt>
      <trkpt lat="42.02684" lon="9.20151">
        <ele>1449.969</ele>
        <time>2015-07-03T09:16:52Z</time>
      </trkpt>
      <trkpt lat="42.02687" lon="9.20163">
        <ele>1451.827</ele>
        <time>2015-07-03T09:17:09Z</time>
      </trkpt>
      <trkpt lat="42.02687" lon="9.20171">
        <ele>1453.043</ele>
        <time>2015-07-03T09:17:24Z</time>
      </trkpt>
      <trkpt lat="42.02692" lon="9.2018">
        <ele>1454.894</ele>
        <time>2015-07-03T09:17:39Z</time>
      </trkpt>
      <trkpt lat="42.02692" lon="9.20188">
        <ele>1456.114</ele>
        <time>2015-07-03T09:17:51Z</time>
      </trkpt>
      <trkpt lat="42.02687" lon="9.20205">
        <ele>1456.795</ele>
        <time>2015-07-03T09:18:07Z</time>
      </trkpt>
      <trkpt lat="42.02681" lon="9.20214">
        <ele>1458.417</ele>
        <time>2015-07-03T09:18:22Z</time>
      </trkpt>
      <trkpt lat="42.02675" lon="9.20223">
        <ele>1460.499</ele>
        <time>2015-07-03T09:18:49Z</time>
      </trkpt>
      <trkpt lat="42.0267" lon="9.20232">
        <ele>1461.54</ele>
        <time>2015-07-03T09:19:04Z</time>
      </trkpt>
      <trkpt lat="42.02665" lon="9.20235">
        <ele>1462.523</ele>
        <time>2015-07-03T09:19:18Z</time>
      </trkpt>
      <trkpt lat="42.02661" lon="9.20235">
        <ele>1464.021</ele>
        <time>2015-07-03T09:19:32Z</time>
      </trkpt>
      <trkpt lat="42.02661" lon="9.20242">
        <ele>1466.108</ele>
        <time>2015-07-03T09:19:46Z</time>
      </trkpt>
      <trkpt lat="42.02659" lon="9.20246">
        <ele>1466.373</ele>
        <time>2015-07-03T09:19:59Z</time>
      </trkpt>
      <trkpt lat="42.02656" lon="9.20254">
        <ele>1468.082</ele>
        <time>2015-07-03T09:20:15Z</time>
      </trkpt>
      <trkpt lat="42.02654" lon="9.20258">
        <ele>1469.198</ele>
        <time>2015-07-03T09:20:29Z</time>
      </trkpt>
      <trkpt lat="42.02654" lon="9.20261">
        <ele>1469.264</ele>
        <time>2015-07-03T09:21:01Z</time>
      </trkpt>
      <trkpt lat="42.02653" lon="9.20271">
        <ele>1470.802</ele>
        <time>2015-07-03T09:21:43Z</time>
      </trkpt>
      <trkpt lat="42.02654" lon="9.20278">
        <ele>1472.057</ele>
        <time>2015-07-03T09:21:59Z</time>
      </trkpt>
      <trkpt lat="42.02654" lon="9.20285">
        <ele>1473.581</ele>
        <time>2015-07-03T09:22:13Z</time>
      </trkpt>
      <trkpt lat="42.0265" lon="9.20295">
        <ele>1475.815</ele>
        <time>2015-07-03T09:22:32Z</time>
      </trkpt>
      <trkpt lat="42.02649" lon="9.203">
        <ele>1476.325</ele>
        <time>2015-07-03T09:22:46Z</time>
      </trkpt>
      <trkpt lat="42.02647" lon="9.20307">
        <ele>1477.98</ele>
        <time>2015-07-03T09:23:01Z</time>
      </trkpt>
      <trkpt lat="42.02644" lon="9.20314">
        <ele>1479.787</ele>
        <time>2015-07-03T09:23:15Z</time>
      </trkpt>
      <trkpt lat="42.02643" lon="9.20323">
        <ele>1481.967</ele>
        <time>2015-07-03T09:23:30Z</time>
      </trkpt>
      <trkpt lat="42.0264" lon="9.2033">
        <ele>1483.441</ele>
        <time>2015-07-03T09:23:45Z</time>
      </trkpt>
      <trkpt lat="42.02639" lon="9.20335">
        <ele>1484.158</ele>
        <time>2015-07-03T09:23:59Z</time>
      </trkpt>
      <trkpt lat="42.02636" lon="9.20342">
        <ele>1484.73</ele>
        <time>2015-07-03T09:24:14Z</time>
      </trkpt>
      <trkpt lat="42.02637" lon="9.20349">
        <ele>1487.144</ele>
        <time>2015-07-03T09:24:27Z</time>
      </trkpt>
      <trkpt lat="42.02637" lon="9.20359">
        <ele>1488.017</ele>
        <time>2015-07-03T09:24:44Z</time>
      </trkpt>
      <trkpt lat="42.02636" lon="9.20369">
        <ele>1490.294</ele>
        <time>2015-07-03T09:24:57Z</time>
      </trkpt>
      <trkpt lat="42.02635" lon="9.20379">
        <ele>1492.232</ele>
        <time>2015-07-03T09:25:12Z</time>
      </trkpt>
      <trkpt lat="42.02633" lon="9.20391">
        <ele>1492.44</ele>
        <time>2015-07-03T09:25:26Z</time>
      </trkpt>
      <trkpt lat="42.02625" lon="9.204">
        <ele>1491.726</ele>
        <time>2015-07-03T09:25:41Z</time>
      </trkpt>
      <trkpt lat="42.0262" lon="9.20412">
        <ele>1491.766</ele>
        <time>2015-07-03T09:25:55Z</time>
      </trkpt>
      <trkpt lat="42.02619" lon="9.20417">
        <ele>1492.606</ele>
        <time>2015-07-03T09:26:12Z</time>
      </trkpt>
      <trkpt lat="42.02618" lon="9.20425">
        <ele>1493.799</ele>
        <time>2015-07-03T09:26:25Z</time>
      </trkpt>
      <trkpt lat="42.02617" lon="9.20435">
        <ele>1496.294</ele>
        <time>2015-07-03T09:26:40Z</time>
      </trkpt>
      <trkpt lat="42.02616" lon="9.20446">
        <ele>1498.57</ele>
        <time>2015-07-03T09:26:55Z</time>
      </trkpt>
      <trkpt lat="42.02613" lon="9.20455">
        <ele>1499.818</ele>
        <time>2015-07-03T09:27:10Z</time>
      </trkpt>
      <trkpt lat="42.02611" lon="9.2047">
        <ele>1500.097</ele>
        <time>2015-07-03T09:27:25Z</time>
      </trkpt>
      <trkpt lat="42.02615" lon="9.20483">
        <ele>1500.724</ele>
        <time>2015-07-03T09:27:40Z</time>
      </trkpt>
      <trkpt lat="42.02624" lon="9.20493">
        <ele>1502.492</ele>
        <time>2015-07-03T09:27:56Z</time>
      </trkpt>
      <trkpt lat="42.02629" lon="9.2051">
        <ele>1502.025</ele>
        <time>2015-07-03T09:28:11Z</time>
      </trkpt>
      <trkpt lat="42.02633" lon="9.20523">
        <ele>1502.535</ele>
        <time>2015-07-03T09:28:25Z</time>
      </trkpt>
      <trkpt lat="42.02635" lon="9.20541">
        <ele>1502.715</ele>
        <time>2015-07-03T09:28:42Z</time>
      </trkpt>
      <trkpt lat="42.02642" lon="9.20559">
        <ele>1501.994</ele>
        <time>2015-07-03T09:29:01Z</time>
      </trkpt>
      <trkpt lat="42.02644" lon="9.20563">
        <ele>1501.266</ele>
        <time>2015-07-03T09:29:05Z</time>
      </trkpt>
      <trkpt lat="42.02654" lon="9.20578">
        <ele>1498.667</ele>
        <time>2015-07-03T09:29:21Z</time>
      </trkpt>
      <trkpt lat="42.02664" lon="9.20583">
        <ele>1496.576</ele>
        <time>2015-07-03T09:29:36Z</time>
      </trkpt>
      <trkpt lat="42.02668" lon="9.20583">
        <ele>1495.958</ele>
        <time>2015-07-03T09:29:40Z</time>
      </trkpt>
      <trkpt lat="42.02688" lon="9.20587">
        <ele>1493.179</ele>
        <time>2015-07-03T09:30:00Z</time>
      </trkpt>
      <trkpt lat="42.02707" lon="9.20594">
        <ele>1490.375</ele>
        <time>2015-07-03T09:30:20Z</time>
      </trkpt>
      <trkpt lat="42.02715" lon="9.20598">
        <ele>1489.906</ele>
        <time>2015-07-03T09:30:28Z</time>
      </trkpt>
      <trkpt lat="42.02717" lon="9.20612">
        <ele>1490.236</ele>
        <time>2015-07-03T09:30:40Z</time>
      </trkpt>
      <trkpt lat="42.02723" lon="9.20622">
        <ele>1488.801</ele>
        <time>2015-07-03T09:30:54Z</time>
      </trkpt>
      <trkpt lat="42.02726" lon="9.20636">
        <ele>1488.317</ele>
        <time>2015-07-03T09:31:10Z</time>
      </trkpt>
      <trkpt lat="42.02722" lon="9.20639">
        <ele>1487.082</ele>
        <time>2015-07-03T09:31:22Z</time>
      </trkpt>
      <trkpt lat="42.02715" lon="9.20654">
        <ele>1486.408</ele>
        <time>2015-07-03T09:31:36Z</time>
      </trkpt>
      <trkpt lat="42.02714" lon="9.20655">
        <ele>1486.191</ele>
        <time>2015-07-03T09:31:37Z</time>
      </trkpt>
      <trkpt lat="42.02701" lon="9.20669">
        <ele>1486.203</ele>
        <time>2015-07-03T09:31:53Z</time>
      </trkpt>
      <trkpt lat="42.02699" lon="9.20675">
        <ele>1486.273</ele>
        <time>2015-07-03T09:31:58Z</time>
      </trkpt>
      <trkpt lat="42.02696" lon="9.20684">
        <ele>1486.05</ele>
        <time>2015-07-03T09:32:05Z</time>
      </trkpt>
      <trkpt lat="42.02692" lon="9.20688">
        <ele>1486.019</ele>
        <time>2015-07-03T09:32:10Z</time>
      </trkpt>
      <trkpt lat="42.02672" lon="9.20706">
        <ele>1486.246</ele>
        <time>2015-07-03T09:32:33Z</time>
      </trkpt>
      <trkpt lat="42.02658" lon="9.20725">
        <ele>1485.303</ele>
        <time>2015-07-03T09:32:53Z</time>
      </trkpt>
      <trkpt lat="42.02656" lon="9.20727">
        <ele>1485.211</ele>
        <time>2015-07-03T09:32:55Z</time>
      </trkpt>
      <trkpt lat="42.02656" lon="9.20729">
        <ele>1485.207</ele>
        <time>2015-07-03T09:32:57Z</time>
      </trkpt>
      <trkpt lat="42.02651" lon="9.20734">
        <ele>1484.774</ele>
        <time>2015-07-03T09:33:03Z</time>
      </trkpt>
      <trkpt lat="42.02648" lon="9.20741">
        <ele>1483.403</ele>
        <time>2015-07-03T09:33:11Z</time>
      </trkpt>
      <trkpt lat="42.02643" lon="9.20747">
        <ele>1482.699</ele>
        <time>2015-07-03T09:33:17Z</time>
      </trkpt>
      <trkpt lat="42.02639" lon="9.20754">
        <ele>1481.482</ele>
        <time>2015-07-03T09:33:29Z</time>
      </trkpt>
      <trkpt lat="42.02634" lon="9.20761">
        <ele>1481.169</ele>
        <time>2015-07-03T09:33:35Z</time>
      </trkpt>
      <trkpt lat="42.02632" lon="9.20774">
        <ele>1483.082</ele>
        <time>2015-07-03T09:33:46Z</time>
      </trkpt>
      <trkpt lat="42.02629" lon="9.20795">
        <ele>1483.956</ele>
        <time>2015-07-03T09:34:00Z</time>
      </trkpt>
      <trkpt lat="42.02622" lon="9.20805">
        <ele>1484.074</ele>
        <time>2015-07-03T09:34:13Z</time>
      </trkpt>
      <trkpt lat="42.02616" lon="9.20812">
        <ele>1484.744</ele>
        <time>2015-07-03T09:34:23Z</time>
      </trkpt>
      <trkpt lat="42.02616" lon="9.20814">
        <ele>1484.924</ele>
        <time>2015-07-03T09:34:25Z</time>
      </trkpt>
      <trkpt lat="42.02598" lon="9.20825">
        <ele>1485.842</ele>
        <time>2015-07-03T09:34:43Z</time>
      </trkpt>
      <trkpt lat="42.0259" lon="9.20832">
        <ele>1486.627</ele>
        <time>2015-07-03T09:34:54Z</time>
      </trkpt>
      <trkpt lat="42.02586" lon="9.20848">
        <ele>1486.789</ele>
        <time>2015-07-03T09:35:09Z</time>
      </trkpt>
      <trkpt lat="42.02586" lon="9.20861">
        <ele>1486.778</ele>
        <time>2015-07-03T09:35:21Z</time>
      </trkpt>
      <trkpt lat="42.02582" lon="9.20878">
        <ele>1486.367</ele>
        <time>2015-07-03T09:35:34Z</time>
      </trkpt>
      <trkpt lat="42.02584" lon="9.20895">
        <ele>1486.822</ele>
        <time>2015-07-03T09:35:45Z</time>
      </trkpt>
      <trkpt lat="42.0258" lon="9.20899">
        <ele>1486.273</ele>
        <time>2015-07-03T09:35:55Z</time>
      </trkpt>
      <trkpt lat="42.02576" lon="9.20906">
        <ele>1487.547</ele>
        <time>2015-07-03T09:36:09Z</time>
      </trkpt>
      <trkpt lat="42.02565" lon="9.20905">
        <ele>1490.629</ele>
        <time>2015-07-03T09:36:31Z</time>
      </trkpt>
      <trkpt lat="42.02552" lon="9.20916">
        <ele>1490.388</ele>
        <time>2015-07-03T09:36:46Z</time>
      </trkpt>
      <trkpt lat="42.02537" lon="9.20927">
        <ele>1491.611</ele>
        <time>2015-07-03T09:37:02Z</time>
      </trkpt>
      <trkpt lat="42.02535" lon="9.2093">
        <ele>1492.477</ele>
        <time>2015-07-03T09:37:04Z</time>
      </trkpt>
      <trkpt lat="42.02524" lon="9.20933">
        <ele>1493.401</ele>
        <time>2015-07-03T09:37:16Z</time>
      </trkpt>
      <trkpt lat="42.02517" lon="9.2094">
        <ele>1493.769</ele>
        <time>2015-07-03T09:37:27Z</time>
      </trkpt>
      <trkpt lat="42.02513" lon="9.20947">
        <ele>1495.606</ele>
        <time>2015-07-03T09:37:39Z</time>
      </trkpt>
      <trkpt lat="42.0251" lon="9.20954">
        <ele>1496.28</ele>
        <time>2015-07-03T09:37:49Z</time>
      </trkpt>
      <trkpt lat="42.02503" lon="9.20955">
        <ele>1498.01</ele>
        <time>2015-07-03T09:38:06Z</time>
      </trkpt>
      <trkpt lat="42.02494" lon="9.20969">
        <ele>1499.172</ele>
        <time>2015-07-03T09:38:24Z</time>
      </trkpt>
      <trkpt lat="42.02485" lon="9.20978">
        <ele>1500.206</ele>
        <time>2015-07-03T09:38:39Z</time>
      </trkpt>
      <trkpt lat="42.02474" lon="9.20989">
        <ele>1501.346</ele>
        <time>2015-07-03T09:38:56Z</time>
      </trkpt>
      <trkpt lat="42.02471" lon="9.20996">
        <ele>1501.386</ele>
        <time>2015-07-03T09:39:03Z</time>
      </trkpt>
      <trkpt lat="42.02467" lon="9.2101">
        <ele>1501.852</ele>
        <time>2015-07-03T09:39:14Z</time>
      </trkpt>
      <trkpt lat="42.02461" lon="9.21011">
        <ele>1502.733</ele>
        <time>2015-07-03T09:39:28Z</time>
      </trkpt>
      <trkpt lat="42.02454" lon="9.21013">
        <ele>1502.944</ele>
        <time>2015-07-03T09:39:49Z</time>
      </trkpt>
      <trkpt lat="42.02449" lon="9.21">
        <ele>1503.718</ele>
        <time>2015-07-03T09:40:06Z</time>
      </trkpt>
      <trkpt lat="42.0244" lon="9.20994">
        <ele>1507.527</ele>
        <time>2015-07-03T09:40:28Z</time>
      </trkpt>
      <trkpt lat="42.02439" lon="9.20978">
        <ele>1508.518</ele>
        <time>2015-07-03T09:40:43Z</time>
      </trkpt>
      <trkpt lat="42.02419" lon="9.20973">
        <ele>1511.379</ele>
        <time>2015-07-03T09:41:08Z</time>
      </trkpt>
      <trkpt lat="42.02408" lon="9.20977">
        <ele>1511.014</ele>
        <time>2015-07-03T09:41:20Z</time>
      </trkpt>
      <trkpt lat="42.02407" lon="9.20978">
        <ele>1511.314</ele>
        <time>2015-07-03T09:41:21Z</time>
      </trkpt>
      <trkpt lat="42.02397" lon="9.20988">
        <ele>1511.761</ele>
        <time>2015-07-03T09:41:31Z</time>
      </trkpt>
      <trkpt lat="42.02384" lon="9.20988">
        <ele>1514.072</ele>
        <time>2015-07-03T09:41:47Z</time>
      </trkpt>
      <trkpt lat="42.02364" lon="9.2099">
        <ele>1512.526</ele>
        <time>2015-07-03T09:42:08Z</time>
      </trkpt>
      <trkpt lat="42.02349" lon="9.20995">
        <ele>1511.439</ele>
        <time>2015-07-03T09:42:22Z</time>
      </trkpt>
      <trkpt lat="42.02347" lon="9.21009">
        <ele>1510.578</ele>
        <time>2015-07-03T09:42:38Z</time>
      </trkpt>
      <trkpt lat="42.02339" lon="9.21009">
        <ele>1510.895</ele>
        <time>2015-07-03T09:43:08Z</time>
      </trkpt>
      <trkpt lat="42.02333" lon="9.21">
        <ele>1512.032</ele>
        <time>2015-07-03T09:43:20Z</time>
      </trkpt>
      <trkpt lat="42.0233" lon="9.21004">
        <ele>1515.848</ele>
        <time>2015-07-03T09:43:40Z</time>
      </trkpt>
      <trkpt lat="42.02325" lon="9.21006">
        <ele>1515.862</ele>
        <time>2015-07-03T09:43:43Z</time>
      </trkpt>
      <trkpt lat="42.02312" lon="9.21018">
        <ele>1517.135</ele>
        <time>2015-07-03T09:43:52Z</time>
      </trkpt>
      <trkpt lat="42.02298" lon="9.21026">
        <ele>1518.375</ele>
        <time>2015-07-03T09:44:06Z</time>
      </trkpt>
      <trkpt lat="42.0229" lon="9.2103">
        <ele>1518.332</ele>
        <time>2015-07-03T09:44:16Z</time>
      </trkpt>
      <trkpt lat="42.02276" lon="9.21031">
        <ele>1519.425</ele>
        <time>2015-07-03T09:44:31Z</time>
      </trkpt>
      <trkpt lat="42.02281" lon="9.21027">
        <ele>1522.731</ele>
        <time>2015-07-03T09:44:52Z</time>
      </trkpt>
      <trkpt lat="42.02275" lon="9.21014">
        <ele>1525.86</ele>
        <time>2015-07-03T09:45:21Z</time>
      </trkpt>
      <trkpt lat="42.02266" lon="9.2098">
        <ele>1529.317</ele>
        <time>2015-07-03T09:46:05Z</time>
      </trkpt>
      <trkpt lat="42.02256" lon="9.20974">
        <ele>1531.236</ele>
        <time>2015-07-03T09:46:21Z</time>
      </trkpt>
      <trkpt lat="42.0225" lon="9.20973">
        <ele>1534.277</ele>
        <time>2015-07-03T09:46:53Z</time>
      </trkpt>
      <trkpt lat="42.02238" lon="9.20983">
        <ele>1536.174</ele>
        <time>2015-07-03T09:47:10Z</time>
      </trkpt>
      <trkpt lat="42.02236" lon="9.20961">
        <ele>1539.328</ele>
        <time>2015-07-03T09:47:33Z</time>
      </trkpt>
      <trkpt lat="42.02236" lon="9.20961">
        <ele>1539.515</ele>
        <time>2015-07-03T09:47:34Z</time>
      </trkpt>
      <trkpt lat="42.02235" lon="9.20952">
        <ele>1542.582</ele>
        <time>2015-07-03T09:48:06Z</time>
      </trkpt>
      <trkpt lat="42.02228" lon="9.20929">
        <ele>1545.755</ele>
        <time>2015-07-03T09:48:39Z</time>
      </trkpt>
      <trkpt lat="42.02209" lon="9.20902">
        <ele>1549.366</ele>
        <time>2015-07-03T09:49:59Z</time>
      </trkpt>
      <trkpt lat="42.02203" lon="9.20899">
        <ele>1551.999</ele>
        <time>2015-07-03T09:50:24Z</time>
      </trkpt>
      <trkpt lat="42.02199" lon="9.20916">
        <ele>1554.688</ele>
        <time>2015-07-03T09:50:46Z</time>
      </trkpt>
      <trkpt lat="42.02189" lon="9.20912">
        <ele>1557.716</ele>
        <time>2015-07-03T09:51:03Z</time>
      </trkpt>
      <trkpt lat="42.0219" lon="9.20913">
        <ele>1560.937</ele>
        <time>2015-07-03T09:51:25Z</time>
      </trkpt>
      <trkpt lat="42.02175" lon="9.20934">
        <ele>1563.977</ele>
        <time>2015-07-03T09:51:51Z</time>
      </trkpt>
      <trkpt lat="42.02171" lon="9.20948">
        <ele>1564.53</ele>
        <time>2015-07-03T09:52:01Z</time>
      </trkpt>
      <trkpt lat="42.02163" lon="9.20955">
        <ele>1565.588</ele>
        <time>2015-07-03T09:52:12Z</time>
      </trkpt>
      <trkpt lat="42.02158" lon="9.2095">
        <ele>1567.839</ele>
        <time>2015-07-03T09:52:32Z</time>
      </trkpt>
      <trkpt lat="42.02163" lon="9.2095">
        <ele>1570.96</ele>
        <time>2015-07-03T09:52:59Z</time>
      </trkpt>
      <trkpt lat="42.02149" lon="9.20952">
        <ele>1574.069</ele>
        <time>2015-07-03T09:53:22Z</time>
      </trkpt>
      <trkpt lat="42.02144" lon="9.20947">
        <ele>1577.112</ele>
        <time>2015-07-03T09:54:01Z</time>
      </trkpt>
      <trkpt lat="42.02131" lon="9.20943">
        <ele>1580.149</ele>
        <time>2015-07-03T09:54:31Z</time>
      </trkpt>
      <trkpt lat="42.02127" lon="9.2095">
        <ele>1583.16</ele>
        <time>2015-07-03T09:54:49Z</time>
      </trkpt>
      <trkpt lat="42.02128" lon="9.20958">
        <ele>1586.245</ele>
        <time>2015-07-03T09:55:13Z</time>
      </trkpt>
      <trkpt lat="42.02106" lon="9.20971">
        <ele>1589.546</ele>
        <time>2015-07-03T09:55:40Z</time>
      </trkpt>
      <trkpt lat="42.02105" lon="9.20972">
        <ele>1589.075</ele>
        <time>2015-07-03T09:55:41Z</time>
      </trkpt>
      <trkpt lat="42.02107" lon="9.20978">
        <ele>1592.184</ele>
        <time>2015-07-03T09:56:00Z</time>
      </trkpt>
      <trkpt lat="42.02111" lon="9.20984">
        <ele>1592.375</ele>
        <time>2015-07-03T09:56:12Z</time>
      </trkpt>
      <trkpt lat="42.0211" lon="9.20991">
        <ele>1593.69</ele>
        <time>2015-07-03T09:56:25Z</time>
      </trkpt>
      <trkpt lat="42.02105" lon="9.20994">
        <ele>1596.213</ele>
        <time>2015-07-03T09:56:42Z</time>
      </trkpt>
      <trkpt lat="42.02099" lon="9.21">
        <ele>1599.629</ele>
        <time>2015-07-03T09:57:05Z</time>
      </trkpt>
      <trkpt lat="42.02097" lon="9.21004">
        <ele>1600.999</ele>
        <time>2015-07-03T09:57:16Z</time>
      </trkpt>
      <trkpt lat="42.02092" lon="9.21017">
        <ele>1603.404</ele>
        <time>2015-07-03T09:57:33Z</time>
      </trkpt>
      <trkpt lat="42.02093" lon="9.21026">
        <ele>1604.16</ele>
        <time>2015-07-03T09:57:45Z</time>
      </trkpt>
      <trkpt lat="42.0209" lon="9.21034">
        <ele>1606.21</ele>
        <time>2015-07-03T09:57:59Z</time>
      </trkpt>
      <trkpt lat="42.0209" lon="9.21037">
        <ele>1608.116</ele>
        <time>2015-07-03T09:58:19Z</time>
      </trkpt>
      <trkpt lat="42.02085" lon="9.21037">
        <ele>1609.563</ele>
        <time>2015-07-03T09:58:31Z</time>
      </trkpt>
      <trkpt lat="42.02079" lon="9.21044">
        <ele>1611.714</ele>
        <time>2015-07-03T09:58:48Z</time>
      </trkpt>
      <trkpt lat="42.02078" lon="9.21056">
        <ele>1613.336</ele>
        <time>2015-07-03T09:59:04Z</time>
      </trkpt>
      <trkpt lat="42.0207" lon="9.21062">
        <ele>1614.978</ele>
        <time>2015-07-03T09:59:19Z</time>
      </trkpt>
      <trkpt lat="42.02065" lon="9.21058">
        <ele>1618.103</ele>
        <time>2015-07-03T09:59:42Z</time>
      </trkpt>
      <trkpt lat="42.02064" lon="9.21063">
        <ele>1619.985</ele>
        <time>2015-07-03T09:59:56Z</time>
      </trkpt>
      <trkpt lat="42.02061" lon="9.21073">
        <ele>1622.346</ele>
        <time>2015-07-03T10:00:09Z</time>
      </trkpt>
      <trkpt lat="42.0206" lon="9.21077">
        <ele>1622.498</ele>
        <time>2015-07-03T10:00:21Z</time>
      </trkpt>
      <trkpt lat="42.0207" lon="9.21106">
        <ele>1623.164</ele>
        <time>2015-07-03T10:00:55Z</time>
      </trkpt>
      <trkpt lat="42.02063" lon="9.21094">
        <ele>1622.278</ele>
        <time>2015-07-03T10:01:23Z</time>
      </trkpt>
      <trkpt lat="42.02068" lon="9.21097">
        <ele>1621.849</ele>
        <time>2015-07-03T10:02:03Z</time>
      </trkpt>
      <trkpt lat="42.02055" lon="9.21102">
        <ele>1624.458</ele>
        <time>2015-07-03T10:02:19Z</time>
      </trkpt>
      <trkpt lat="42.02046" lon="9.21103">
        <ele>1626.561</ele>
        <time>2015-07-03T10:02:34Z</time>
      </trkpt>
      <trkpt lat="42.02044" lon="9.21106">
        <ele>1627.685</ele>
        <time>2015-07-03T10:02:49Z</time>
      </trkpt>
      <trkpt lat="42.02041" lon="9.21116">
        <ele>1629.266</ele>
        <time>2015-07-03T10:03:04Z</time>
      </trkpt>
      <trkpt lat="42.02039" lon="9.21125">
        <ele>1630.201</ele>
        <time>2015-07-03T10:03:16Z</time>
      </trkpt>
      <trkpt lat="42.02035" lon="9.21136">
        <ele>1631.062</ele>
        <time>2015-07-03T10:03:27Z</time>
      </trkpt>
      <trkpt lat="42.02033" lon="9.21144">
        <ele>1631.983</ele>
        <time>2015-07-03T10:03:38Z</time>
      </trkpt>
      <trkpt lat="42.02028" lon="9.2115">
        <ele>1633.027</ele>
        <time>2015-07-03T10:03:52Z</time>
      </trkpt>
      <trkpt lat="42.02022" lon="9.21163">
        <ele>1633.813</ele>
        <time>2015-07-03T10:04:06Z</time>
      </trkpt>
      <trkpt lat="42.02022" lon="9.21173">
        <ele>1634.127</ele>
        <time>2015-07-03T10:04:18Z</time>
      </trkpt>
      <trkpt lat="42.02021" lon="9.21184">
        <ele>1636.006</ele>
        <time>2015-07-03T10:04:35Z</time>
      </trkpt>
      <trkpt lat="42.02017" lon="9.21185">
        <ele>1637.284</ele>
        <time>2015-07-03T10:04:48Z</time>
      </trkpt>
      <trkpt lat="42.02016" lon="9.21192">
        <ele>1639.29</ele>
        <time>2015-07-03T10:05:01Z</time>
      </trkpt>
      <trkpt lat="42.02013" lon="9.21192">
        <ele>1640.42</ele>
        <time>2015-07-03T10:05:17Z</time>
      </trkpt>
      <trkpt lat="42.0201" lon="9.21199">
        <ele>1642.666</ele>
        <time>2015-07-03T10:05:33Z</time>
      </trkpt>
      <trkpt lat="42.02008" lon="9.21202">
        <ele>1644.015</ele>
        <time>2015-07-03T10:05:45Z</time>
      </trkpt>
      <trkpt lat="42.02004" lon="9.21204">
        <ele>1646.091</ele>
        <time>2015-07-03T10:05:58Z</time>
      </trkpt>
      <trkpt lat="42.02007" lon="9.21218">
        <ele>1647.195</ele>
        <time>2015-07-03T10:06:11Z</time>
      </trkpt>
      <trkpt lat="42.02" lon="9.21223">
        <ele>1648.476</ele>
        <time>2015-07-03T10:06:26Z</time>
      </trkpt>
      <trkpt lat="42.01992" lon="9.21228">
        <ele>1650.237</ele>
        <time>2015-07-03T10:06:42Z</time>
      </trkpt>
      <trkpt lat="42.01991" lon="9.21236">
        <ele>1651.631</ele>
        <time>2015-07-03T10:06:56Z</time>
      </trkpt>
      <trkpt lat="42.01983" lon="9.21243">
        <ele>1652.005</ele>
        <time>2015-07-03T10:07:09Z</time>
      </trkpt>
      <trkpt lat="42.01979" lon="9.21252">
        <ele>1652.593</ele>
        <time>2015-07-03T10:07:22Z</time>
      </trkpt>
      <trkpt lat="42.01982" lon="9.21262">
        <ele>1652.527</ele>
        <time>2015-07-03T10:08:02Z</time>
      </trkpt>
      <trkpt lat="42.0198" lon="9.21279">
        <ele>1652.322</ele>
        <time>2015-07-03T10:08:17Z</time>
      </trkpt>
      <trkpt lat="42.01981" lon="9.21297">
        <ele>1651.667</ele>
        <time>2015-07-03T10:08:33Z</time>
      </trkpt>
      <trkpt lat="42.01977" lon="9.21312">
        <ele>1652.006</ele>
        <time>2015-07-03T10:08:49Z</time>
      </trkpt>
      <trkpt lat="42.01972" lon="9.21319">
        <ele>1652.168</ele>
        <time>2015-07-03T10:09:01Z</time>
      </trkpt>
      <trkpt lat="42.01963" lon="9.21324">
        <ele>1651.514</ele>
        <time>2015-07-03T10:09:15Z</time>
      </trkpt>
      <trkpt lat="42.01963" lon="9.21334">
        <ele>1651.615</ele>
        <time>2015-07-03T10:09:28Z</time>
      </trkpt>
      <trkpt lat="42.01961" lon="9.21343">
        <ele>1652.838</ele>
        <time>2015-07-03T10:09:41Z</time>
      </trkpt>
      <trkpt lat="42.01956" lon="9.21351">
        <ele>1654.769</ele>
        <time>2015-07-03T10:09:55Z</time>
      </trkpt>
      <trkpt lat="42.01947" lon="9.21355">
        <ele>1656.029</ele>
        <time>2015-07-03T10:10:11Z</time>
      </trkpt>
      <trkpt lat="42.01949" lon="9.21364">
        <ele>1657.233</ele>
        <time>2015-07-03T10:10:22Z</time>
      </trkpt>
      <trkpt lat="42.01951" lon="9.21373">
        <ele>1658.576</ele>
        <time>2015-07-03T10:10:37Z</time>
      </trkpt>
      <trkpt lat="42.0195" lon="9.21379">
        <ele>1659.951</ele>
        <time>2015-07-03T10:10:53Z</time>
      </trkpt>
      <trkpt lat="42.01953" lon="9.21381">
        <ele>1661.077</ele>
        <time>2015-07-03T10:11:07Z</time>
      </trkpt>
      <trkpt lat="42.01955" lon="9.21384">
        <ele>1663.579</ele>
        <time>2015-07-03T10:11:21Z</time>
      </trkpt>
      <trkpt lat="42.01956" lon="9.21387">
        <ele>1663.266</ele>
        <time>2015-07-03T10:11:36Z</time>
      </trkpt>
      <trkpt lat="42.01954" lon="9.21393">
        <ele>1663.974</ele>
        <time>2015-07-03T10:11:54Z</time>
      </trkpt>
      <trkpt lat="42.01951" lon="9.21402">
        <ele>1665.501</ele>
        <time>2015-07-03T10:12:09Z</time>
      </trkpt>
      <trkpt lat="42.01948" lon="9.2141">
        <ele>1666.754</ele>
        <time>2015-07-03T10:12:24Z</time>
      </trkpt>
      <trkpt lat="42.01948" lon="9.21417">
        <ele>1667.899</ele>
        <time>2015-07-03T10:12:37Z</time>
      </trkpt>
      <trkpt lat="42.01946" lon="9.21424">
        <ele>1669.495</ele>
        <time>2015-07-03T10:12:53Z</time>
      </trkpt>
      <trkpt lat="42.01942" lon="9.2143">
        <ele>1670.485</ele>
        <time>2015-07-03T10:13:08Z</time>
      </trkpt>
      <trkpt lat="42.01938" lon="9.21438">
        <ele>1672.286</ele>
        <time>2015-07-03T10:13:23Z</time>
      </trkpt>
      <trkpt lat="42.01931" lon="9.21446">
        <ele>1673.463</ele>
        <time>2015-07-03T10:13:38Z</time>
      </trkpt>
      <trkpt lat="42.01929" lon="9.21453">
        <ele>1675.418</ele>
        <time>2015-07-03T10:13:50Z</time>
      </trkpt>
      <trkpt lat="42.01931" lon="9.21457">
        <ele>1677.242</ele>
        <time>2015-07-03T10:14:04Z</time>
      </trkpt>
      <trkpt lat="42.0193" lon="9.21463">
        <ele>1677.692</ele>
        <time>2015-07-03T10:14:21Z</time>
      </trkpt>
      <trkpt lat="42.01927" lon="9.21469">
        <ele>1679.234</ele>
        <time>2015-07-03T10:14:34Z</time>
      </trkpt>
      <trkpt lat="42.01924" lon="9.21476">
        <ele>1681.235</ele>
        <time>2015-07-03T10:14:49Z</time>
      </trkpt>
      <trkpt lat="42.01921" lon="9.21481">
        <ele>1682.804</ele>
        <time>2015-07-03T10:15:04Z</time>
      </trkpt>
      <trkpt lat="42.01918" lon="9.21486">
        <ele>1683.681</ele>
        <time>2015-07-03T10:15:16Z</time>
      </trkpt>
      <trkpt lat="42.01916" lon="9.21491">
        <ele>1684.965</ele>
        <time>2015-07-03T10:15:29Z</time>
      </trkpt>
      <trkpt lat="42.01915" lon="9.21501">
        <ele>1687.245</ele>
        <time>2015-07-03T10:15:43Z</time>
      </trkpt>
      <trkpt lat="42.01914" lon="9.21502">
        <ele>1687.457</ele>
        <time>2015-07-03T10:15:44Z</time>
      </trkpt>
      <trkpt lat="42.0191" lon="9.21509">
        <ele>1687.682</ele>
        <time>2015-07-03T10:15:56Z</time>
      </trkpt>
      <trkpt lat="42.0191" lon="9.2152">
        <ele>1688.734</ele>
        <time>2015-07-03T10:16:13Z</time>
      </trkpt>
      <trkpt lat="42.01905" lon="9.21531">
        <ele>1689.736</ele>
        <time>2015-07-03T10:16:29Z</time>
      </trkpt>
      <trkpt lat="42.019" lon="9.21542">
        <ele>1690.363</ele>
        <time>2015-07-03T10:16:45Z</time>
      </trkpt>
      <trkpt lat="42.01896" lon="9.21554">
        <ele>1692.072</ele>
        <time>2015-07-03T10:17:00Z</time>
      </trkpt>
      <trkpt lat="42.01893" lon="9.21562">
        <ele>1693.709</ele>
        <time>2015-07-03T10:17:16Z</time>
      </trkpt>
      <trkpt lat="42.01893" lon="9.21567">
        <ele>1695.394</ele>
        <time>2015-07-03T10:17:29Z</time>
      </trkpt>
      <trkpt lat="42.01893" lon="9.21571">
        <ele>1696.807</ele>
        <time>2015-07-03T10:17:41Z</time>
      </trkpt>
      <trkpt lat="42.01888" lon="9.21574">
        <ele>1697.432</ele>
        <time>2015-07-03T10:17:54Z</time>
      </trkpt>
      <trkpt lat="42.01882" lon="9.21576">
        <ele>1700.724</ele>
        <time>2015-07-03T10:18:10Z</time>
      </trkpt>
      <trkpt lat="42.0188" lon="9.21584">
        <ele>1701.091</ele>
        <time>2015-07-03T10:18:23Z</time>
      </trkpt>
      <trkpt lat="42.01877" lon="9.21591">
        <ele>1702.211</ele>
        <time>2015-07-03T10:18:37Z</time>
      </trkpt>
      <trkpt lat="42.01876" lon="9.21597">
        <ele>1704.758</ele>
        <time>2015-07-03T10:18:52Z</time>
      </trkpt>
      <trkpt lat="42.01873" lon="9.21602">
        <ele>1706.241</ele>
        <time>2015-07-03T10:19:04Z</time>
      </trkpt>
      <trkpt lat="42.01872" lon="9.21611">
        <ele>1706.982</ele>
        <time>2015-07-03T10:19:19Z</time>
      </trkpt>
      <trkpt lat="42.01872" lon="9.21619">
        <ele>1708.691</ele>
        <time>2015-07-03T10:19:31Z</time>
      </trkpt>
      <trkpt lat="42.01871" lon="9.21623">
        <ele>1709.921</ele>
        <time>2015-07-03T10:19:44Z</time>
      </trkpt>
      <trkpt lat="42.01871" lon="9.21627">
        <ele>1710.94</ele>
        <time>2015-07-03T10:19:55Z</time>
      </trkpt>
      <trkpt lat="42.01872" lon="9.21631">
        <ele>1712.5</ele>
        <time>2015-07-03T10:20:08Z</time>
      </trkpt>
      <trkpt lat="42.01869" lon="9.21631">
        <ele>1713.232</ele>
        <time>2015-07-03T10:20:23Z</time>
      </trkpt>
      <trkpt lat="42.01869" lon="9.21639">
        <ele>1715.817</ele>
        <time>2015-07-03T10:20:55Z</time>
      </trkpt>
      <trkpt lat="42.01867" lon="9.2164">
        <ele>1716.86</ele>
        <time>2015-07-03T10:21:06Z</time>
      </trkpt>
      <trkpt lat="42.01864" lon="9.21646">
        <ele>1718.717</ele>
        <time>2015-07-03T10:21:20Z</time>
      </trkpt>
      <trkpt lat="42.01863" lon="9.21655">
        <ele>1719.764</ele>
        <time>2015-07-03T10:21:34Z</time>
      </trkpt>
      <trkpt lat="42.01861" lon="9.21665">
        <ele>1721.305</ele>
        <time>2015-07-03T10:21:50Z</time>
      </trkpt>
      <trkpt lat="42.01863" lon="9.21674">
        <ele>1722.304</ele>
        <time>2015-07-03T10:22:03Z</time>
      </trkpt>
      <trkpt lat="42.01865" lon="9.21681">
        <ele>1723.867</ele>
        <time>2015-07-03T10:22:17Z</time>
      </trkpt>
      <trkpt lat="42.01861" lon="9.21689">
        <ele>1725.438</ele>
        <time>2015-07-03T10:22:34Z</time>
      </trkpt>
      <trkpt lat="42.01859" lon="9.2169">
        <ele>1725.506</ele>
        <time>2015-07-03T10:23:01Z</time>
      </trkpt>
      <trkpt lat="42.01853" lon="9.21694">
        <ele>1726.299</ele>
        <time>2015-07-03T10:23:34Z</time>
      </trkpt>
      <trkpt lat="42.01849" lon="9.21697">
        <ele>1728.644</ele>
        <time>2015-07-03T10:23:47Z</time>
      </trkpt>
      <trkpt lat="42.01843" lon="9.21701">
        <ele>1729.487</ele>
        <time>2015-07-03T10:24:02Z</time>
      </trkpt>
      <trkpt lat="42.0184" lon="9.21708">
        <ele>1730.599</ele>
        <time>2015-07-03T10:24:16Z</time>
      </trkpt>
      <trkpt lat="42.01841" lon="9.2171">
        <ele>1731.792</ele>
        <time>2015-07-03T10:24:34Z</time>
      </trkpt>
      <trkpt lat="42.01848" lon="9.21715">
        <ele>1734.177</ele>
        <time>2015-07-03T10:24:56Z</time>
      </trkpt>
      <trkpt lat="42.01851" lon="9.21718">
        <ele>1735.633</ele>
        <time>2015-07-03T10:25:07Z</time>
      </trkpt>
      <trkpt lat="42.0185" lon="9.21721">
        <ele>1736.323</ele>
        <time>2015-07-03T10:25:17Z</time>
      </trkpt>
      <trkpt lat="42.01847" lon="9.21724">
        <ele>1736.753</ele>
        <time>2015-07-03T10:25:29Z</time>
      </trkpt>
      <trkpt lat="42.01845" lon="9.2173">
        <ele>1738.037</ele>
        <time>2015-07-03T10:25:43Z</time>
      </trkpt>
      <trkpt lat="42.01845" lon="9.21731">
        <ele>1738.694</ele>
        <time>2015-07-03T10:25:59Z</time>
      </trkpt>
      <trkpt lat="42.01849" lon="9.21732">
        <ele>1740.563</ele>
        <time>2015-07-03T10:26:13Z</time>
      </trkpt>
      <trkpt lat="42.01854" lon="9.21734">
        <ele>1742.081</ele>
        <time>2015-07-03T10:26:27Z</time>
      </trkpt>
      <trkpt lat="42.01857" lon="9.21735">
        <ele>1743.54</ele>
        <time>2015-07-03T10:26:41Z</time>
      </trkpt>
      <trkpt lat="42.01862" lon="9.21736">
        <ele>1744.103</ele>
        <time>2015-07-03T10:26:54Z</time>
      </trkpt>
      <trkpt lat="42.01861" lon="9.2174">
        <ele>1745.964</ele>
        <time>2015-07-03T10:27:09Z</time>
      </trkpt>
      <trkpt lat="42.01862" lon="9.21747">
        <ele>1747.67</ele>
        <time>2015-07-03T10:27:23Z</time>
      </trkpt>
      <trkpt lat="42.01867" lon="9.21747">
        <ele>1748.213</ele>
        <time>2015-07-03T10:27:37Z</time>
      </trkpt>
      <trkpt lat="42.01872" lon="9.21747">
        <ele>1748.777</ele>
        <time>2015-07-03T10:27:52Z</time>
      </trkpt>
      <trkpt lat="42.01877" lon="9.21749">
        <ele>1751.105</ele>
        <time>2015-07-03T10:28:07Z</time>
      </trkpt>
      <trkpt lat="42.0188" lon="9.21749">
        <ele>1751.708</ele>
        <time>2015-07-03T10:28:21Z</time>
      </trkpt>
      <trkpt lat="42.01883" lon="9.21751">
        <ele>1753.46</ele>
        <time>2015-07-03T10:28:32Z</time>
      </trkpt>
      <trkpt lat="42.01882" lon="9.21756">
        <ele>1754.196</ele>
        <time>2015-07-03T10:28:45Z</time>
      </trkpt>
      <trkpt lat="42.01879" lon="9.21761">
        <ele>1755.933</ele>
        <time>2015-07-03T10:28:56Z</time>
      </trkpt>
      <trkpt lat="42.01876" lon="9.21766">
        <ele>1757.444</ele>
        <time>2015-07-03T10:29:09Z</time>
      </trkpt>
      <trkpt lat="42.01873" lon="9.21771">
        <ele>1758.637</ele>
        <time>2015-07-03T10:29:21Z</time>
      </trkpt>
      <trkpt lat="42.01876" lon="9.21772">
        <ele>1760.68</ele>
        <time>2015-07-03T10:29:34Z</time>
      </trkpt>
      <trkpt lat="42.01877" lon="9.21776">
        <ele>1761.512</ele>
        <time>2015-07-03T10:29:46Z</time>
      </trkpt>
      <trkpt lat="42.01874" lon="9.2178">
        <ele>1762.26</ele>
        <time>2015-07-03T10:30:00Z</time>
      </trkpt>
      <trkpt lat="42.01871" lon="9.21787">
        <ele>1762.303</ele>
        <time>2015-07-03T10:30:14Z</time>
      </trkpt>
      <trkpt lat="42.01867" lon="9.2179">
        <ele>1763.882</ele>
        <time>2015-07-03T10:30:27Z</time>
      </trkpt>
      <trkpt lat="42.01865" lon="9.21793">
        <ele>1765.93</ele>
        <time>2015-07-03T10:30:40Z</time>
      </trkpt>
      <trkpt lat="42.01864" lon="9.21799">
        <ele>1766.734</ele>
        <time>2015-07-03T10:30:54Z</time>
      </trkpt>
      <trkpt lat="42.0186" lon="9.21803">
        <ele>1767.197</ele>
        <time>2015-07-03T10:31:07Z</time>
      </trkpt>
      <trkpt lat="42.01854" lon="9.21806">
        <ele>1768.904</ele>
        <time>2015-07-03T10:31:21Z</time>
      </trkpt>
      <trkpt lat="42.01853" lon="9.21814">
        <ele>1770.52</ele>
        <time>2015-07-03T10:31:35Z</time>
      </trkpt>
      <trkpt lat="42.01853" lon="9.21819">
        <ele>1772.283</ele>
        <time>2015-07-03T10:31:48Z</time>
      </trkpt>
      <trkpt lat="42.01854" lon="9.21824">
        <ele>1773.204</ele>
        <time>2015-07-03T10:32:02Z</time>
      </trkpt>
      <trkpt lat="42.01857" lon="9.21821">
        <ele>1774.598</ele>
        <time>2015-07-03T10:32:17Z</time>
      </trkpt>
      <trkpt lat="42.01861" lon="9.21824">
        <ele>1775.169</ele>
        <time>2015-07-03T10:32:35Z</time>
      </trkpt>
      <trkpt lat="42.01859" lon="9.21828">
        <ele>1776.762</ele>
        <time>2015-07-03T10:32:47Z</time>
      </trkpt>
      <trkpt lat="42.01857" lon="9.21835">
        <ele>1778.121</ele>
        <time>2015-07-03T10:33:02Z</time>
      </trkpt>
      <trkpt lat="42.01855" lon="9.21838">
        <ele>1778.542</ele>
        <time>2015-07-03T10:33:16Z</time>
      </trkpt>
      <trkpt lat="42.01857" lon="9.21842">
        <ele>1780.204</ele>
        <time>2015-07-03T10:33:29Z</time>
      </trkpt>
      <trkpt lat="42.01861" lon="9.21844">
        <ele>1781.385</ele>
        <time>2015-07-03T10:33:42Z</time>
      </trkpt>
      <trkpt lat="42.01862" lon="9.21847">
        <ele>1782.894</ele>
        <time>2015-07-03T10:33:56Z</time>
      </trkpt>
      <trkpt lat="42.0186" lon="9.21851">
        <ele>1784.178</ele>
        <time>2015-07-03T10:34:11Z</time>
      </trkpt>
      <trkpt lat="42.01856" lon="9.21854">
        <ele>1785.703</ele>
        <time>2015-07-03T10:34:24Z</time>
      </trkpt>
      <trkpt lat="42.01855" lon="9.2186">
        <ele>1786.757</ele>
        <time>2015-07-03T10:34:39Z</time>
      </trkpt>
      <trkpt lat="42.01855" lon="9.21864">
        <ele>1788.503</ele>
        <time>2015-07-03T10:34:53Z</time>
      </trkpt>
      <trkpt lat="42.01856" lon="9.21865">
        <ele>1789.611</ele>
        <time>2015-07-03T10:34:55Z</time>
      </trkpt>
      <trkpt lat="42.01858" lon="9.21867">
        <ele>1790.445</ele>
        <time>2015-07-03T10:35:05Z</time>
      </trkpt>
      <trkpt lat="42.01859" lon="9.2187">
        <ele>1792.312</ele>
        <time>2015-07-03T10:35:16Z</time>
      </trkpt>
      <trkpt lat="42.01855" lon="9.21871">
        <ele>1791.943</ele>
        <time>2015-07-03T10:35:30Z</time>
      </trkpt>
      <trkpt lat="42.01858" lon="9.21878">
        <ele>1792.283</ele>
        <time>2015-07-03T10:35:43Z</time>
      </trkpt>
      <trkpt lat="42.01856" lon="9.2188">
        <ele>1795.382</ele>
        <time>2015-07-03T10:35:55Z</time>
      </trkpt>
      <trkpt lat="42.01858" lon="9.21884">
        <ele>1797.229</ele>
        <time>2015-07-03T10:36:07Z</time>
      </trkpt>
      <trkpt lat="42.0186" lon="9.21886">
        <ele>1798.671</ele>
        <time>2015-07-03T10:36:21Z</time>
      </trkpt>
      <trkpt lat="42.01868" lon="9.21888">
        <ele>1799.142</ele>
        <time>2015-07-03T10:36:35Z</time>
      </trkpt>
      <trkpt lat="42.01869" lon="9.21889">
        <ele>1799.556</ele>
        <time>2015-07-03T10:36:47Z</time>
      </trkpt>
      <trkpt lat="42.01867" lon="9.21893">
        <ele>1800.32</ele>
        <time>2015-07-03T10:37:02Z</time>
      </trkpt>
      <trkpt lat="42.01872" lon="9.21893">
        <ele>1801.617</ele>
        <time>2015-07-03T10:37:13Z</time>
      </trkpt>
      <trkpt lat="42.01876" lon="9.21896">
        <ele>1802.967</ele>
        <time>2015-07-03T10:37:26Z</time>
      </trkpt>
      <trkpt lat="42.01876" lon="9.21894">
        <ele>1803.561</ele>
        <time>2015-07-03T10:37:41Z</time>
      </trkpt>
      <trkpt lat="42.01882" lon="9.21898">
        <ele>1805.545</ele>
        <time>2015-07-03T10:38:34Z</time>
      </trkpt>
      <trkpt lat="42.01884" lon="9.219">
        <ele>1806.769</ele>
        <time>2015-07-03T10:38:47Z</time>
      </trkpt>
      <trkpt lat="42.01883" lon="9.21906">
        <ele>1808.907</ele>
        <time>2015-07-03T10:39:02Z</time>
      </trkpt>
      <trkpt lat="42.01878" lon="9.21907">
        <ele>1810.264</ele>
        <time>2015-07-03T10:39:14Z</time>
      </trkpt>
      <trkpt lat="42.01877" lon="9.21913">
        <ele>1811.738</ele>
        <time>2015-07-03T10:39:27Z</time>
      </trkpt>
      <trkpt lat="42.01875" lon="9.21918">
        <ele>1812.837</ele>
        <time>2015-07-03T10:39:42Z</time>
      </trkpt>
      <trkpt lat="42.0187" lon="9.21923">
        <ele>1814.287</ele>
        <time>2015-07-03T10:39:56Z</time>
      </trkpt>
      <trkpt lat="42.01864" lon="9.21927">
        <ele>1814.705</ele>
        <time>2015-07-03T10:40:11Z</time>
      </trkpt>
      <trkpt lat="42.01862" lon="9.21934">
        <ele>1817.264</ele>
        <time>2015-07-03T10:40:26Z</time>
      </trkpt>
      <trkpt lat="42.01857" lon="9.21939">
        <ele>1817.754</ele>
        <time>2015-07-03T10:40:40Z</time>
      </trkpt>
      <trkpt lat="42.01852" lon="9.21945">
        <ele>1819.177</ele>
        <time>2015-07-03T10:40:55Z</time>
      </trkpt>
      <trkpt lat="42.01846" lon="9.2195">
        <ele>1820.808</ele>
        <time>2015-07-03T10:41:11Z</time>
      </trkpt>
      <trkpt lat="42.01847" lon="9.21956">
        <ele>1821.677</ele>
        <time>2015-07-03T10:41:25Z</time>
      </trkpt>
      <trkpt lat="42.01851" lon="9.21962">
        <ele>1823.682</ele>
        <time>2015-07-03T10:41:42Z</time>
      </trkpt>
      <trkpt lat="42.01849" lon="9.21967">
        <ele>1824.95</ele>
        <time>2015-07-03T10:41:56Z</time>
      </trkpt>
      <trkpt lat="42.01844" lon="9.21972">
        <ele>1826.723</ele>
        <time>2015-07-03T10:42:11Z</time>
      </trkpt>
      <trkpt lat="42.01841" lon="9.21975">
        <ele>1827.507</ele>
        <time>2015-07-03T10:42:25Z</time>
      </trkpt>
      <trkpt lat="42.01839" lon="9.2198">
        <ele>1829.398</ele>
        <time>2015-07-03T10:42:40Z</time>
      </trkpt>
      <trkpt lat="42.01835" lon="9.21986">
        <ele>1830.005</ele>
        <time>2015-07-03T10:42:54Z</time>
      </trkpt>
      <trkpt lat="42.01833" lon="9.2199">
        <ele>1831.547</ele>
        <time>2015-07-03T10:43:01Z</time>
      </trkpt>
      <trkpt lat="42.01829" lon="9.21996">
        <ele>1832.491</ele>
        <time>2015-07-03T10:43:16Z</time>
      </trkpt>
      <trkpt lat="42.01824" lon="9.22001">
        <ele>1833.946</ele>
        <time>2015-07-03T10:43:32Z</time>
      </trkpt>
      <trkpt lat="42.01821" lon="9.22009">
        <ele>1835.07</ele>
        <time>2015-07-03T10:43:46Z</time>
      </trkpt>
      <trkpt lat="42.01816" lon="9.22017">
        <ele>1837.204</ele>
        <time>2015-07-03T10:44:01Z</time>
      </trkpt>
      <trkpt lat="42.0181" lon="9.22026">
        <ele>1839.182</ele>
        <time>2015-07-03T10:44:17Z</time>
      </trkpt>
      <trkpt lat="42.01804" lon="9.22043">
        <ele>1840.196</ele>
        <time>2015-07-03T10:44:37Z</time>
      </trkpt>
      <trkpt lat="42.0179" lon="9.2205">
        <ele>1840.165</ele>
        <time>2015-07-03T10:44:56Z</time>
      </trkpt>
      <trkpt lat="42.01777" lon="9.22052">
        <ele>1840.539</ele>
        <time>2015-07-03T10:45:13Z</time>
      </trkpt>
      <trkpt lat="42.01758" lon="9.22054">
        <ele>1840.844</ele>
        <time>2015-07-03T10:45:34Z</time>
      </trkpt>
      <trkpt lat="42.01749" lon="9.22057">
        <ele>1840.77</ele>
        <time>2015-07-03T10:45:52Z</time>
      </trkpt>
      <trkpt lat="42.01733" lon="9.22055">
        <ele>1841.406</ele>
        <time>2015-07-03T10:46:09Z</time>
      </trkpt>
      <trkpt lat="42.01718" lon="9.22055">
        <ele>1842.594</ele>
        <time>2015-07-03T10:46:26Z</time>
      </trkpt>
      <trkpt lat="42.01701" lon="9.22057">
        <ele>1842.288</ele>
        <time>2015-07-03T10:46:45Z</time>
      </trkpt>
      <trkpt lat="42.01688" lon="9.22055">
        <ele>1842.35</ele>
        <time>2015-07-03T10:47:00Z</time>
      </trkpt>
      <trkpt lat="42.0168" lon="9.22052">
        <ele>1843.154</ele>
        <time>2015-07-03T10:47:10Z</time>
      </trkpt>
      <trkpt lat="42.0167" lon="9.22049">
        <ele>1842.938</ele>
        <time>2015-07-03T10:47:22Z</time>
      </trkpt>
      <trkpt lat="42.01654" lon="9.22039">
        <ele>1842.155</ele>
        <time>2015-07-03T10:47:40Z</time>
      </trkpt>
      <trkpt lat="42.01634" lon="9.22029">
        <ele>1842.46</ele>
        <time>2015-07-03T10:48:01Z</time>
      </trkpt>
      <trkpt lat="42.01616" lon="9.22021">
        <ele>1842.216</ele>
        <time>2015-07-03T10:48:21Z</time>
      </trkpt>
      <trkpt lat="42.01605" lon="9.22015">
        <ele>1843.187</ele>
        <time>2015-07-03T10:48:39Z</time>
      </trkpt>
      <trkpt lat="42.01602" lon="9.22015">
        <ele>1842.84</ele>
        <time>2015-07-03T10:48:44Z</time>
      </trkpt>
      <trkpt lat="42.01591" lon="9.22011">
        <ele>1843.995</ele>
        <time>2015-07-03T10:48:58Z</time>
      </trkpt>
      <trkpt lat="42.01578" lon="9.22008">
        <ele>1844.324</ele>
        <time>2015-07-03T10:49:14Z</time>
      </trkpt>
      <trkpt lat="42.01562" lon="9.22002">
        <ele>1845.531</ele>
        <time>2015-07-03T10:49:32Z</time>
      </trkpt>
      <trkpt lat="42.0155" lon="9.21997">
        <ele>1845.391</ele>
        <time>2015-07-03T10:49:45Z</time>
      </trkpt>
      <trkpt lat="42.0154" lon="9.21993">
        <ele>1845.339</ele>
        <time>2015-07-03T10:49:57Z</time>
      </trkpt>
      <trkpt lat="42.01527" lon="9.21987">
        <ele>1844.5</ele>
        <time>2015-07-03T10:50:14Z</time>
      </trkpt>
      <trkpt lat="42.01513" lon="9.21984">
        <ele>1842.66</ele>
        <time>2015-07-03T10:50:31Z</time>
      </trkpt>
      <trkpt lat="42.01494" lon="9.21974">
        <ele>1841.447</ele>
        <time>2015-07-03T10:50:52Z</time>
      </trkpt>
      <trkpt lat="42.01474" lon="9.21963">
        <ele>1843.212</ele>
        <time>2015-07-03T10:51:14Z</time>
      </trkpt>
      <trkpt lat="42.0146" lon="9.2196">
        <ele>1843.923</ele>
        <time>2015-07-03T10:51:30Z</time>
      </trkpt>
      <trkpt lat="42.0144" lon="9.21956">
        <ele>1844.019</ele>
        <time>2015-07-03T10:51:50Z</time>
      </trkpt>
      <trkpt lat="42.01437" lon="9.21954">
        <ele>1844.062</ele>
        <time>2015-07-03T10:51:53Z</time>
      </trkpt>
      <trkpt lat="42.01414" lon="9.21941">
        <ele>1844.379</ele>
        <time>2015-07-03T10:52:18Z</time>
      </trkpt>
      <trkpt lat="42.01395" lon="9.21926">
        <ele>1844.603</ele>
        <time>2015-07-03T10:52:40Z</time>
      </trkpt>
      <trkpt lat="42.0138" lon="9.21923">
        <ele>1845.491</ele>
        <time>2015-07-03T10:52:59Z</time>
      </trkpt>
      <trkpt lat="42.01365" lon="9.21921">
        <ele>1846.82</ele>
        <time>2015-07-03T10:53:17Z</time>
      </trkpt>
      <trkpt lat="42.01345" lon="9.21915">
        <ele>1848.253</ele>
        <time>2015-07-03T10:53:37Z</time>
      </trkpt>
      <trkpt lat="42.01324" lon="9.21907">
        <ele>1850.633</ele>
        <time>2015-07-03T10:54:00Z</time>
      </trkpt>
      <trkpt lat="42.01317" lon="9.21907">
        <ele>1850.401</ele>
        <time>2015-07-03T10:54:08Z</time>
      </trkpt>
      <trkpt lat="42.01303" lon="9.21906">
        <ele>1850.725</ele>
        <time>2015-07-03T10:54:25Z</time>
      </trkpt>
      <trkpt lat="42.01291" lon="9.21903">
        <ele>1851.404</ele>
        <time>2015-07-03T10:54:43Z</time>
      </trkpt>
      <trkpt lat="42.01278" lon="9.21897">
        <ele>1853.762</ele>
        <time>2015-07-03T10:55:01Z</time>
      </trkpt>
      <trkpt lat="42.01267" lon="9.219">
        <ele>1855.57</ele>
        <time>2015-07-03T10:55:17Z</time>
      </trkpt>
      <trkpt lat="42.01256" lon="9.21897">
        <ele>1856.414</ele>
        <time>2015-07-03T10:55:33Z</time>
      </trkpt>
      <trkpt lat="42.01244" lon="9.21899">
        <ele>1855.739</ele>
        <time>2015-07-03T10:55:48Z</time>
      </trkpt>
      <trkpt lat="42.01239" lon="9.21898">
        <ele>1856.656</ele>
        <time>2015-07-03T10:55:53Z</time>
      </trkpt>
      <trkpt lat="42.01222" lon="9.21886">
        <ele>1857.151</ele>
        <time>2015-07-03T10:56:13Z</time>
      </trkpt>
      <trkpt lat="42.01212" lon="9.2188">
        <ele>1857.584</ele>
        <time>2015-07-03T10:56:25Z</time>
      </trkpt>
      <trkpt lat="42.01203" lon="9.21879">
        <ele>1858.129</ele>
        <time>2015-07-03T10:56:34Z</time>
      </trkpt>
      <trkpt lat="42.01202" lon="9.21878">
        <ele>1858.962</ele>
        <time>2015-07-03T10:56:36Z</time>
      </trkpt>
      <trkpt lat="42.01181" lon="9.21865">
        <ele>1859.799</ele>
        <time>2015-07-03T10:56:57Z</time>
      </trkpt>
      <trkpt lat="42.01158" lon="9.2186">
        <ele>1859.549</ele>
        <time>2015-07-03T10:57:18Z</time>
      </trkpt>
      <trkpt lat="42.01138" lon="9.21856">
        <ele>1860.372</ele>
        <time>2015-07-03T10:57:37Z</time>
      </trkpt>
      <trkpt lat="42.01122" lon="9.21861">
        <ele>1858.67</ele>
        <time>2015-07-03T10:57:54Z</time>
      </trkpt>
      <trkpt lat="42.01106" lon="9.21867">
        <ele>1855.183</ele>
        <time>2015-07-03T10:58:10Z</time>
      </trkpt>
      <trkpt lat="42.01089" lon="9.21868">
        <ele>1854.473</ele>
        <time>2015-07-03T10:58:28Z</time>
      </trkpt>
      <trkpt lat="42.01075" lon="9.21869">
        <ele>1853.655</ele>
        <time>2015-07-03T10:58:44Z</time>
      </trkpt>
      <trkpt lat="42.01067" lon="9.21865">
        <ele>1852.738</ele>
        <time>2015-07-03T10:58:53Z</time>
      </trkpt>
      <trkpt lat="42.01056" lon="9.21859">
        <ele>1851.813</ele>
        <time>2015-07-03T10:59:05Z</time>
      </trkpt>
      <trkpt lat="42.01048" lon="9.2186">
        <ele>1850.025</ele>
        <time>2015-07-03T10:59:19Z</time>
      </trkpt>
      <trkpt lat="42.01038" lon="9.21857">
        <ele>1846.543</ele>
        <time>2015-07-03T10:59:35Z</time>
      </trkpt>
      <trkpt lat="42.0103" lon="9.21851">
        <ele>1845.259</ele>
        <time>2015-07-03T10:59:50Z</time>
      </trkpt>
      <trkpt lat="42.01021" lon="9.21851">
        <ele>1843.446</ele>
        <time>2015-07-03T11:00:05Z</time>
      </trkpt>
      <trkpt lat="42.0102" lon="9.2185">
        <ele>1842.019</ele>
        <time>2015-07-03T11:00:08Z</time>
      </trkpt>
      <trkpt lat="42.01013" lon="9.21841">
        <ele>1840.859</ele>
        <time>2015-07-03T11:00:23Z</time>
      </trkpt>
      <trkpt lat="42.01007" lon="9.21839">
        <ele>1838.816</ele>
        <time>2015-07-03T11:00:37Z</time>
      </trkpt>
      <trkpt lat="42.00998" lon="9.21835">
        <ele>1837.307</ele>
        <time>2015-07-03T11:00:51Z</time>
      </trkpt>
      <trkpt lat="42.00989" lon="9.21832">
        <ele>1835.381</ele>
        <time>2015-07-03T11:01:03Z</time>
      </trkpt>
      <trkpt lat="42.00978" lon="9.21829">
        <ele>1834.21</ele>
        <time>2015-07-03T11:01:14Z</time>
      </trkpt>
      <trkpt lat="42.00959" lon="9.21824">
        <ele>1833.672</ele>
        <time>2015-07-03T11:01:32Z</time>
      </trkpt>
      <trkpt lat="42.00946" lon="9.2182">
        <ele>1832.062</ele>
        <time>2015-07-03T11:01:47Z</time>
      </trkpt>
      <trkpt lat="42.00934" lon="9.21817">
        <ele>1830.032</ele>
        <time>2015-07-03T11:02:02Z</time>
      </trkpt>
      <trkpt lat="42.0093" lon="9.21823">
        <ele>1826.961</ele>
        <time>2015-07-03T11:02:10Z</time>
      </trkpt>
      <trkpt lat="42.00925" lon="9.21823">
        <ele>1826.251</ele>
        <time>2015-07-03T11:02:16Z</time>
      </trkpt>
      <trkpt lat="42.00919" lon="9.2182">
        <ele>1825.39</ele>
        <time>2015-07-03T11:02:23Z</time>
      </trkpt>
      <trkpt lat="42.00906" lon="9.21814">
        <ele>1824.704</ele>
        <time>2015-07-03T11:02:36Z</time>
      </trkpt>
      <trkpt lat="42.00892" lon="9.21814">
        <ele>1822.883</ele>
        <time>2015-07-03T11:02:50Z</time>
      </trkpt>
      <trkpt lat="42.0089" lon="9.21813">
        <ele>1823.141</ele>
        <time>2015-07-03T11:02:52Z</time>
      </trkpt>
      <trkpt lat="42.00886" lon="9.21813">
        <ele>1822.799</ele>
        <time>2015-07-03T11:02:56Z</time>
      </trkpt>
      <trkpt lat="42.00879" lon="9.21812">
        <ele>1820.825</ele>
        <time>2015-07-03T11:03:03Z</time>
      </trkpt>
      <trkpt lat="42.00872" lon="9.2181">
        <ele>1821.224</ele>
        <time>2015-07-03T11:03:09Z</time>
      </trkpt>
      <trkpt lat="42.00855" lon="9.21803">
        <ele>1817.2</ele>
        <time>2015-07-03T11:03:27Z</time>
      </trkpt>
      <trkpt lat="42.00847" lon="9.218">
        <ele>1816.349</ele>
        <time>2015-07-03T11:03:36Z</time>
      </trkpt>
      <trkpt lat="42.00839" lon="9.21806">
        <ele>1814.538</ele>
        <time>2015-07-03T11:03:50Z</time>
      </trkpt>
      <trkpt lat="42.00831" lon="9.21805">
        <ele>1813.68</ele>
        <time>2015-07-03T11:03:58Z</time>
      </trkpt>
      <trkpt lat="42.00823" lon="9.218">
        <ele>1812.939</ele>
        <time>2015-07-03T11:04:17Z</time>
      </trkpt>
      <trkpt lat="42.00822" lon="9.21798">
        <ele>1813.94</ele>
        <time>2015-07-03T11:04:34Z</time>
      </trkpt>
      <trkpt lat="42.00821" lon="9.21796">
        <ele>1812.683</ele>
        <time>2015-07-03T11:04:40Z</time>
      </trkpt>
      <trkpt lat="42.0082" lon="9.21798">
        <ele>1807.449</ele>
        <time>2015-07-03T11:05:18Z</time>
      </trkpt>
      <trkpt lat="42.0082" lon="9.21798">
        <ele>1812.436</ele>
        <time>2015-07-03T11:05:19Z</time>
      </trkpt>
      <trkpt lat="42.0082" lon="9.21799">
        <ele>1807.948</ele>
        <time>2015-07-03T11:05:21Z</time>
      </trkpt>
      <trkpt lat="42.0082" lon="9.21799">
        <ele>1814.941</ele>
        <time>2015-07-03T11:05:22Z</time>
      </trkpt>
      <trkpt lat="42.0082" lon="9.21797">
        <ele>1812.792</ele>
        <time>2015-07-03T11:05:59Z</time>
      </trkpt>
      <trkpt lat="42.00821" lon="9.21797">
        <ele>1814.061</ele>
        <time>2015-07-03T11:06:06Z</time>
      </trkpt>
      <trkpt lat="42.00822" lon="9.21796">
        <ele>1812.665</ele>
        <time>2015-07-03T11:06:22Z</time>
      </trkpt>
      <trkpt lat="42.00822" lon="9.21796">
        <ele>1813.754</ele>
        <time>2015-07-03T11:06:51Z</time>
      </trkpt>
    </trkseg>
  </trk>
</gpx>